Darstellungsparameter: Aktuell verwendete Einstellungen:
Skalierung der Graphiken ... ?
xyx+y,   Skalierungsfaktor:      Skalierung: Modus: x, Faktor: 1
Darstellungszeitraum ... ?
Vom - - bis: - -   Zeitraum: 11.12.2019 - 31.12.2019
Min/Max/Avg-Anzeige ... ?
Zeige MMA aktuell
Zeige MMA Monat
Zeige MMA alles
Zeige --A aktuell
Zeige --A Monat
Zeige --A alles
Keine MMA-Anzeige
MMA:
Average (ber die Originaldaten)
MMA-Basis: 11.12.2019 - 31.12.2019
Quicknavigation für Darstellung... ?
Tage:      1T, 2T, 3T, 5T -1T -2T -3T -5T +1T +2T +3T +5T
Wochen: 1W, 2W, 3W -1W -2W -3W +1W +2W +3W
Monate: 1M, 3M, 6M -1M -3M -6M +1M +3M +6M
Jahre:    1J, 3J, 5J, 10J -1J -3J -5J -10J +1J +3J +5J +10J
Nutze für die Darstellung ... ?
Originaldaten oder Mittelwerte auf ...
Stundenbasis Tagesbasis Wochenbasis
Monatsbasis Jahresbasis      Datenbasis: Original-Daten
Darstellen als:
Statistik (Auto) Statistik J:M      Darstellung:
Zur Graphik,    zurück zur Übersicht aller Sensoren.
 
Tabellarische Datenbersicht: ?
 
Sensor: Nr:Datum:Temp:Feuchte:
Aussen-T/F 1 11-12-2019 00:01:18 3.2 C 30 %
2 11-12-2019 00:11:18 3.3 C 29 %
3 11-12-2019 00:21:17 3.4 C 28 %
4 11-12-2019 00:31:17 3.4 C 29 %
5 11-12-2019 00:41:17 3.5 C 27 %
6 11-12-2019 00:51:17 3.4 C 27 %
7 11-12-2019 01:01:17 3.5 C 25 %
8 11-12-2019 01:11:17 3.4 C 27 %
9 11-12-2019 01:21:18 3.4 C 28 %
10 11-12-2019 01:31:17 3.4 C 29 %
11 11-12-2019 01:41:17 3.2 C 30 %
12 11-12-2019 01:51:17 3.1 C 32 %
13 11-12-2019 02:01:17 3 C 33 %
14 11-12-2019 02:11:17 2.9 C 33 %
15 11-12-2019 02:21:17 2.9 C 32 %
16 11-12-2019 02:31:18 2.8 C 34 %
17 11-12-2019 02:41:18 2.9 C 31 %
18 11-12-2019 02:51:17 3 C 30 %
19 11-12-2019 03:01:18 3.1 C 30 %
20 11-12-2019 03:11:18 3 C 32 %
21 11-12-2019 03:21:17 2.9 C 30 %
22 11-12-2019 03:31:17 3 C 30 %
23 11-12-2019 03:41:17 3 C 35 %
24 11-12-2019 03:51:17 2.8 C 36 %
25 11-12-2019 04:01:17 2.7 C 35 %
Sensor: Nr:Datum:Temp:Feuchte:
Aussen-T/F 26 11-12-2019 04:11:17 2.8 C 35 %
27 11-12-2019 04:21:17 2.8 C 35 %
28 11-12-2019 04:31:18 2.8 C 38 %
29 11-12-2019 04:41:18 2.7 C 38 %
30 11-12-2019 04:51:17 2.7 C 39 %
31 11-12-2019 05:01:17 2.7 C 39 %
32 11-12-2019 05:11:17 2.7 C 39 %
33 11-12-2019 05:21:18 2.7 C 40 %
34 11-12-2019 05:31:17 2.6 C 42 %
35 11-12-2019 05:41:17 2.6 C 43 %
36 11-12-2019 05:51:17 2.5 C 44 %
37 11-12-2019 06:01:18 2.5 C 44 %
38 11-12-2019 06:11:18 2.5 C 44 %
39 11-12-2019 06:21:17 2.5 C 44 %
40 11-12-2019 06:31:17 2.5 C 44 %
41 11-12-2019 06:41:17 2.5 C 44 %
42 11-12-2019 06:51:17 2.5 C 44 %
43 11-12-2019 07:01:17 2.4 C 44 %
44 11-12-2019 07:11:17 2.5 C 44 %
45 11-12-2019 07:21:17 2.4 C 44 %
46 11-12-2019 07:31:17 2.4 C 44 %
47 11-12-2019 07:41:18 2.4 C 43 %
48 11-12-2019 07:51:17 2.4 C 43 %
49 11-12-2019 08:01:17 2.4 C 43 %
50 11-12-2019 08:11:17 2.4 C 43 %
Sensor: Nr:Datum:Temp:Feuchte:
Aussen-T/F 51 11-12-2019 08:21:17 2.4 C 43 %
52 11-12-2019 08:31:18 2.3 C 43 %
53 11-12-2019 08:41:18 2.3 C 43 %
54 11-12-2019 08:51:17 2.3 C 43 %
55 11-12-2019 09:01:18 2.3 C 43 %
56 11-12-2019 09:11:18 2.4 C 43 %
57 11-12-2019 09:21:17 2.5 C 43 %
58 11-12-2019 09:31:17 2.5 C 43 %
59 11-12-2019 09:41:17 2.5 C 43 %
60 11-12-2019 09:51:17 2.5 C 43 %
61 11-12-2019 10:01:17 2.6 C 43 %
62 11-12-2019 10:11:17 2.7 C 43 %
63 11-12-2019 10:21:17 2.7 C 42 %
64 11-12-2019 10:31:17 2.7 C 42 %
65 11-12-2019 10:41:17 2.8 C 41 %
66 11-12-2019 10:51:17 3.1 C 40 %
67 11-12-2019 11:01:17 3 C 39 %
68 11-12-2019 11:11:17 3.1 C 39 %
69 11-12-2019 11:21:17 3.2 C 39 %
70 11-12-2019 11:31:17 3.1 C 38 %
71 11-12-2019 11:41:17 3.1 C 38 %
72 11-12-2019 11:51:17 3.2 C 39 %
73 11-12-2019 12:01:18 3.2 C 39 %
74 11-12-2019 12:11:18 3.1 C 39 %
75 11-12-2019 12:21:17 3.1 C 39 %
Sensor: Nr:Datum:Temp:Feuchte:
Aussen-T/F 76 11-12-2019 12:31:17 3.1 C 40 %
77 11-12-2019 12:41:17 3.1 C 40 %
78 11-12-2019 12:51:17 3.1 C 40 %
79 11-12-2019 13:01:18 3.2 C 40 %
80 11-12-2019 13:11:18 3.2 C 40 %
81 11-12-2019 13:21:17 3.2 C 40 %
82 11-12-2019 13:31:17 3.2 C 40 %
83 11-12-2019 13:41:17 3.2 C 40 %
84 11-12-2019 13:51:17 3.2 C 40 %
85 11-12-2019 14:01:17 3.2 C 41 %
86 11-12-2019 14:11:18 3.2 C 41 %
87 11-12-2019 14:21:17 3.2 C 41 %
88 11-12-2019 14:31:17 3.3 C 41 %
89 11-12-2019 14:41:17 3.3 C 42 %
90 11-12-2019 14:51:17 3.3 C 42 %
91 11-12-2019 15:01:17 3.3 C 42 %
92 11-12-2019 15:11:17 3.4 C 42 %
93 11-12-2019 15:21:17 3.3 C 42 %
94 11-12-2019 15:31:18 3.3 C 42 %
95 11-12-2019 15:41:18 3.3 C 42 %
96 11-12-2019 15:51:17 3.3 C 42 %
97 11-12-2019 16:01:17 3.2 C 42 %
98 11-12-2019 16:11:17 3.2 C 42 %
99 11-12-2019 16:21:17 3.2 C 42 %
100 11-12-2019 16:31:17 3.2 C 42 %
Sensor: Nr:Datum:Temp:Feuchte:
Aussen-T/F 101 11-12-2019 16:41:17 3.1 C 42 %
102 11-12-2019 16:51:17 3.1 C 42 %
103 11-12-2019 17:01:17 3.1 C 43 %
104 11-12-2019 17:11:17 3.1 C 42 %
105 11-12-2019 17:21:17 3.1 C 42 %
106 11-12-2019 17:31:17 3.1 C 42 %
107 11-12-2019 17:41:17 3.1 C 42 %
108 11-12-2019 17:51:18 3.2 C 43 %
109 11-12-2019 18:01:17 3.2 C 43 %
110 11-12-2019 18:11:17 3.3 C 43 %
111 11-12-2019 18:21:17 3.3 C 43 %
112 11-12-2019 18:31:18 3.4 C 43 %
113 11-12-2019 18:41:18 3.4 C 43 %
114 11-12-2019 18:51:17 3.5 C 43 %
115 11-12-2019 19:01:17 3.5 C 42 %
116 11-12-2019 19:11:17 3.5 C 42 %
117 11-12-2019 19:21:18 3.5 C 42 %
118 11-12-2019 19:31:17 3.5 C 42 %
119 11-12-2019 19:41:17 3.6 C 42 %
120 11-12-2019 19:51:18 3.6 C 42 %
121 11-12-2019 20:01:17 3.6 C 42 %
122 11-12-2019 20:11:17 3.7 C 42 %
123 11-12-2019 20:21:17 3.8 C 42 %
124 11-12-2019 20:31:18 3.8 C 42 %
125 11-12-2019 20:41:18 3.9 C 42 %
Sensor: Nr:Datum:Temp:Feuchte:
Aussen-T/F 126 11-12-2019 20:51:17 4.1 C 41 %
127 11-12-2019 21:01:17 4.1 C 40 %
128 11-12-2019 21:11:17 4.3 C 39 %
129 11-12-2019 21:21:17 4.4 C 37 %
130 11-12-2019 21:31:17 4.1 C 37 %
131 11-12-2019 21:41:17 4.3 C 37 %
132 11-12-2019 21:51:17 4.3 C 36 %
133 11-12-2019 22:01:17 4.5 C 35 %
134 11-12-2019 22:11:17 4.1 C 35 %
135 11-12-2019 22:21:17 3.9 C 37 %
136 11-12-2019 22:31:17 3.6 C 39 %
137 11-12-2019 22:41:17 3.8 C 39 %
138 11-12-2019 22:51:18 3.5 C 40 %
139 11-12-2019 23:01:17 3.8 C 40 %
140 11-12-2019 23:11:17 3.8 C 40 %
141 11-12-2019 23:21:17 3.4 C 40 %
142 11-12-2019 23:31:17 3 C 41 %
143 11-12-2019 23:41:17 3.4 C 43 %
144 11-12-2019 23:51:18 3.2 C 42 %
145 12-12-2019 00:01:17 3 C 42 %
146 12-12-2019 00:11:17 2.9 C 43 %
147 12-12-2019 00:21:17 2.8 C 43 %
148 12-12-2019 00:31:17 2.5 C 43 %
149 12-12-2019 00:41:17 2.4 C 43 %
150 12-12-2019 00:51:17 2.3 C 43 %
Sensor: Nr:Datum:Temp:Feuchte:
Aussen-T/F 151 12-12-2019 01:01:17 2.7 C 44 %
152 12-12-2019 01:11:17 2.8 C 44 %
153 12-12-2019 01:21:18 2.6 C 43 %
154 12-12-2019 01:31:17 2.2 C 43 %
155 12-12-2019 01:41:17 2.5 C 43 %
156 12-12-2019 01:51:18 2.1 C 43 %
157 12-12-2019 02:01:17 1.8 C 44 %
158 12-12-2019 02:11:17 1.6 C 44 %
159 12-12-2019 02:21:17 1.7 C 44 %
160 12-12-2019 02:31:18 1.6 C 44 %
161 12-12-2019 02:41:18 2 C 43 %
162 12-12-2019 02:51:17 2 C 43 %
163 12-12-2019 03:01:17 2.3 C 43 %
164 12-12-2019 03:11:17 2.4 C 43 %
165 12-12-2019 03:21:17 2.5 C 43 %
166 12-12-2019 03:31:17 2.4 C 43 %
167 12-12-2019 03:41:17 2.5 C 43 %
168 12-12-2019 03:51:17 2.7 C 43 %
169 12-12-2019 04:01:17 2.6 C 43 %
170 12-12-2019 04:11:17 2.7 C 43 %
171 12-12-2019 04:21:17 2.8 C 43 %
172 12-12-2019 04:31:17 2.8 C 43 %
173 12-12-2019 04:41:17 2.9 C 43 %
174 12-12-2019 04:51:17 2.4 C 42 %
175 12-12-2019 05:01:17 2 C 42 %
Sensor: Nr:Datum:Temp:Feuchte:
Aussen-T/F 176 12-12-2019 05:11:17 2.1 C 42 %
177 12-12-2019 05:21:17 2.2 C 42 %
178 12-12-2019 05:31:18 2.1 C 42 %
179 12-12-2019 05:41:18 2.1 C 42 %
180 12-12-2019 05:51:17 2.1 C 42 %
181 12-12-2019 06:01:17 1.9 C 43 %
182 12-12-2019 06:11:17 2 C 42 %
183 12-12-2019 06:21:17 2.1 C 42 %
184 12-12-2019 06:31:17 2.1 C 42 %
185 12-12-2019 06:41:17 2.3 C 42 %
186 12-12-2019 06:51:17 2.7 C 43 %
187 12-12-2019 07:01:17 3 C 42 %
188 12-12-2019 07:11:17 3 C 42 %
189 12-12-2019 07:21:17 3 C 42 %
190 12-12-2019 07:31:17 3 C 42 %
191 12-12-2019 07:41:17 2.8 C 42 %
192 12-12-2019 07:51:17 2.9 C 42 %
193 12-12-2019 08:01:17 2.9 C 42 %
194 12-12-2019 08:11:17 3.1 C 42 %
195 12-12-2019 08:21:17 3.2 C 42 %
196 12-12-2019 08:31:18 3.3 C 42 %
197 12-12-2019 08:41:18 3.5 C 42 %
198 12-12-2019 08:51:17 3.5 C 42 %
199 12-12-2019 09:01:18 3.5 C 42 %
200 12-12-2019 09:11:18 3.6 C 42 %
Sensor: Nr:Datum:Temp:Feuchte:
Aussen-T/F 201 12-12-2019 09:21:17 3.9 C 42 %
202 12-12-2019 09:31:17 3.9 C 42 %
203 12-12-2019 09:41:17 3.7 C 41 %
204 12-12-2019 09:51:17 3.5 C 41 %
205 12-12-2019 10:01:17 3.9 C 41 %
206 12-12-2019 10:11:17 4 C 40 %
207 12-12-2019 10:21:18 4.4 C 37 %
208 12-12-2019 10:31:17 4.6 C 35 %
209 12-12-2019 10:41:17 4.7 C 32 %
210 12-12-2019 10:51:17 4.8 C 31 %
211 12-12-2019 11:01:18 4.7 C 32 %
212 12-12-2019 11:11:18 4.6 C 31 %
213 12-12-2019 11:21:17 4.4 C 31 %
214 12-12-2019 11:31:17 4.4 C 32 %
215 12-12-2019 11:41:17 4.7 C 31 %
216 12-12-2019 11:51:18 4.9 C 29 %
217 12-12-2019 12:01:17 5.1 C 29 %
218 12-12-2019 12:11:17 5.1 C 27 %
219 12-12-2019 12:21:17 5 C 26 %
220 12-12-2019 12:31:18 4.7 C 27 %
221 12-12-2019 12:41:18 4.7 C 28 %
222 12-12-2019 12:51:17 4.7 C 27 %
223 12-12-2019 13:01:17 4.6 C 28 %
224 12-12-2019 13:11:18 5 C 26 %
225 12-12-2019 13:21:17 4.8 C 27 %
Sensor: Nr:Datum:Temp:Feuchte:
Aussen-T/F 226 12-12-2019 13:31:17 4.6 C 26 %
227 12-12-2019 13:41:17 4.2 C 26 %
228 12-12-2019 13:51:17 4.6 C 25 %
229 12-12-2019 14:01:17 4.6 C 25 %
230 12-12-2019 14:11:17 4.3 C 25 %
231 12-12-2019 14:21:17 4 C 27 %
232 12-12-2019 14:31:18 4.5 C 25 %
233 12-12-2019 14:41:18 4.8 C 25 %
234 12-12-2019 14:51:17 4.7 C 25 %
235 12-12-2019 15:01:18 4 C 26 %
236 12-12-2019 15:11:18 4.2 C 26 %
237 12-12-2019 15:21:17 3.6 C 29 %
238 12-12-2019 15:31:17 3.5 C 29 %
239 12-12-2019 15:41:17 3.8 C 28 %
240 12-12-2019 15:51:17 3.7 C 28 %
241 12-12-2019 16:01:17 3.6 C 28 %
242 12-12-2019 16:11:17 3.7 C 26 %
243 12-12-2019 16:21:18 3.5 C 27 %
244 12-12-2019 16:31:17 3.4 C 26 %
245 12-12-2019 16:41:17 3.3 C 28 %
246 12-12-2019 16:51:17 3.1 C 30 %
247 12-12-2019 17:01:17 2.6 C 30 %
248 12-12-2019 17:11:17 1.7 C 35 %
249 12-12-2019 17:21:17 1.2 C 36 %
250 12-12-2019 17:31:17 1.1 C 38 %
Sensor: Nr:Datum:Temp:Feuchte:
Aussen-T/F 251 12-12-2019 17:41:17 0.9 C 41 %
252 12-12-2019 17:51:17 1 C 40 %
253 12-12-2019 18:01:17 1.1 C 40 %
254 12-12-2019 18:11:17 1.1 C 40 %
255 12-12-2019 18:21:17 1.1 C 40 %
256 12-12-2019 18:31:17 1 C 40 %
257 12-12-2019 18:41:17 0.9 C 41 %
258 12-12-2019 18:51:17 0.7 C 41 %
259 12-12-2019 19:01:17 0.7 C 41 %
260 12-12-2019 19:11:17 0.6 C 41 %
261 12-12-2019 19:21:17 0.6 C 42 %
262 12-12-2019 19:31:17 0.6 C 42 %
263 12-12-2019 19:41:17 0.7 C 42 %
264 12-12-2019 19:51:17 0.7 C 41 %
265 12-12-2019 20:01:17 0.6 C 41 %
266 12-12-2019 20:11:17 0.6 C 41 %
267 12-12-2019 20:21:17 0.6 C 41 %
268 12-12-2019 20:31:17 0.6 C 41 %
269 12-12-2019 20:41:17 0.6 C 41 %
270 12-12-2019 20:51:17 1.3 C 42 %
271 12-12-2019 21:01:17 1.6 C 38 %
272 12-12-2019 21:11:17 1.6 C 36 %
273 12-12-2019 21:21:17 1.3 C 36 %
274 12-12-2019 21:31:17 1.3 C 35 %
275 12-12-2019 21:41:17 1 C 35 %
Sensor: Nr:Datum:Temp:Feuchte:
Aussen-T/F 276 12-12-2019 21:51:17 0.7 C 37 %
277 12-12-2019 22:01:17 1.2 C 37 %
278 12-12-2019 22:11:17 0.9 C 37 %
279 12-12-2019 22:21:18 0.4 C 38 %
280 12-12-2019 22:31:17 0.3 C 39 %
281 12-12-2019 22:41:17 0.2 C 40 %
282 12-12-2019 22:51:17 0.4 C 39 %
283 12-12-2019 23:01:18 1.1 C 37 %
284 12-12-2019 23:11:18 1.5 C 35 %
285 12-12-2019 23:21:17 1.9 C 32 %
286 12-12-2019 23:31:17 1.6 C 31 %
287 12-12-2019 23:41:17 1.4 C 32 %
288 12-12-2019 23:51:17 1.5 C 31 %
289 13-12-2019 00:01:17 0.9 C 33 %
290 13-12-2019 00:11:17 0.6 C 35 %
291 13-12-2019 00:21:17 1 C 33 %
292 13-12-2019 00:31:18 0.7 C 34 %
293 13-12-2019 00:41:18 0.9 C 35 %
294 13-12-2019 00:51:17 1.3 C 32 %
295 13-12-2019 01:01:18 1.7 C 30 %
296 13-12-2019 01:11:18 1.8 C 29 %
297 13-12-2019 01:21:17 2 C 27 %
298 13-12-2019 01:31:17 1.9 C 28 %
299 13-12-2019 01:41:17 2 C 27 %
300 13-12-2019 01:51:17 2 C 27 %
Sensor: Nr:Datum:Temp:Feuchte:
Aussen-T/F 301 13-12-2019 02:01:18 1.9 C 29 %
302 13-12-2019 02:11:18 2 C 27 %
303 13-12-2019 02:21:17 2 C 27 %
304 13-12-2019 02:31:17 2 C 27 %
305 13-12-2019 02:41:17 2 C 27 %
306 13-12-2019 02:51:17 2 C 27 %
307 13-12-2019 03:01:17 1.8 C 29 %
308 13-12-2019 03:11:17 1.8 C 30 %
309 13-12-2019 03:21:17 1.7 C 30 %
310 13-12-2019 03:31:17 1.6 C 30 %
311 13-12-2019 03:41:17 1.7 C 30 %
312 13-12-2019 03:51:17 1.6 C 31 %
313 13-12-2019 04:01:17 1.4 C 32 %
314 13-12-2019 04:11:17 1.5 C 32 %
315 13-12-2019 04:21:17 1.6 C 32 %
316 13-12-2019 04:31:17 1.6 C 32 %
317 13-12-2019 04:41:17 1.6 C 32 %
318 13-12-2019 04:51:17 1.4 C 34 %
319 13-12-2019 05:01:17 1.4 C 35 %
320 13-12-2019 05:11:17 1.5 C 34 %
321 13-12-2019 05:21:17 1.5 C 34 %
322 13-12-2019 05:31:18 1.7 C 33 %
323 13-12-2019 05:41:18 1.7 C 32 %
324 13-12-2019 05:51:17 1.8 C 33 %
325 13-12-2019 06:01:17 1.9 C 32 %
Sensor: Nr:Datum:Temp:Feuchte:
Aussen-T/F 326 13-12-2019 06:11:17 2 C 31 %
327 13-12-2019 06:21:17 2 C 31 %
328 13-12-2019 06:31:17 2 C 32 %
329 13-12-2019 06:41:17 1.7 C 35 %
330 13-12-2019 06:51:17 1.8 C 37 %
331 13-12-2019 07:01:17 1.8 C 37 %
332 13-12-2019 07:11:18 1.7 C 39 %
333 13-12-2019 07:21:17 1.8 C 38 %
334 13-12-2019 07:31:17 1.8 C 40 %
335 13-12-2019 07:41:17 1.8 C 39 %
336 13-12-2019 07:51:17 1.9 C 38 %
337 13-12-2019 08:01:17 1.8 C 38 %
338 13-12-2019 08:11:17 1.8 C 39 %
339 13-12-2019 08:21:17 1.7 C 40 %
340 13-12-2019 08:31:17 1.7 C 41 %
341 13-12-2019 08:41:17 1.6 C 41 %
342 13-12-2019 08:51:17 1.7 C 41 %
343 13-12-2019 09:01:17 1.9 C 40 %
344 13-12-2019 09:11:17 1.9 C 40 %
345 13-12-2019 09:21:17 1.9 C 40 %
346 13-12-2019 09:31:17 1.7 C 42 %
347 13-12-2019 09:41:17 1.7 C 42 %
348 13-12-2019 09:51:18 1.9 C 43 %
349 13-12-2019 10:01:17 1.8 C 43 %
350 13-12-2019 10:11:17 1.9 C 43 %
Sensor: Nr:Datum:Temp:Feuchte:
Aussen-T/F 351 13-12-2019 10:21:18 2 C 41 %
352 13-12-2019 10:31:17 2.2 C 41 %
353 13-12-2019 10:41:17 2.3 C 41 %
354 13-12-2019 10:51:18 2.3 C 41 %
355 13-12-2019 11:01:17 2.4 C 41 %
356 13-12-2019 11:11:17 2.3 C 40 %
357 13-12-2019 11:21:17 2.3 C 40 %
358 13-12-2019 11:31:17 2.4 C 41 %
359 13-12-2019 11:41:17 2.5 C 41 %
360 13-12-2019 11:51:18 2.8 C 42 %
361 13-12-2019 12:01:17 3 C 41 %
362 13-12-2019 12:11:17 3.1 C 39 %
363 13-12-2019 12:21:17 3.2 C 38 %
364 13-12-2019 12:31:17 3.5 C 38 %
365 13-12-2019 12:41:17 3.5 C 38 %
366 13-12-2019 12:51:18 3.6 C 38 %
367 13-12-2019 13:01:18 3.8 C 39 %
368 13-12-2019 13:11:18 4.1 C 37 %
369 13-12-2019 13:21:17 4.6 C 38 %
370 13-12-2019 13:31:17 5.2 C 35 %
371 13-12-2019 13:41:17 5.7 C 35 %
372 13-12-2019 13:51:17 6.4 C 31 %
373 13-12-2019 14:01:17 6.7 C 30 %
374 13-12-2019 14:11:17 7 C 28 %
375 13-12-2019 14:21:17 6.8 C 29 %
Sensor: Nr:Datum:Temp:Feuchte:
Aussen-T/F 376 13-12-2019 14:31:17 6.8 C 28 %
377 13-12-2019 14:41:17 6.7 C 28 %
378 13-12-2019 14:51:18 6.4 C 29 %
379 13-12-2019 15:01:18 6.3 C 29 %
380 13-12-2019 15:11:18 6.3 C 29 %
381 13-12-2019 15:21:17 6.2 C 30 %
382 13-12-2019 15:31:17 5.9 C 30 %
383 13-12-2019 15:41:17 5.8 C 31 %
384 13-12-2019 15:51:17 5.5 C 31 %
385 13-12-2019 16:01:18 5.3 C 30 %
386 13-12-2019 16:11:18 5.4 C 30 %
387 13-12-2019 16:21:17 5.3 C 30 %
388 13-12-2019 16:31:17 5.1 C 30 %
389 13-12-2019 16:41:17 4.8 C 31 %
390 13-12-2019 16:51:17 4.5 C 31 %
391 13-12-2019 17:01:17 4.6 C 31 %
392 13-12-2019 17:11:17 4.5 C 31 %
393 13-12-2019 17:21:17 4.3 C 34 %
394 13-12-2019 17:31:18 4.3 C 34 %
395 13-12-2019 17:41:18 4.2 C 33 %
396 13-12-2019 17:51:17 4 C 33 %
397 13-12-2019 18:01:17 3.8 C 36 %
398 13-12-2019 18:11:17 3.7 C 40 %
399 13-12-2019 18:21:17 3.8 C 39 %
400 13-12-2019 18:31:17 3.8 C 40 %
Sensor: Nr:Datum:Temp:Feuchte:
Aussen-T/F 401 13-12-2019 18:41:18 3.8 C 39 %
402 13-12-2019 18:51:17 3.9 C 36 %
403 13-12-2019 19:01:17 3.9 C 36 %
404 13-12-2019 19:11:17 3.9 C 35 %
405 13-12-2019 19:21:17 4 C 34 %
406 13-12-2019 19:31:17 4.1 C 35 %
407 13-12-2019 19:41:17 4 C 36 %
408 13-12-2019 19:51:17 4.6 C 32 %
409 13-12-2019 20:01:17 4.6 C 32 %
410 13-12-2019 20:11:17 4.8 C 31 %
411 13-12-2019 20:21:17 4.7 C 31 %
412 13-12-2019 20:31:17 4.7 C 31 %
413 13-12-2019 20:41:17 4.7 C 32 %
414 13-12-2019 20:51:17 4.5 C 32 %
415 13-12-2019 21:01:17 4.3 C 34 %
416 13-12-2019 21:11:17 4 C 36 %
417 13-12-2019 21:21:17 4.5 C 35 %
418 13-12-2019 21:31:18 4.4 C 33 %
419 13-12-2019 21:41:18 4.4 C 35 %
420 13-12-2019 21:51:17 4.6 C 32 %
421 13-12-2019 22:01:17 4.6 C 31 %
422 13-12-2019 22:11:17 4.6 C 30 %
423 13-12-2019 22:21:17 4.7 C 30 %
424 13-12-2019 22:31:18 4.7 C 30 %
425 13-12-2019 22:41:18 3.8 C 34 %
Sensor: Nr:Datum:Temp:Feuchte:
Aussen-T/F 426 13-12-2019 22:51:17 3.8 C 36 %
427 13-12-2019 23:01:17 4.5 C 32 %
428 13-12-2019 23:11:17 5.1 C 29 %
429 13-12-2019 23:21:17 5.2 C 28 %
430 13-12-2019 23:31:17 5.2 C 28 %
431 13-12-2019 23:41:17 5 C 30 %
432 13-12-2019 23:51:17 5 C 30 %
433 14-12-2019 00:01:17 4.4 C 32 %
434 14-12-2019 00:11:17 4.5 C 30 %
435 14-12-2019 00:21:17 4.6 C 30 %
436 14-12-2019 00:31:18 4.3 C 33 %
437 14-12-2019 00:41:18 4.7 C 32 %
438 14-12-2019 00:51:17 5.1 C 28 %
439 14-12-2019 01:01:17 5.4 C 27 %
440 14-12-2019 01:11:17 5.3 C 27 %
441 14-12-2019 01:21:17 5.2 C 26 %
442 14-12-2019 01:31:17 5.1 C 26 %
443 14-12-2019 01:41:17 5.3 C 25 %
444 14-12-2019 01:51:17 5.2 C 25 %
445 14-12-2019 02:01:17 5 C 26 %
446 14-12-2019 02:11:17 4.5 C 30 %
447 14-12-2019 02:21:17 4.6 C 29 %
448 14-12-2019 02:31:18 4.7 C 29 %
449 14-12-2019 02:41:18 4.8 C 28 %
450 14-12-2019 02:51:17 4.5 C 30 %
Sensor: Nr:Datum:Temp:Feuchte:
Aussen-T/F 451 14-12-2019 03:01:18 4.2 C 33 %
452 14-12-2019 03:11:18 4.1 C 36 %
453 14-12-2019 03:21:17 3.9 C 38 %
454 14-12-2019 03:31:17 3.9 C 39 %
455 14-12-2019 03:41:17 3.9 C 36 %
456 14-12-2019 03:51:18 3.8 C 36 %
457 14-12-2019 04:01:17 3.8 C 40 %
458 14-12-2019 04:11:17 3.8 C 41 %
459 14-12-2019 04:21:17 3.7 C 42 %
460 14-12-2019 04:31:18 3.5 C 42 %
461 14-12-2019 04:41:18 3.5 C 42 %
462 14-12-2019 04:51:17 3.4 C 42 %
463 14-12-2019 05:01:17 3.4 C 41 %
464 14-12-2019 05:11:17 3.4 C 41 %
465 14-12-2019 05:21:17 3.4 C 42 %
466 14-12-2019 05:31:18 3.4 C 42 %
467 14-12-2019 05:41:18 3.4 C 43 %
468 14-12-2019 05:51:17 3.4 C 43 %
469 14-12-2019 06:01:18 3.4 C 42 %
470 14-12-2019 06:11:18 3.7 C 43 %
471 14-12-2019 06:21:17 4 C 42 %
472 14-12-2019 06:31:17 5 C 40 %
473 14-12-2019 06:41:17 5.2 C 39 %
474 14-12-2019 06:51:18 5.6 C 36 %
475 14-12-2019 07:01:17 5.6 C 36 %
Sensor: Nr:Datum:Temp:Feuchte:
Aussen-T/F 476 14-12-2019 07:11:18 5.7 C 36 %
477 14-12-2019 07:21:17 5.8 C 36 %
478 14-12-2019 07:31:17 5.8 C 36 %
479 14-12-2019 07:41:17 6.3 C 37 %
480 14-12-2019 07:51:17 6.5 C 36 %
481 14-12-2019 08:01:17 6.8 C 35 %
482 14-12-2019 08:11:17 7 C 28 %
483 14-12-2019 08:21:17 7.2 C 26 %
484 14-12-2019 08:31:18 7.1 C 25 %
485 14-12-2019 08:41:18 6.9 C 25 %
486 14-12-2019 08:51:17 6.7 C 25 %
487 14-12-2019 09:01:17 6.9 C 23 %
488 14-12-2019 09:11:17 6.7 C 23 %
489 14-12-2019 09:21:18 6.5 C 23 %
490 14-12-2019 09:31:18 6.7 C 20 %
491 14-12-2019 09:41:18 6.5 C 21 %
492 14-12-2019 09:51:17 6.7 C 21 %
493 14-12-2019 10:01:17 6.7 C 21 %
494 14-12-2019 10:11:17 6.6 C 23 %
495 14-12-2019 10:21:17 6.6 C 25 %
496 14-12-2019 10:31:17 6.7 C 25 %
497 14-12-2019 10:41:17 6.4 C 26 %
498 14-12-2019 10:51:17 5.9 C 29 %
499 14-12-2019 11:01:18 5.9 C 29 %
500 14-12-2019 11:11:18 6.4 C 27 %
Sensor: Nr:Datum:Temp:Feuchte:
Aussen-T/F 501 14-12-2019 11:21:17 6.7 C 26 %
502 14-12-2019 11:31:17 6.3 C 26 %
503 14-12-2019 11:41:17 6.4 C 25 %
504 14-12-2019 11:51:17 6.9 C 20 %
505 14-12-2019 12:01:17 7 C 20 %
506 14-12-2019 12:11:17 7.2 C 20 %
507 14-12-2019 12:21:18 7 C 20 %
508 14-12-2019 12:31:17 7.3 C 20 %
509 14-12-2019 12:41:17 7.6 C 20 %
510 14-12-2019 12:51:17 7.8 C 20 %
511 14-12-2019 13:01:17 7.9 C 20 %
512 14-12-2019 13:11:17 8 C 20 %
513 14-12-2019 13:21:17 8.4 C 20 %
514 14-12-2019 13:31:17 8.4 C 20 %
515 14-12-2019 13:41:17 8.3 C 20 %
516 14-12-2019 13:51:17 8.4 C 20 %
517 14-12-2019 14:01:18 8.5 C 20 %
518 14-12-2019 14:11:18 8.4 C 20 %
519 14-12-2019 14:21:17 8.4 C 20 %
520 14-12-2019 14:31:18 8.7 C 20 %
521 14-12-2019 14:41:18 8.8 C 20 %
522 14-12-2019 14:51:18 8.6 C 20 %
523 14-12-2019 15:01:17 7.3 C 23 %
524 14-12-2019 15:11:17 6.8 C 28 %
525 14-12-2019 15:21:17 6.6 C 30 %
Sensor: Nr:Datum:Temp:Feuchte:
Aussen-T/F 526 14-12-2019 15:31:17 6.7 C 28 %
527 14-12-2019 15:41:18 6.8 C 28 %
528 14-12-2019 15:51:17 7.1 C 26 %
529 14-12-2019 16:01:17 7 C 26 %
530 14-12-2019 16:11:17 6.9 C 26 %
531 14-12-2019 16:21:17 6.9 C 27 %
532 14-12-2019 16:31:18 7.2 C 25 %
533 14-12-2019 16:41:18 7.6 C 25 %
534 14-12-2019 16:51:17 7.5 C 25 %
535 14-12-2019 17:01:17 7.6 C 25 %
536 14-12-2019 17:11:17 7.6 C 25 %
537 14-12-2019 17:21:17 7.4 C 25 %
538 14-12-2019 17:31:18 7.2 C 26 %
539 14-12-2019 17:41:18 6.9 C 27 %
540 14-12-2019 17:51:17 7.1 C 26 %
541 14-12-2019 18:01:17 7.1 C 26 %
542 14-12-2019 18:11:17 7.3 C 26 %
543 14-12-2019 18:22:17 7.6 C 25 %
544 14-12-2019 18:31:17 7.8 C 25 %
545 14-12-2019 18:41:17 7.4 C 25 %
546 14-12-2019 18:52:17 7 C 26 %
547 14-12-2019 19:01:18 6.7 C 27 %
548 14-12-2019 19:11:18 6.2 C 28 %
549 14-12-2019 19:21:17 6.4 C 26 %
550 14-12-2019 19:31:17 6.1 C 26 %
Sensor: Nr:Datum:Temp:Feuchte:
Aussen-T/F 551 14-12-2019 19:41:17 6.4 C 25 %
552 14-12-2019 19:52:17 6.4 C 25 %
553 14-12-2019 20:01:18 6.6 C 25 %
554 14-12-2019 20:11:18 6.7 C 25 %
555 14-12-2019 20:21:17 6.9 C 25 %
556 14-12-2019 20:31:17 5.8 C 27 %
557 14-12-2019 20:41:17 5.9 C 27 %
558 14-12-2019 20:52:17 7 C 25 %
559 14-12-2019 21:01:17 7.2 C 25 %
560 14-12-2019 21:11:17 7 C 25 %
561 14-12-2019 21:22:17 7.1 C 25 %
562 14-12-2019 21:31:18 6.7 C 26 %
563 14-12-2019 21:41:18 6.8 C 26 %
564 14-12-2019 21:52:17 6.9 C 26 %
565 14-12-2019 22:02:17 7.1 C 25 %
566 14-12-2019 22:11:17 6.8 C 26 %
567 14-12-2019 22:22:17 6.9 C 26 %
568 14-12-2019 22:31:17 7.3 C 25 %
569 14-12-2019 22:41:17 7 C 26 %
570 14-12-2019 22:52:17 7.3 C 25 %
571 14-12-2019 23:02:17 7.1 C 25 %
572 14-12-2019 23:12:17 7.3 C 25 %
573 14-12-2019 23:22:17 7 C 26 %
574 14-12-2019 23:31:18 7 C 26 %
575 14-12-2019 23:41:18 7.4 C 25 %
Sensor: Nr:Datum:Temp:Feuchte:
Aussen-T/F 576 14-12-2019 23:51:18 7 C 25 %
577 15-12-2019 00:02:17 6.4 C 27 %
578 15-12-2019 00:11:17 6 C 28 %
579 15-12-2019 00:22:17 5.6 C 30 %
580 15-12-2019 00:31:18 5.3 C 31 %
581 15-12-2019 00:41:18 5.1 C 32 %
582 15-12-2019 00:52:17 5.2 C 32 %
583 15-12-2019 01:02:17 5.2 C 32 %
584 15-12-2019 01:12:17 5.3 C 33 %
585 15-12-2019 01:22:17 5.5 C 33 %
586 15-12-2019 01:31:18 5.7 C 31 %
587 15-12-2019 01:41:18 5.6 C 31 %
588 15-12-2019 01:52:17 5.6 C 31 %
589 15-12-2019 02:02:17 5.9 C 31 %
590 15-12-2019 02:12:17 5.8 C 32 %
591 15-12-2019 02:22:17 5.9 C 32 %
592 15-12-2019 02:32:18 5.7 C 35 %
593 15-12-2019 02:42:18 5.8 C 37 %
594 15-12-2019 02:52:17 5.9 C 39 %
595 15-12-2019 03:02:18 5.9 C 40 %
596 15-12-2019 03:12:18 5.9 C 41 %
597 15-12-2019 03:22:17 6 C 41 %
598 15-12-2019 03:32:17 6 C 42 %
599 15-12-2019 03:42:17 6.3 C 42 %
600 15-12-2019 03:52:17 6.4 C 42 %
Sensor: Nr:Datum:Temp:Feuchte:
Aussen-T/F 601 15-12-2019 04:02:17 6.8 C 42 %
602 15-12-2019 04:12:17 7.3 C 41 %
603 15-12-2019 04:22:17 7.3 C 41 %
604 15-12-2019 04:32:17 7.5 C 41 %
605 15-12-2019 04:42:17 7.9 C 40 %
606 15-12-2019 04:52:17 8 C 39 %
607 15-12-2019 05:02:17 8.2 C 38 %
608 15-12-2019 05:12:17 8.2 C 37 %
609 15-12-2019 05:22:17 8.4 C 37 %
610 15-12-2019 05:32:18 9 C 34 %
611 15-12-2019 05:42:18 10 C 30 %
612 15-12-2019 05:52:17 10.2 C 30 %
613 15-12-2019 06:02:17 10.3 C 29 %
614 15-12-2019 06:12:17 10.3 C 29 %
615 15-12-2019 06:22:17 10.1 C 29 %
616 15-12-2019 06:32:17 10.5 C 28 %
617 15-12-2019 06:42:17 10.8 C 27 %
618 15-12-2019 06:52:17 10.7 C 27 %
619 15-12-2019 07:02:17 10.5 C 27 %
620 15-12-2019 07:12:17 10.9 C 27 %
621 15-12-2019 07:22:17 10.3 C 27 %
622 15-12-2019 07:32:17 10.6 C 27 %
623 15-12-2019 07:42:17 10.5 C 27 %
624 15-12-2019 07:52:17 10.7 C 27 %
625 15-12-2019 08:02:17 10.7 C 27 %
Sensor: Nr:Datum:Temp:Feuchte:
Aussen-T/F 626 15-12-2019 08:12:17 11 C 26 %
627 15-12-2019 08:22:17 10.9 C 27 %
628 15-12-2019 08:32:18 10.6 C 27 %
629 15-12-2019 08:42:18 10.2 C 28 %
630 15-12-2019 08:52:17 9.5 C 34 %
631 15-12-2019 09:02:17 9.2 C 34 %
632 15-12-2019 09:12:17 8.9 C 35 %
633 15-12-2019 09:22:17 8.7 C 33 %
634 15-12-2019 09:32:17 8.5 C 34 %
635 15-12-2019 09:42:17 8.2 C 35 %
636 15-12-2019 09:52:18 8 C 36 %
637 15-12-2019 10:02:18 8.1 C 34 %
638 15-12-2019 10:12:18 8.2 C 32 %
639 15-12-2019 10:22:18 8.2 C 34 %
640 15-12-2019 10:32:17 8.1 C 33 %
641 15-12-2019 10:42:17 8.5 C 31 %
642 15-12-2019 10:52:17 8.7 C 30 %
643 15-12-2019 11:02:17 8.4 C 30 %
644 15-12-2019 11:12:17 8.5 C 30 %
645 15-12-2019 11:22:17 8.5 C 28 %
646 15-12-2019 11:32:17 8.6 C 28 %
647 15-12-2019 11:42:17 8.6 C 28 %
648 15-12-2019 11:52:17 8.3 C 27 %
649 15-12-2019 12:02:17 8.3 C 27 %
650 15-12-2019 12:12:17 8.1 C 27 %
Sensor: Nr:Datum:Temp:Feuchte:
Aussen-T/F 651 15-12-2019 12:22:17 8.1 C 28 %
652 15-12-2019 12:32:17 7.9 C 29 %
653 15-12-2019 12:42:17 8.2 C 28 %
654 15-12-2019 12:52:18 8.4 C 28 %
655 15-12-2019 13:02:18 8.7 C 27 %
656 15-12-2019 13:12:18 9.1 C 25 %
657 15-12-2019 13:22:17 9.3 C 23 %
658 15-12-2019 13:32:17 9.2 C 21 %
659 15-12-2019 13:42:17 9.2 C 20 %
660 15-12-2019 13:52:18 9.2 C 20 %
661 15-12-2019 14:02:17 9.2 C 20 %
662 15-12-2019 14:12:17 9.3 C 20 %
663 15-12-2019 14:22:17 9.3 C 20 %
664 15-12-2019 14:32:17 9.1 C 20 %
665 15-12-2019 14:42:17 9.1 C 20 %
666 15-12-2019 14:52:17 9 C 20 %
667 15-12-2019 15:02:17 9 C 20 %
668 15-12-2019 15:12:17 8.9 C 20 %
669 15-12-2019 15:22:17 8.9 C 20 %
670 15-12-2019 15:32:17 8.8 C 20 %
671 15-12-2019 15:42:17 8.7 C 20 %
672 15-12-2019 15:52:17 8.7 C 20 %
673 15-12-2019 16:02:17 8.4 C 20 %
674 15-12-2019 16:12:17 8.2 C 20 %
675 15-12-2019 16:22:18 8.4 C 20 %
Sensor: Nr:Datum:Temp:Feuchte:
Aussen-T/F 676 15-12-2019 16:32:17 7.9 C 20 %
677 15-12-2019 16:42:17 7.6 C 20 %
678 15-12-2019 16:52:17 8 C 20 %
679 15-12-2019 17:02:17 7.4 C 20 %
680 15-12-2019 17:12:17 7.4 C 20 %
681 15-12-2019 17:22:17 7.8 C 20 %
682 15-12-2019 17:32:17 7.2 C 21 %
683 15-12-2019 17:42:17 7.6 C 20 %
684 15-12-2019 17:52:17 7.7 C 20 %
685 15-12-2019 18:02:17 7.5 C 20 %
686 15-12-2019 18:12:17 8.2 C 20 %
687 15-12-2019 18:22:17 7.5 C 20 %
688 15-12-2019 18:32:17 6.9 C 25 %
689 15-12-2019 18:42:17 6.2 C 27 %
690 15-12-2019 18:52:18 5.9 C 29 %
691 15-12-2019 19:02:17 5.4 C 30 %
692 15-12-2019 19:12:17 5.3 C 31 %
693 15-12-2019 19:22:17 4.9 C 32 %
694 15-12-2019 19:32:18 5.3 C 32 %
695 15-12-2019 19:42:18 5 C 33 %
696 15-12-2019 19:52:17 5.4 C 33 %
697 15-12-2019 20:02:17 5.2 C 33 %
698 15-12-2019 20:12:17 4.7 C 35 %
699 15-12-2019 20:22:17 4.4 C 36 %
700 15-12-2019 20:32:17 4.3 C 37 %
Sensor: Nr:Datum:Temp:Feuchte:
Aussen-T/F 701 15-12-2019 20:42:17 3.9 C 39 %
702 15-12-2019 20:52:17 3.7 C 40 %
703 15-12-2019 21:02:17 3.5 C 41 %
704 15-12-2019 21:12:17 3.3 C 41 %
705 15-12-2019 21:22:17 3.1 C 41 %
706 15-12-2019 21:32:18 2.8 C 42 %
707 15-12-2019 21:42:18 2.9 C 43 %
708 15-12-2019 21:52:17 3.3 C 43 %
709 15-12-2019 22:02:17 3.3 C 44 %
710 15-12-2019 22:12:17 3.3 C 43 %
711 15-12-2019 22:22:17 3.5 C 43 %
712 15-12-2019 22:32:17 3.5 C 43 %
713 15-12-2019 22:42:17 3.4 C 43 %
714 15-12-2019 22:52:18 3.3 C 43 %
715 15-12-2019 23:02:17 3.5 C 43 %
716 15-12-2019 23:12:18 3.6 C 43 %
717 15-12-2019 23:22:17 3.7 C 43 %
718 15-12-2019 23:32:18 3.5 C 42 %
719 15-12-2019 23:42:18 3.3 C 42 %
720 15-12-2019 23:52:17 3.8 C 43 %
721 16-12-2019 00:02:17 4 C 42 %
722 16-12-2019 00:12:17 4.4 C 42 %
723 16-12-2019 00:22:17 4.4 C 42 %
724 16-12-2019 00:32:17 4.5 C 42 %
725 16-12-2019 00:42:17 4.5 C 42 %
Sensor: Nr:Datum:Temp:Feuchte:
Aussen-T/F 726 16-12-2019 00:52:18 4.7 C 42 %
727 16-12-2019 01:02:17 5.1 C 41 %
728 16-12-2019 01:12:17 5 C 41 %
729 16-12-2019 01:22:17 5.2 C 42 %
730 16-12-2019 01:32:17 5.2 C 41 %
731 16-12-2019 01:42:18 5.3 C 42 %
732 16-12-2019 01:52:17 5.5 C 42 %
733 16-12-2019 02:02:18 5.4 C 42 %
734 16-12-2019 02:12:18 5.5 C 42 %
735 16-12-2019 02:22:17 5.7 C 42 %
736 16-12-2019 02:32:17 5.7 C 42 %
737 16-12-2019 02:42:17 5.9 C 42 %
738 16-12-2019 02:52:18 5.8 C 41 %
739 16-12-2019 03:02:17 5.8 C 41 %
740 16-12-2019 03:12:17 5.9 C 41 %
741 16-12-2019 03:22:17 5.9 C 41 %
742 16-12-2019 03:32:18 5.9 C 41 %
743 16-12-2019 03:42:18 5.8 C 41 %
744 16-12-2019 03:52:17 6 C 41 %
745 16-12-2019 04:02:17 6 C 41 %
746 16-12-2019 04:12:17 6 C 41 %
747 16-12-2019 04:22:17 5.9 C 41 %
748 16-12-2019 04:32:17 6.1 C 41 %
749 16-12-2019 04:42:17 6.2 C 41 %
750 16-12-2019 04:52:17 6.3 C 41 %
Sensor: Nr:Datum:Temp:Feuchte:
Aussen-T/F 751 16-12-2019 05:02:17 6.4 C 41 %
752 16-12-2019 05:12:17 6.4 C 41 %
753 16-12-2019 05:22:17 6.5 C 41 %
754 16-12-2019 05:32:17 6.6 C 41 %
755 16-12-2019 05:42:17 6.6 C 41 %
756 16-12-2019 05:52:17 6.8 C 41 %
757 16-12-2019 06:02:17 6.9 C 41 %
758 16-12-2019 06:12:17 6.9 C 41 %
759 16-12-2019 06:22:17 6.8 C 40 %
760 16-12-2019 06:32:17 6.7 C 40 %
761 16-12-2019 06:42:17 6.8 C 40 %
762 16-12-2019 06:52:17 6.8 C 40 %
763 16-12-2019 07:02:17 6.8 C 40 %
764 16-12-2019 07:12:17 6.7 C 40 %
765 16-12-2019 07:22:17 6.8 C 40 %
766 16-12-2019 07:32:18 6.9 C 41 %
767 16-12-2019 07:42:18 6.9 C 41 %
768 16-12-2019 07:52:17 7 C 40 %
769 16-12-2019 08:02:17 7.1 C 40 %
770 16-12-2019 08:12:17 7 C 40 %
771 16-12-2019 08:22:17 7.1 C 40 %
772 16-12-2019 08:32:17 7.1 C 40 %
773 16-12-2019 08:42:17 7.1 C 40 %
774 16-12-2019 08:52:17 7.2 C 40 %
775 16-12-2019 09:02:17 7.3 C 40 %
Sensor: Nr:Datum:Temp:Feuchte:
Aussen-T/F 776 16-12-2019 09:12:17 7.5 C 40 %
777 16-12-2019 09:22:18 7.4 C 40 %
778 16-12-2019 09:32:17 7.5 C 40 %
779 16-12-2019 09:42:17 7.5 C 40 %
780 16-12-2019 09:52:17 7.6 C 40 %
781 16-12-2019 10:02:18 7.6 C 40 %
782 16-12-2019 10:12:18 7.7 C 40 %
783 16-12-2019 10:22:17 7.8 C 40 %
784 16-12-2019 10:32:17 7.9 C 40 %
785 16-12-2019 10:42:17 8.1 C 40 %
786 16-12-2019 10:52:17 8.2 C 40 %
787 16-12-2019 11:02:17 8.3 C 40 %
788 16-12-2019 11:12:17 8.5 C 40 %
789 16-12-2019 11:22:17 8.9 C 40 %
790 16-12-2019 11:32:18 8.8 C 39 %
791 16-12-2019 11:42:18 9.1 C 39 %
792 16-12-2019 11:52:17 9.4 C 39 %
793 16-12-2019 12:02:17 9.3 C 38 %
794 16-12-2019 12:12:17 9.3 C 37 %
795 16-12-2019 12:22:17 9.3 C 37 %
796 16-12-2019 12:32:17 9.4 C 37 %
797 16-12-2019 12:42:17 9.4 C 38 %
798 16-12-2019 12:52:17 9.8 C 38 %
799 16-12-2019 13:02:17 9.9 C 36 %
800 16-12-2019 13:12:17 9.9 C 36 %
Sensor: Nr:Datum:Temp:Feuchte:
Aussen-T/F 801 16-12-2019 13:22:17 10 C 35 %
802 16-12-2019 13:32:17 10.2 C 34 %
803 16-12-2019 13:42:17 10.2 C 35 %
804 16-12-2019 13:52:18 10.3 C 34 %
805 16-12-2019 14:02:17 10.1 C 34 %
806 16-12-2019 14:12:17 10.2 C 34 %
807 16-12-2019 14:22:17 10.3 C 34 %
808 16-12-2019 14:32:17 10.2 C 33 %
809 16-12-2019 14:42:17 10.1 C 34 %
810 16-12-2019 14:52:18 10.1 C 34 %
811 16-12-2019 15:02:17 9.9 C 35 %
812 16-12-2019 15:12:17 9.8 C 35 %
813 16-12-2019 15:22:17 9.6 C 36 %
814 16-12-2019 15:32:18 9.3 C 37 %
815 16-12-2019 15:42:18 9.1 C 39 %
816 16-12-2019 15:52:17 9 C 40 %
817 16-12-2019 16:02:17 8.7 C 40 %
818 16-12-2019 16:12:17 8.5 C 40 %
819 16-12-2019 16:22:17 8.4 C 40 %
820 16-12-2019 16:32:18 8.2 C 41 %
821 16-12-2019 16:42:18 8 C 40 %
822 16-12-2019 16:52:17 7.7 C 41 %
823 16-12-2019 17:02:17 7.4 C 41 %
824 16-12-2019 17:12:17 7.3 C 41 %
825 16-12-2019 17:22:17 7.5 C 41 %
Sensor: Nr:Datum:Temp:Feuchte:
Aussen-T/F 826 16-12-2019 17:32:17 7.3 C 41 %
827 16-12-2019 17:42:17 7.2 C 41 %
828 16-12-2019 17:52:17 7 C 41 %
829 16-12-2019 18:02:17 7.1 C 41 %
830 16-12-2019 18:12:17 7.4 C 41 %
831 16-12-2019 18:22:17 7.5 C 41 %
832 16-12-2019 18:32:17 8.2 C 40 %
833 16-12-2019 18:42:17 8.1 C 38 %
834 16-12-2019 18:52:17 8.7 C 37 %
835 16-12-2019 19:02:18 8.5 C 35 %
836 16-12-2019 19:12:18 7.9 C 36 %
837 16-12-2019 19:22:17 7.7 C 37 %
838 16-12-2019 19:32:17 8.5 C 40 %
839 16-12-2019 19:42:17 7.9 C 37 %
840 16-12-2019 19:52:18 8 C 37 %
841 16-12-2019 20:02:17 7.9 C 37 %
842 16-12-2019 20:12:17 8.1 C 36 %
843 16-12-2019 20:22:17 7.7 C 37 %
844 16-12-2019 20:32:17 8 C 39 %
845 16-12-2019 20:42:17 7.9 C 36 %
846 16-12-2019 20:52:17 7.8 C 36 %
847 16-12-2019 21:02:17 7.3 C 37 %
848 16-12-2019 21:12:17 7.2 C 40 %
849 16-12-2019 21:22:17 7.5 C 39 %
850 16-12-2019 21:32:17 7.2 C 38 %
Sensor: Nr:Datum:Temp:Feuchte:
Aussen-T/F 851 16-12-2019 21:42:17 7 C 40 %
852 16-12-2019 21:52:17 6.7 C 41 %
853 16-12-2019 22:02:17 6.9 C 41 %
854 16-12-2019 22:12:17 7.5 C 40 %
855 16-12-2019 22:22:17 7.4 C 38 %
856 16-12-2019 22:32:17 7.9 C 37 %
857 16-12-2019 22:42:17 7.8 C 36 %
858 16-12-2019 22:52:18 7.3 C 37 %
859 16-12-2019 23:02:17 7.3 C 39 %
860 16-12-2019 23:12:17 7.3 C 39 %
861 16-12-2019 23:22:17 7.5 C 40 %
862 16-12-2019 23:32:17 7.6 C 39 %
863 16-12-2019 23:42:17 7.6 C 39 %
864 16-12-2019 23:52:18 7.8 C 39 %
865 17-12-2019 00:02:17 7.6 C 37 %
866 17-12-2019 00:12:17 7.5 C 38 %
867 17-12-2019 00:22:17 7.6 C 38 %
868 17-12-2019 00:32:18 7.3 C 39 %
869 17-12-2019 00:42:18 7.2 C 40 %
870 17-12-2019 00:52:17 7.4 C 39 %
871 17-12-2019 01:02:17 7.2 C 39 %
872 17-12-2019 01:12:17 7.4 C 40 %
873 17-12-2019 01:22:17 7.8 C 39 %
874 17-12-2019 01:32:17 7.3 C 37 %
875 17-12-2019 01:42:17 7.4 C 38 %
Sensor: Nr:Datum:Temp:Feuchte:
Aussen-T/F 876 17-12-2019 01:52:17 7.4 C 37 %
877 17-12-2019 02:02:18 7.4 C 37 %
878 17-12-2019 02:12:18 7.6 C 37 %
879 17-12-2019 02:22:17 7.3 C 37 %
880 17-12-2019 02:32:17 7.1 C 37 %
881 17-12-2019 02:42:17 7.5 C 36 %
882 17-12-2019 02:52:18 7.6 C 36 %
883 17-12-2019 03:02:17 8 C 35 %
884 17-12-2019 03:12:17 8.1 C 35 %
885 17-12-2019 03:22:17 8.4 C 35 %
886 17-12-2019 03:32:17 8.8 C 32 %
887 17-12-2019 03:42:17 8.9 C 32 %
888 17-12-2019 03:52:18 8.8 C 32 %
889 17-12-2019 04:02:17 8.5 C 32 %
890 17-12-2019 04:12:17 8.5 C 32 %
891 17-12-2019 04:22:17 8.4 C 32 %
892 17-12-2019 04:32:17 8.4 C 32 %
893 17-12-2019 04:42:17 8 C 32 %
894 17-12-2019 04:52:18 8.3 C 33 %
895 17-12-2019 05:02:17 8.5 C 33 %
896 17-12-2019 05:12:17 8.5 C 33 %
897 17-12-2019 05:22:17 8.2 C 33 %
898 17-12-2019 05:32:17 8.1 C 34 %
899 17-12-2019 05:42:17 7.9 C 35 %
900 17-12-2019 05:52:17 7.9 C 36 %
Sensor: Nr:Datum:Temp:Feuchte:
Aussen-T/F 901 17-12-2019 06:02:17 7.8 C 36 %
902 17-12-2019 06:12:17 7.3 C 36 %
903 17-12-2019 06:22:18 7.3 C 38 %
904 17-12-2019 06:32:17 7.5 C 38 %
905 17-12-2019 06:42:17 7.6 C 36 %
906 17-12-2019 06:52:17 7.6 C 38 %
907 17-12-2019 07:02:17 7.7 C 36 %
908 17-12-2019 07:12:17 7.6 C 37 %
909 17-12-2019 07:22:17 7.5 C 36 %
910 17-12-2019 07:32:18 7 C 37 %
911 17-12-2019 07:42:18 7.4 C 38 %
912 17-12-2019 07:52:17 7.2 C 36 %
913 17-12-2019 08:02:17 7.2 C 36 %
914 17-12-2019 08:12:17 6.9 C 37 %
915 17-12-2019 08:22:17 6.9 C 38 %
916 17-12-2019 08:32:17 7 C 38 %
917 17-12-2019 08:42:18 6.9 C 37 %
918 17-12-2019 08:52:17 6.9 C 37 %
919 17-12-2019 09:02:17 6.5 C 38 %
920 17-12-2019 09:12:17 6.4 C 39 %
921 17-12-2019 09:22:18 6.5 C 40 %
922 17-12-2019 09:32:17 6.4 C 40 %
923 17-12-2019 09:42:17 6.6 C 40 %
924 17-12-2019 09:52:17 6.3 C 39 %
925 17-12-2019 10:02:18 6.4 C 40 %
Sensor: Nr:Datum:Temp:Feuchte:
Aussen-T/F 926 17-12-2019 10:12:18 6.4 C 40 %
927 17-12-2019 10:22:17 6.4 C 39 %
928 17-12-2019 10:32:17 6.8 C 40 %
929 17-12-2019 10:42:17 7.2 C 37 %
930 17-12-2019 10:52:17 8 C 36 %
931 17-12-2019 11:02:17 8.6 C 34 %
932 17-12-2019 11:12:17 8.5 C 32 %
933 17-12-2019 11:22:17 8.7 C 32 %
934 17-12-2019 11:32:17 9 C 32 %
935 17-12-2019 11:42:17 9.1 C 32 %
936 17-12-2019 11:52:17 9 C 32 %
937 17-12-2019 12:02:17 9 C 34 %
938 17-12-2019 12:12:17 9.2 C 34 %
939 17-12-2019 12:22:17 9.5 C 33 %
940 17-12-2019 12:32:17 9.7 C 32 %
941 17-12-2019 12:42:17 9.8 C 32 %
942 17-12-2019 12:52:17 9.6 C 32 %
943 17-12-2019 13:02:17 10.1 C 31 %
944 17-12-2019 13:12:17 10.4 C 30 %
945 17-12-2019 13:22:17 10.6 C 30 %
946 17-12-2019 13:32:17 11 C 29 %
947 17-12-2019 13:42:17 11.6 C 28 %
948 17-12-2019 13:52:18 12.3 C 26 %
949 17-12-2019 14:02:17 12.5 C 26 %
950 17-12-2019 14:12:17 12.4 C 26 %
Sensor: Nr:Datum:Temp:Feuchte:
Aussen-T/F 951 17-12-2019 14:22:17 11.6 C 27 %
952 17-12-2019 14:32:17 11.4 C 27 %
953 17-12-2019 14:42:17 11.5 C 27 %
954 17-12-2019 14:52:17 11.8 C 27 %
955 17-12-2019 15:02:17 12 C 26 %
956 17-12-2019 15:12:17 12 C 26 %
957 17-12-2019 15:22:17 11.8 C 27 %
958 17-12-2019 15:32:17 11.8 C 27 %
959 17-12-2019 15:42:17 12.3 C 25 %
960 17-12-2019 15:52:18 12.2 C 25 %
961 17-12-2019 16:02:17 12.4 C 25 %
962 17-12-2019 16:12:17 12.4 C 25 %
963 17-12-2019 16:22:17 12.5 C 25 %
964 17-12-2019 16:32:18 12.6 C 25 %
965 17-12-2019 16:42:18 12.2 C 25 %
966 17-12-2019 16:52:17 11.8 C 25 %
967 17-12-2019 17:02:17 11.2 C 26 %
968 17-12-2019 17:12:18 11.5 C 25 %
969 17-12-2019 17:22:17 12 C 24 %
970 17-12-2019 17:32:18 13.1 C 20 %
971 17-12-2019 17:42:18 13.4 C 20 %
972 17-12-2019 17:52:17 13.8 C 20 %
973 17-12-2019 18:02:17 13.4 C 20 %
974 17-12-2019 18:12:17 13.2 C 20 %
975 17-12-2019 18:22:17 13.6 C 20 %
Sensor: Nr:Datum:Temp:Feuchte:
Aussen-T/F 976 17-12-2019 18:32:17 13.7 C 20 %
977 17-12-2019 18:42:17 13.1 C 21 %
978 17-12-2019 18:52:17 12.7 C 25 %
979 17-12-2019 19:02:17 12.8 C 25 %
980 17-12-2019 19:12:17 13.1 C 22 %
981 17-12-2019 19:22:17 12.8 C 25 %
982 17-12-2019 19:32:18 11.7 C 29 %
983 17-12-2019 19:42:18 11.6 C 29 %
984 17-12-2019 19:52:17 11.6 C 30 %
985 17-12-2019 20:02:18 11.6 C 30 %
986 17-12-2019 20:12:18 11.5 C 31 %
987 17-12-2019 20:22:17 11.6 C 31 %
988 17-12-2019 20:32:17 11.3 C 33 %
989 17-12-2019 20:42:17 11.2 C 35 %
990 17-12-2019 20:52:17 11 C 36 %
991 17-12-2019 21:02:17 10.9 C 36 %
992 17-12-2019 21:12:17 10.5 C 38 %
993 17-12-2019 21:22:17 10.3 C 39 %
994 17-12-2019 21:32:17 10.4 C 38 %
995 17-12-2019 21:42:17 11.5 C 31 %
996 17-12-2019 21:52:17 11.3 C 31 %
997 17-12-2019 22:02:17 13 C 25 %
998 17-12-2019 22:12:17 12.5 C 26 %
999 17-12-2019 22:22:17 13.1 C 25 %
1000 17-12-2019 22:32:17 13.4 C 25 %
Sensor: Nr:Datum:Temp:Feuchte:
Aussen-T/F 1001 17-12-2019 22:42:17 13.2 C 25 %
1002 17-12-2019 22:52:17 13.1 C 25 %
1003 17-12-2019 23:02:17 12.4 C 26 %
1004 17-12-2019 23:12:17 11.9 C 29 %
1005 17-12-2019 23:22:17 11.3 C 30 %
1006 17-12-2019 23:32:17 11.1 C 31 %
1007 17-12-2019 23:42:17 11 C 30 %
1008 17-12-2019 23:52:17 10.8 C 33 %
1009 18-12-2019 00:02:17 10.4 C 35 %
1010 18-12-2019 00:12:17 10.4 C 34 %
1011 18-12-2019 00:22:17 10.5 C 34 %
1012 18-12-2019 00:32:18 10.9 C 31 %
1013 18-12-2019 00:42:18 11 C 30 %
1014 18-12-2019 00:52:17 11 C 30 %
1015 18-12-2019 01:02:17 10.8 C 30 %
1016 18-12-2019 01:12:17 11 C 29 %
1017 18-12-2019 01:22:17 11.1 C 29 %
1018 18-12-2019 01:32:18 10.9 C 30 %
1019 18-12-2019 01:42:18 10.4 C 30 %
1020 18-12-2019 01:52:17 10.8 C 30 %
1021 18-12-2019 02:02:17 11.1 C 30 %
1022 18-12-2019 02:12:17 11.1 C 29 %
1023 18-12-2019 02:22:17 11.2 C 30 %
1024 18-12-2019 02:32:17 11.3 C 29 %
1025 18-12-2019 02:42:18 10.9 C 30 %
Sensor: Nr:Datum:Temp:Feuchte:
Aussen-T/F 1026 18-12-2019 02:52:17 10.9 C 31 %
1027 18-12-2019 03:02:17 10.6 C 33 %
1028 18-12-2019 03:12:17 10.3 C 35 %
1029 18-12-2019 03:22:18 10.3 C 37 %
1030 18-12-2019 03:32:17 10.1 C 37 %
1031 18-12-2019 03:42:17 10 C 38 %
1032 18-12-2019 03:52:18 10.1 C 38 %
1033 18-12-2019 04:02:18 10 C 38 %
1034 18-12-2019 04:12:18 9.9 C 38 %
1035 18-12-2019 04:22:17 9.8 C 35 %
1036 18-12-2019 04:32:18 9.6 C 34 %
1037 18-12-2019 04:42:18 9.5 C 33 %
1038 18-12-2019 04:52:17 9.3 C 33 %
1039 18-12-2019 05:02:18 9.2 C 33 %
1040 18-12-2019 05:12:18 9.1 C 33 %
1041 18-12-2019 05:22:17 8.8 C 35 %
1042 18-12-2019 05:32:17 8.7 C 36 %
1043 18-12-2019 05:42:17 8.2 C 36 %
1044 18-12-2019 05:52:17 8.2 C 39 %
1045 18-12-2019 06:02:18 8.1 C 39 %
1046 18-12-2019 06:12:18 8 C 37 %
1047 18-12-2019 06:22:17 8 C 37 %
1048 18-12-2019 06:32:18 7.9 C 37 %
1049 18-12-2019 06:42:18 7.5 C 37 %
1050 18-12-2019 06:52:17 7.4 C 39 %
Sensor: Nr:Datum:Temp:Feuchte:
Aussen-T/F 1051 18-12-2019 07:02:17 7.2 C 40 %
1052 18-12-2019 07:12:17 7.3 C 40 %
1053 18-12-2019 07:22:17 7.3 C 40 %
1054 18-12-2019 07:32:17 7.1 C 39 %
1055 18-12-2019 07:42:17 6.8 C 40 %
1056 18-12-2019 07:52:17 6.9 C 41 %
1057 18-12-2019 08:02:17 6.7 C 41 %
1058 18-12-2019 08:12:17 6.5 C 41 %
1059 18-12-2019 08:22:17 6.5 C 41 %
1060 18-12-2019 08:32:17 6.3 C 41 %
1061 18-12-2019 08:42:17 6.4 C 42 %
1062 18-12-2019 08:52:17 6.6 C 42 %
1063 18-12-2019 09:02:17 6.5 C 41 %
1064 18-12-2019 09:12:17 6.1 C 40 %
1065 18-12-2019 09:22:17 6 C 41 %
1066 18-12-2019 09:32:17 6.5 C 42 %
1067 18-12-2019 09:42:17 6.7 C 42 %
1068 18-12-2019 09:52:17 6.9 C 41 %
1069 18-12-2019 10:02:17 7 C 40 %
1070 18-12-2019 10:12:18 7.1 C 40 %
1071 18-12-2019 10:22:17 7.5 C 38 %
1072 18-12-2019 10:32:17 7.5 C 36 %
1073 18-12-2019 10:42:17 7.4 C 36 %
1074 18-12-2019 10:52:17 6.9 C 38 %
1075 18-12-2019 11:02:17 6.8 C 38 %
Sensor: Nr:Datum:Temp:Feuchte:
Aussen-T/F 1076 18-12-2019 11:12:17 6.8 C 38 %
1077 18-12-2019 11:22:17 6.6 C 38 %
1078 18-12-2019 11:32:18 6.7 C 39 %
1079 18-12-2019 11:42:18 6.9 C 38 %
1080 18-12-2019 11:52:17 7.6 C 35 %
1081 18-12-2019 12:02:17 8.1 C 33 %
1082 18-12-2019 12:12:17 8 C 32 %
1083 18-12-2019 12:22:17 8.3 C 31 %
1084 18-12-2019 12:32:17 8.6 C 30 %
1085 18-12-2019 12:42:17 8.8 C 29 %
1086 18-12-2019 12:52:17 8.7 C 29 %
1087 18-12-2019 13:02:17 8.4 C 30 %
1088 18-12-2019 13:12:17 8.2 C 30 %
1089 18-12-2019 13:22:17 7.9 C 31 %
1090 18-12-2019 13:32:18 7.8 C 32 %
1091 18-12-2019 13:42:18 7.7 C 33 %
1092 18-12-2019 13:52:17 7.8 C 32 %
1093 18-12-2019 14:02:18 7.8 C 33 %
1094 18-12-2019 14:12:18 7.7 C 33 %
1095 18-12-2019 14:22:17 7.5 C 34 %
1096 18-12-2019 14:32:17 7.3 C 35 %
1097 18-12-2019 14:42:17 7.2 C 35 %
1098 18-12-2019 14:52:17 7.2 C 35 %
1099 18-12-2019 15:02:17 7.2 C 35 %
1100 18-12-2019 15:12:17 7 C 36 %
Sensor: Nr:Datum:Temp:Feuchte:
Aussen-T/F 1101 18-12-2019 15:22:17 7 C 36 %
1102 18-12-2019 15:32:17 6.7 C 37 %
1103 18-12-2019 15:42:17 6.8 C 37 %
1104 18-12-2019 15:52:17 6.7 C 36 %
1105 18-12-2019 16:02:17 6.6 C 36 %
1106 18-12-2019 16:12:17 6.5 C 36 %
1107 18-12-2019 16:22:17 6.4 C 36 %
1108 18-12-2019 16:32:17 6 C 36 %
1109 18-12-2019 16:42:17 5.8 C 37 %
1110 18-12-2019 16:52:17 5.7 C 39 %
1111 18-12-2019 17:02:17 5.3 C 38 %
1112 18-12-2019 17:12:17 4.9 C 40 %
1113 18-12-2019 17:22:17 5 C 42 %
1114 18-12-2019 17:32:17 4.4 C 41 %
1115 18-12-2019 17:42:17 4.2 C 42 %
1116 18-12-2019 17:52:18 4.1 C 42 %
1117 18-12-2019 18:02:17 4.1 C 43 %
1118 18-12-2019 18:12:17 4.1 C 43 %
1119 18-12-2019 18:22:17 4.4 C 43 %
1120 18-12-2019 18:32:17 4.5 C 43 %
1121 18-12-2019 18:42:17 4.3 C 42 %
1122 18-12-2019 18:52:17 4.6 C 43 %
1123 18-12-2019 19:02:17 5 C 42 %
1124 18-12-2019 19:12:17 4.7 C 42 %
1125 18-12-2019 19:22:17 4.3 C 42 %
Sensor: Nr:Datum:Temp:Feuchte:
Aussen-T/F 1126 18-12-2019 19:32:18 4.9 C 43 %
1127 18-12-2019 19:42:18 4.7 C 42 %
1128 18-12-2019 19:52:17 4.6 C 42 %
1129 18-12-2019 20:02:17 5 C 42 %
1130 18-12-2019 20:12:17 5 C 41 %
1131 18-12-2019 20:22:17 4.5 C 41 %
1132 18-12-2019 20:32:17 4.5 C 41 %
1133 18-12-2019 20:42:18 4.1 C 41 %
1134 18-12-2019 20:52:17 3.9 C 42 %
1135 18-12-2019 21:02:17 3.7 C 43 %
1136 18-12-2019 21:12:17 3.6 C 42 %
1137 18-12-2019 21:22:17 3.6 C 43 %
1138 18-12-2019 21:32:17 3.7 C 43 %
1139 18-12-2019 21:42:17 3.6 C 43 %
1140 18-12-2019 21:52:17 3.4 C 43 %
1141 18-12-2019 22:02:17 3.1 C 43 %
1142 18-12-2019 22:12:17 3.1 C 43 %
1143 18-12-2019 22:22:17 2.7 C 43 %
1144 18-12-2019 22:32:17 2.6 C 43 %
1145 18-12-2019 22:42:17 2.5 C 43 %
1146 18-12-2019 22:52:17 2.4 C 43 %
1147 18-12-2019 23:02:17 2.4 C 43 %
1148 18-12-2019 23:12:17 2.3 C 43 %
1149 18-12-2019 23:22:18 2.3 C 43 %
1150 18-12-2019 23:32:17 2 C 43 %
Sensor: Nr:Datum:Temp:Feuchte:
Aussen-T/F 1151 18-12-2019 23:42:17 2 C 43 %
1152 18-12-2019 23:52:17 2 C 43 %
1153 19-12-2019 00:02:18 2.3 C 44 %
1154 19-12-2019 00:12:18 2 C 43 %
1155 19-12-2019 00:22:17 2 C 43 %
1156 19-12-2019 00:32:17 2.1 C 43 %
1157 19-12-2019 00:42:17 2.4 C 44 %
1158 19-12-2019 00:52:18 2.3 C 43 %
1159 19-12-2019 01:02:17 2.1 C 43 %
1160 19-12-2019 01:12:17 2 C 43 %
1161 19-12-2019 01:22:17 2 C 43 %
1162 19-12-2019 01:32:18 1.6 C 44 %
1163 19-12-2019 01:42:18 1.9 C 44 %
1164 19-12-2019 01:52:17 2.3 C 43 %
1165 19-12-2019 02:02:17 2.2 C 43 %
1166 19-12-2019 02:12:17 2 C 43 %
1167 19-12-2019 02:22:17 2 C 43 %
1168 19-12-2019 02:32:18 2 C 43 %
1169 19-12-2019 02:42:18 1.8 C 44 %
1170 19-12-2019 02:52:17 2.1 C 43 %
1171 19-12-2019 03:02:18 1.5 C 44 %
1172 19-12-2019 03:12:18 1.6 C 44 %
1173 19-12-2019 03:22:17 1.6 C 44 %
1174 19-12-2019 03:32:17 1.8 C 44 %
1175 19-12-2019 03:42:17 1.7 C 44 %
Sensor: Nr:Datum:Temp:Feuchte:
Aussen-T/F 1176 19-12-2019 03:52:17 1.7 C 44 %
1177 19-12-2019 04:02:17 1.6 C 44 %
1178 19-12-2019 04:12:17 1.5 C 44 %
1179 19-12-2019 04:22:18 1.5 C 44 %
1180 19-12-2019 04:32:17 1.5 C 44 %
1181 19-12-2019 04:42:17 1.4 C 44 %
1182 19-12-2019 04:52:18 1.6 C 44 %
1183 19-12-2019 05:02:17 1.4 C 44 %
1184 19-12-2019 05:12:17 1.5 C 44 %
1185 19-12-2019 05:22:17 1.4 C 44 %
1186 19-12-2019 05:32:17 1.3 C 44 %
1187 19-12-2019 05:42:17 1.3 C 44 %
1188 19-12-2019 05:52:17 1.1 C 44 %
1189 19-12-2019 06:02:17 1.1 C 44 %
1190 19-12-2019 06:12:17 1.2 C 44 %
1191 19-12-2019 06:22:17 1 C 44 %
1192 19-12-2019 06:32:17 1.1 C 44 %
1193 19-12-2019 06:42:18 1 C 43 %
1194 19-12-2019 06:52:17 0.7 C 45 %
1195 19-12-2019 07:02:17 1 C 44 %
1196 19-12-2019 07:12:17 0.9 C 45 %
1197 19-12-2019 07:22:17 1.7 C 44 %
1198 19-12-2019 07:32:17 3.5 C 43 %
1199 19-12-2019 07:42:18 3.2 C 42 %
1200 19-12-2019 07:52:17 3.1 C 42 %
Sensor: Nr:Datum:Temp:Feuchte:
Aussen-T/F 1201 19-12-2019 08:02:18 4.6 C 42 %
1202 19-12-2019 08:12:18 3.8 C 42 %
1203 19-12-2019 08:22:17 3.7 C 42 %
1204 19-12-2019 08:32:18 4.6 C 41 %
1205 19-12-2019 08:42:18 4 C 41 %
1206 19-12-2019 08:52:17 3.3 C 41 %
1207 19-12-2019 09:02:17 4 C 41 %
1208 19-12-2019 09:12:17 4.4 C 41 %
1209 19-12-2019 09:22:17 4.1 C 41 %
1210 19-12-2019 09:32:17 4.6 C 41 %
1211 19-12-2019 09:42:17 4.4 C 41 %
1212 19-12-2019 09:52:17 4.5 C 41 %
1213 19-12-2019 10:02:17 4.7 C 41 %
1214 19-12-2019 10:12:17 4.9 C 41 %
1215 19-12-2019 10:22:17 5.2 C 41 %
1216 19-12-2019 10:32:17 7 C 40 %
1217 19-12-2019 10:42:17 7.2 C 40 %
1218 19-12-2019 10:52:18 6.7 C 40 %
1219 19-12-2019 11:02:17 6.4 C 39 %
1220 19-12-2019 11:12:17 6.3 C 39 %
1221 19-12-2019 11:22:17 6.3 C 40 %
1222 19-12-2019 11:32:17 6.4 C 40 %
1223 19-12-2019 11:42:17 6.6 C 40 %
1224 19-12-2019 11:52:18 6.7 C 40 %
1225 19-12-2019 12:02:17 6.6 C 40 %
Sensor: Nr:Datum:Temp:Feuchte:
Aussen-T/F 1226 19-12-2019 12:12:17 6.7 C 40 %
1227 19-12-2019 12:22:17 6.7 C 40 %
1228 19-12-2019 12:32:17 7 C 39 %
1229 19-12-2019 12:42:17 7 C 39 %
1230 19-12-2019 12:52:17 7.1 C 39 %
1231 19-12-2019 13:02:17 7.3 C 39 %
1232 19-12-2019 13:12:17 7.1 C 38 %
1233 19-12-2019 13:22:17 7.2 C 39 %
1234 19-12-2019 13:32:17 7.2 C 39 %
1235 19-12-2019 13:42:17 7.3 C 38 %
1236 19-12-2019 13:52:17 7.3 C 38 %
1237 19-12-2019 14:02:17 7.3 C 38 %
1238 19-12-2019 14:12:17 7.1 C 38 %
1239 19-12-2019 14:22:17 7.1 C 38 %
1240 19-12-2019 14:32:17 7.2 C 38 %
1241 19-12-2019 14:42:17 7.3 C 37 %
1242 19-12-2019 14:52:17 7.9 C 36 %
1243 19-12-2019 15:02:17 8.1 C 34 %
1244 19-12-2019 15:12:17 8.1 C 33 %
1245 19-12-2019 15:22:17 8.4 C 32 %
1246 19-12-2019 15:32:18 8.6 C 32 %
1247 19-12-2019 15:42:18 8.7 C 31 %
1248 19-12-2019 15:52:17 8.8 C 31 %
1249 19-12-2019 16:02:17 8.7 C 30 %
1250 19-12-2019 16:12:17 8.3 C 31 %
Sensor: Nr:Datum:Temp:Feuchte:
Aussen-T/F 1251 19-12-2019 16:22:18 8.1 C 31 %
1252 19-12-2019 16:32:17 7.9 C 32 %
1253 19-12-2019 16:42:17 7.9 C 31 %
1254 19-12-2019 16:52:17 7.6 C 32 %
1255 19-12-2019 17:02:17 7.4 C 32 %
1256 19-12-2019 17:12:17 6 C 35 %
1257 19-12-2019 17:22:17 5.7 C 37 %
1258 19-12-2019 17:32:17 5.5 C 39 %
1259 19-12-2019 17:42:17 5 C 39 %
1260 19-12-2019 17:52:17 4.9 C 41 %
1261 19-12-2019 18:02:17 5.2 C 42 %
1262 19-12-2019 18:12:18 4.9 C 42 %
1263 19-12-2019 18:22:17 5.2 C 42 %
1264 19-12-2019 18:32:17 5 C 41 %
1265 19-12-2019 18:42:17 5 C 41 %
1266 19-12-2019 18:52:18 5.8 C 42 %
1267 19-12-2019 19:02:17 5.7 C 41 %
1268 19-12-2019 19:12:17 5.2 C 39 %
1269 19-12-2019 19:22:18 4.7 C 40 %
1270 19-12-2019 19:32:17 4.9 C 42 %
1271 19-12-2019 19:42:17 4.7 C 42 %
1272 19-12-2019 19:52:17 4.8 C 42 %
1273 19-12-2019 20:02:17 5 C 42 %
1274 19-12-2019 20:12:17 5 C 41 %
1275 19-12-2019 20:22:17 4.8 C 42 %
Sensor: Nr:Datum:Temp:Feuchte:
Aussen-T/F 1276 19-12-2019 20:32:17 5.1 C 42 %
1277 19-12-2019 20:42:17 6 C 41 %
1278 19-12-2019 20:52:17 6 C 38 %
1279 19-12-2019 21:02:17 5.8 C 38 %
1280 19-12-2019 21:12:18 5.8 C 39 %
1281 19-12-2019 21:22:17 5.7 C 39 %
1282 19-12-2019 21:32:17 5.8 C 40 %
1283 19-12-2019 21:42:17 6 C 40 %
1284 19-12-2019 21:52:17 5.7 C 40 %
1285 19-12-2019 22:02:17 5.6 C 40 %
1286 19-12-2019 22:12:17 5.8 C 41 %
1287 19-12-2019 22:22:18 6.2 C 41 %
1288 19-12-2019 22:32:18 5.9 C 40 %
1289 19-12-2019 22:42:18 5.1 C 38 %
1290 19-12-2019 22:52:17 5 C 41 %
1291 19-12-2019 23:02:17 5.4 C 43 %
1292 19-12-2019 23:12:17 5.5 C 42 %
1293 19-12-2019 23:22:17 5.5 C 42 %
1294 19-12-2019 23:32:17 5.4 C 42 %
1295 19-12-2019 23:42:17 5.4 C 42 %
1296 19-12-2019 23:52:17 5.1 C 41 %
1297 20-12-2019 00:02:17 4.8 C 42 %
1298 20-12-2019 00:12:17 4.3 C 41 %
1299 20-12-2019 00:22:17 4 C 41 %
1300 20-12-2019 00:32:17 3.9 C 43 %
Sensor: Nr:Datum:Temp:Feuchte:
Aussen-T/F 1301 20-12-2019 00:42:17 3.7 C 42 %
1302 20-12-2019 00:52:17 3.4 C 43 %
1303 20-12-2019 01:02:17 3.1 C 42 %
1304 20-12-2019 01:12:17 3 C 43 %
1305 20-12-2019 01:22:17 3.3 C 44 %
1306 20-12-2019 01:32:17 3.1 C 43 %
1307 20-12-2019 01:42:17 3.1 C 43 %
1308 20-12-2019 01:52:17 2.8 C 44 %
1309 20-12-2019 02:02:17 2.8 C 44 %
1310 20-12-2019 02:12:17 2.6 C 44 %
1311 20-12-2019 02:22:17 2.5 C 44 %
1312 20-12-2019 02:32:18 3.2 C 44 %
1313 20-12-2019 02:42:18 3.4 C 44 %
1314 20-12-2019 02:52:17 3.8 C 44 %
1315 20-12-2019 03:02:17 4.7 C 42 %
1316 20-12-2019 03:12:17 4.2 C 41 %
1317 20-12-2019 03:22:17 4.6 C 41 %
1318 20-12-2019 03:32:17 4.4 C 40 %
1319 20-12-2019 03:42:17 4.4 C 40 %
1320 20-12-2019 03:52:17 4.6 C 41 %
1321 20-12-2019 04:02:17 4.4 C 40 %
1322 20-12-2019 04:12:17 4.2 C 40 %
1323 20-12-2019 04:22:17 4 C 41 %
1324 20-12-2019 04:32:18 4.8 C 42 %
1325 20-12-2019 04:42:18 4.5 C 41 %
Sensor: Nr:Datum:Temp:Feuchte:
Aussen-T/F 1326 20-12-2019 04:52:17 4.7 C 40 %
1327 20-12-2019 05:02:17 4.7 C 40 %
1328 20-12-2019 05:12:17 5.3 C 38 %
1329 20-12-2019 05:22:17 5.2 C 36 %
1330 20-12-2019 05:32:17 5.3 C 36 %
1331 20-12-2019 05:42:17 5.4 C 35 %
1332 20-12-2019 05:52:18 5.5 C 35 %
1333 20-12-2019 06:02:18 5.2 C 35 %
1334 20-12-2019 06:12:18 5.3 C 35 %
1335 20-12-2019 06:22:17 5.6 C 35 %
1336 20-12-2019 06:32:17 6 C 32 %
1337 20-12-2019 06:42:17 6 C 31 %
1338 20-12-2019 06:52:17 5.7 C 32 %
1339 20-12-2019 07:02:17 5.8 C 31 %
1340 20-12-2019 07:12:17 5.9 C 31 %
1341 20-12-2019 07:22:17 6.1 C 31 %
1342 20-12-2019 07:32:17 5.9 C 33 %
1343 20-12-2019 07:42:17 6.4 C 31 %
1344 20-12-2019 07:52:17 6.8 C 30 %
1345 20-12-2019 08:02:17 7.1 C 27 %
1346 20-12-2019 08:12:17 6.4 C 31 %
1347 20-12-2019 08:22:17 6.4 C 32 %
1348 20-12-2019 08:32:18 6.5 C 32 %
1349 20-12-2019 08:42:18 6.3 C 32 %
1350 20-12-2019 08:52:17 6.3 C 33 %
Sensor: Nr:Datum:Temp:Feuchte:
Aussen-T/F 1351 20-12-2019 09:02:17 6.5 C 33 %
1352 20-12-2019 09:12:17 6.7 C 31 %
1353 20-12-2019 09:22:17 6.5 C 33 %
1354 20-12-2019 09:32:17 6.4 C 35 %
1355 20-12-2019 09:42:17 6.5 C 35 %
1356 20-12-2019 09:52:17 6.5 C 34 %
1357 20-12-2019 10:02:17 6.2 C 31 %
1358 20-12-2019 10:12:17 6 C 33 %
1359 20-12-2019 10:22:17 5.7 C 35 %
1360 20-12-2019 10:32:17 5.8 C 40 %
1361 20-12-2019 10:42:17 5.9 C 42 %
1362 20-12-2019 10:52:17 6 C 42 %
1363 20-12-2019 11:02:17 6.1 C 42 %
1364 20-12-2019 11:12:17 6 C 42 %
1365 20-12-2019 11:22:17 6.3 C 42 %
1366 20-12-2019 11:32:17 6.5 C 42 %
1367 20-12-2019 11:42:17 6.7 C 41 %
1368 20-12-2019 11:52:17 6.8 C 40 %
1369 20-12-2019 12:02:18 7 C 39 %
1370 20-12-2019 12:12:18 7.3 C 39 %
1371 20-12-2019 12:22:18 7.5 C 39 %
1372 20-12-2019 12:32:17 7.7 C 39 %
1373 20-12-2019 12:42:18 8 C 39 %
1374 20-12-2019 12:52:17 8.1 C 38 %
1375 20-12-2019 13:02:18 8.1 C 39 %
Sensor: Nr:Datum:Temp:Feuchte:
Aussen-T/F 1376 20-12-2019 13:12:18 8.2 C 39 %
1377 20-12-2019 13:22:17 8.3 C 37 %
1378 20-12-2019 13:32:17 8.4 C 36 %
1379 20-12-2019 13:42:17 8.6 C 37 %
1380 20-12-2019 13:52:17 8.5 C 36 %
1381 20-12-2019 14:02:17 8.6 C 36 %
1382 20-12-2019 14:12:17 8.6 C 35 %
1383 20-12-2019 14:22:17 8.7 C 36 %
1384 20-12-2019 14:32:17 8.7 C 36 %
1385 20-12-2019 14:42:17 8.5 C 35 %
1386 20-12-2019 14:52:18 8.3 C 36 %
1387 20-12-2019 15:02:17 8.2 C 37 %
1388 20-12-2019 15:12:17 8.3 C 38 %
1389 20-12-2019 15:22:17 8.3 C 39 %
1390 20-12-2019 15:32:17 8.2 C 40 %
1391 20-12-2019 15:42:17 8.3 C 41 %
1392 20-12-2019 15:52:17 8.2 C 40 %
1393 20-12-2019 16:02:17 8.2 C 40 %
1394 20-12-2019 16:12:18 8.3 C 40 %
1395 20-12-2019 16:22:17 8.3 C 41 %
1396 20-12-2019 16:32:17 8.4 C 41 %
1397 20-12-2019 16:42:17 8.4 C 41 %
1398 20-12-2019 16:52:18 8.6 C 41 %
1399 20-12-2019 17:02:17 9 C 41 %
1400 20-12-2019 17:12:18 9 C 40 %
Sensor: Nr:Datum:Temp:Feuchte:
Aussen-T/F 1401 20-12-2019 17:22:17 9.1 C 36 %
1402 20-12-2019 17:32:17 8.7 C 38 %
1403 20-12-2019 17:42:17 8.8 C 37 %
1404 20-12-2019 17:52:18 8.7 C 38 %
1405 20-12-2019 18:02:17 8.9 C 37 %
1406 20-12-2019 18:12:17 8.9 C 36 %
1407 20-12-2019 18:22:17 8.9 C 37 %
1408 20-12-2019 18:32:17 8.9 C 37 %
1409 20-12-2019 18:42:17 9.7 C 33 %
1410 20-12-2019 18:52:18 9.5 C 31 %
1411 20-12-2019 19:02:17 9.8 C 30 %
1412 20-12-2019 19:12:17 10.1 C 28 %
1413 20-12-2019 19:22:17 9.9 C 29 %
1414 20-12-2019 19:32:17 9.8 C 29 %
1415 20-12-2019 19:42:17 10 C 27 %
1416 20-12-2019 19:52:18 9.7 C 29 %
1417 20-12-2019 20:02:18 9.6 C 28 %
1418 20-12-2019 20:12:18 9.5 C 28 %
1419 20-12-2019 20:22:17 9.5 C 27 %
1420 20-12-2019 20:32:18 9 C 28 %
1421 20-12-2019 20:42:18 9 C 27 %
1422 20-12-2019 20:52:17 8.9 C 28 %
1423 20-12-2019 21:02:18 8.5 C 28 %
1424 20-12-2019 21:12:18 8.6 C 28 %
1425 20-12-2019 21:22:17 8.9 C 27 %
Sensor: Nr:Datum:Temp:Feuchte:
Aussen-T/F 1426 20-12-2019 21:32:17 8.7 C 27 %
1427 20-12-2019 21:42:17 8.3 C 28 %
1428 20-12-2019 21:52:17 8.3 C 28 %
1429 20-12-2019 22:02:17 8.3 C 28 %
1430 20-12-2019 22:12:17 8.1 C 28 %
1431 20-12-2019 22:22:17 8.7 C 27 %
1432 20-12-2019 22:32:17 8.9 C 26 %
1433 20-12-2019 22:42:17 8.7 C 27 %
1434 20-12-2019 22:52:17 8.7 C 27 %
1435 20-12-2019 23:02:17 8.5 C 27 %
1436 20-12-2019 23:12:17 8.4 C 27 %
1437 20-12-2019 23:22:17 8.2 C 28 %
1438 20-12-2019 23:32:17 8 C 28 %
1439 20-12-2019 23:42:17 8.3 C 27 %
1440 20-12-2019 23:52:18 8.1 C 27 %
1441 21-12-2019 00:02:17 7.9 C 28 %
1442 21-12-2019 00:12:17 7.7 C 28 %
1443 21-12-2019 00:22:17 7.5 C 30 %
1444 21-12-2019 00:32:17 7.5 C 30 %
1445 21-12-2019 00:42:17 7.2 C 30 %
1446 21-12-2019 00:52:18 7 C 30 %
1447 21-12-2019 01:02:17 6.9 C 32 %
1448 21-12-2019 01:12:17 7.3 C 31 %
1449 21-12-2019 01:22:17 7.4 C 31 %
1450 21-12-2019 01:32:17 7.3 C 32 %
Sensor: Nr:Datum:Temp:Feuchte:
Aussen-T/F 1451 21-12-2019 01:42:17 7.5 C 31 %
1452 21-12-2019 01:52:17 7.5 C 32 %
1453 21-12-2019 02:02:17 7.9 C 30 %
1454 21-12-2019 02:12:17 8 C 29 %
1455 21-12-2019 02:22:17 8.2 C 28 %
1456 21-12-2019 02:32:18 7.8 C 30 %
1457 21-12-2019 02:42:18 7.8 C 30 %
1458 21-12-2019 02:52:17 7.8 C 30 %
1459 21-12-2019 03:02:17 7.5 C 30 %
1460 21-12-2019 03:12:17 7.5 C 31 %
1461 21-12-2019 03:22:17 7.4 C 31 %
1462 21-12-2019 03:32:18 7.3 C 31 %
1463 21-12-2019 03:42:18 7.1 C 31 %
1464 21-12-2019 03:52:17 7.1 C 32 %
1465 21-12-2019 04:02:17 6.9 C 33 %
1466 21-12-2019 04:12:17 6.7 C 36 %
1467 21-12-2019 04:22:17 6.4 C 37 %
1468 21-12-2019 04:32:18 6 C 38 %
1469 21-12-2019 04:42:18 5.9 C 38 %
1470 21-12-2019 04:52:17 5.7 C 40 %
1471 21-12-2019 05:02:17 6 C 40 %
1472 21-12-2019 05:12:17 5.6 C 39 %
1473 21-12-2019 05:22:17 5.4 C 38 %
1474 21-12-2019 05:32:18 5.4 C 38 %
1475 21-12-2019 05:42:18 5.1 C 38 %
Sensor: Nr:Datum:Temp:Feuchte:
Aussen-T/F 1476 21-12-2019 05:52:17 5.3 C 40 %
1477 21-12-2019 06:02:17 4.9 C 41 %
1478 21-12-2019 06:12:17 4.8 C 41 %
1479 21-12-2019 06:22:18 4.3 C 40 %
1480 21-12-2019 06:32:17 4.3 C 42 %
1481 21-12-2019 06:42:17 5 C 40 %
1482 21-12-2019 06:52:18 3.8 C 41 %
1483 21-12-2019 07:02:17 3.8 C 43 %
1484 21-12-2019 07:12:18 3.5 C 42 %
1485 21-12-2019 07:22:17 3.4 C 43 %
1486 21-12-2019 07:32:17 3.3 C 43 %
1487 21-12-2019 07:42:17 3 C 42 %
1488 21-12-2019 07:52:17 3 C 43 %
1489 21-12-2019 08:02:17 3.1 C 44 %
1490 21-12-2019 08:12:17 3.6 C 44 %
1491 21-12-2019 08:22:17 3.7 C 44 %
1492 21-12-2019 08:32:17 3.9 C 43 %
1493 21-12-2019 08:42:17 4.6 C 43 %
1494 21-12-2019 08:52:17 4.9 C 42 %
1495 21-12-2019 09:02:17 5 C 39 %
1496 21-12-2019 09:12:17 4.5 C 38 %
1497 21-12-2019 09:22:17 4.4 C 38 %
1498 21-12-2019 09:32:17 4.4 C 39 %
1499 21-12-2019 09:42:17 4.6 C 40 %
1500 21-12-2019 09:52:17 4.6 C 38 %
Sensor: Nr:Datum:Temp:Feuchte:
Aussen-T/F 1501 21-12-2019 10:02:17 4.8 C 38 %
1502 21-12-2019 10:12:17 4.8 C 37 %
1503 21-12-2019 10:22:17 5.1 C 37 %
1504 21-12-2019 10:32:17 5.2 C 36 %
1505 21-12-2019 10:42:17 5.1 C 37 %
1506 21-12-2019 10:52:17 5.2 C 37 %
1507 21-12-2019 11:02:17 5.3 C 37 %
1508 21-12-2019 11:12:17 5.3 C 37 %
1509 21-12-2019 11:22:17 5.4 C 37 %
1510 21-12-2019 11:32:17 5.8 C 37 %
1511 21-12-2019 11:42:17 5.9 C 37 %
1512 21-12-2019 11:52:17 5.8 C 37 %
1513 21-12-2019 12:02:17 5.8 C 36 %
1514 21-12-2019 12:12:17 6.2 C 36 %
1515 21-12-2019 12:22:17 6.2 C 35 %
1516 21-12-2019 12:32:17 7 C 32 %
1517 21-12-2019 12:42:17 6.8 C 33 %
1518 21-12-2019 12:52:17 8 C 30 %
1519 21-12-2019 13:02:17 7.8 C 30 %
1520 21-12-2019 13:12:17 7.1 C 30 %
1521 21-12-2019 13:22:17 6.9 C 31 %
1522 21-12-2019 13:32:17 7.2 C 30 %
1523 21-12-2019 13:42:17 8 C 28 %
1524 21-12-2019 13:52:18 7.7 C 28 %
1525 21-12-2019 14:02:17 8.3 C 27 %
Sensor: Nr:Datum:Temp:Feuchte:
Aussen-T/F 1526 21-12-2019 14:12:17 8.8 C 26 %
1527 21-12-2019 14:22:17 8.2 C 27 %
1528 21-12-2019 14:32:18 8.2 C 27 %
1529 21-12-2019 14:42:18 8.5 C 27 %
1530 21-12-2019 14:52:17 8.8 C 26 %
1531 21-12-2019 15:02:18 9 C 25 %
1532 21-12-2019 15:12:18 8.7 C 26 %
1533 21-12-2019 15:22:18 8.8 C 25 %
1534 21-12-2019 15:32:17 8.7 C 25 %
1535 21-12-2019 15:42:17 8 C 26 %
1536 21-12-2019 15:52:17 7.5 C 28 %
1537 21-12-2019 16:02:17 7.7 C 27 %
1538 21-12-2019 16:12:17 7.6 C 29 %
1539 21-12-2019 16:22:17 7.4 C 30 %
1540 21-12-2019 16:32:17 7.4 C 30 %
1541 21-12-2019 16:42:17 7.7 C 28 %
1542 21-12-2019 16:52:17 7.9 C 27 %
1543 21-12-2019 17:02:17 7.6 C 29 %
1544 21-12-2019 17:12:17 7.3 C 30 %
1545 21-12-2019 17:22:17 7.2 C 30 %
1546 21-12-2019 17:32:17 7.3 C 30 %
1547 21-12-2019 17:42:17 7.3 C 29 %
1548 21-12-2019 17:52:17 7.2 C 29 %
1549 21-12-2019 18:02:17 7.6 C 27 %
1550 21-12-2019 18:12:17 7.6 C 27 %
Sensor: Nr:Datum:Temp:Feuchte:
Aussen-T/F 1551 21-12-2019 18:22:17 7.6 C 26 %
1552 21-12-2019 18:32:18 7.9 C 25 %
1553 21-12-2019 18:42:18 7.7 C 26 %
1554 21-12-2019 18:52:17 7.5 C 26 %
1555 21-12-2019 19:02:17 7.3 C 27 %
1556 21-12-2019 19:12:17 7 C 27 %
1557 21-12-2019 19:22:17 7 C 27 %
1558 21-12-2019 19:32:17 6.9 C 30 %
1559 21-12-2019 19:42:17 6.8 C 30 %
1560 21-12-2019 19:52:17 7 C 27 %
1561 21-12-2019 20:02:17 7.1 C 26 %
1562 21-12-2019 20:12:17 7.1 C 26 %
1563 21-12-2019 20:22:17 7.1 C 26 %
1564 21-12-2019 20:32:17 6.9 C 28 %
1565 21-12-2019 20:42:17 7 C 27 %
1566 21-12-2019 20:52:17 6.8 C 27 %
1567 21-12-2019 21:02:18 6.4 C 29 %
1568 21-12-2019 21:12:18 6.1 C 30 %
1569 21-12-2019 21:22:17 6.1 C 31 %
1570 21-12-2019 21:32:17 6.3 C 31 %
1571 21-12-2019 21:42:17 5.9 C 31 %
1572 21-12-2019 21:52:18 5.1 C 34 %
1573 21-12-2019 22:02:18 4.9 C 36 %
1574 21-12-2019 22:12:18 5.2 C 34 %
1575 21-12-2019 22:22:17 5.7 C 30 %
Sensor: Nr:Datum:Temp:Feuchte:
Aussen-T/F 1576 21-12-2019 22:32:17 6.1 C 27 %
1577 21-12-2019 22:42:17 6.1 C 27 %
1578 21-12-2019 22:52:17 6 C 27 %
1579 21-12-2019 23:02:17 5.8 C 27 %
1580 21-12-2019 23:12:17 5.8 C 27 %
1581 21-12-2019 23:22:17 6.3 C 26 %
1582 21-12-2019 23:32:18 6.5 C 25 %
1583 21-12-2019 23:42:18 6.7 C 25 %
1584 21-12-2019 23:52:17 6.3 C 26 %
1585 22-12-2019 00:02:17 6.8 C 26 %
1586 22-12-2019 00:12:17 6.9 C 26 %
1587 22-12-2019 00:22:17 6.8 C 26 %
1588 22-12-2019 00:32:17 6.8 C 26 %
1589 22-12-2019 00:42:17 6.7 C 27 %
1590 22-12-2019 00:52:17 6.3 C 30 %
1591 22-12-2019 01:02:17 6.2 C 30 %
1592 22-12-2019 01:12:18 5.8 C 35 %
1593 22-12-2019 01:22:17 5.8 C 36 %
1594 22-12-2019 01:32:17 5.8 C 39 %
1595 22-12-2019 01:42:17 5.7 C 40 %
1596 22-12-2019 01:52:17 5.7 C 40 %
1597 22-12-2019 02:02:17 5.7 C 38 %
1598 22-12-2019 02:12:18 5.7 C 38 %
1599 22-12-2019 02:22:17 5.8 C 38 %
1600 22-12-2019 02:32:17 5.9 C 37 %
Sensor: Nr:Datum:Temp:Feuchte:
Aussen-T/F 1601 22-12-2019 02:42:17 5.9 C 36 %
1602 22-12-2019 02:52:18 6 C 35 %
1603 22-12-2019 03:02:17 6.1 C 35 %
1604 22-12-2019 03:12:17 6.2 C 34 %
1605 22-12-2019 03:22:17 6.2 C 35 %
1606 22-12-2019 03:32:17 6.2 C 34 %
1607 22-12-2019 03:42:17 6.1 C 35 %
1608 22-12-2019 03:52:17 6.2 C 35 %
1609 22-12-2019 04:02:18 6.2 C 35 %
1610 22-12-2019 04:12:18 6 C 35 %
1611 22-12-2019 04:22:17 6.2 C 34 %
1612 22-12-2019 04:32:17 6.2 C 34 %
1613 22-12-2019 04:42:17 6.3 C 33 %
1614 22-12-2019 04:52:17 6.3 C 33 %
1615 22-12-2019 05:02:17 6.2 C 34 %
1616 22-12-2019 05:12:17 5.8 C 34 %
1617 22-12-2019 05:22:17 5.4 C 36 %
1618 22-12-2019 05:32:17 5.7 C 40 %
1619 22-12-2019 05:42:17 6.1 C 38 %
1620 22-12-2019 05:52:17 5.5 C 35 %
1621 22-12-2019 06:02:17 5.1 C 39 %
1622 22-12-2019 06:12:17 5.3 C 41 %
1623 22-12-2019 06:22:17 4.9 C 41 %
1624 22-12-2019 06:32:17 5.4 C 42 %
1625 22-12-2019 06:42:17 5.9 C 41 %
Sensor: Nr:Datum:Temp:Feuchte:
Aussen-T/F 1626 22-12-2019 06:52:17 6.2 C 39 %
1627 22-12-2019 07:02:17 6.2 C 38 %
1628 22-12-2019 07:12:17 6 C 38 %
1629 22-12-2019 07:22:17 5.7 C 38 %
1630 22-12-2019 07:32:17 5.4 C 39 %
1631 22-12-2019 07:42:17 6 C 42 %
1632 22-12-2019 07:52:17 6.1 C 41 %
1633 22-12-2019 08:02:18 6.3 C 41 %
1634 22-12-2019 08:12:18 6.2 C 40 %
1635 22-12-2019 08:22:17 5.9 C 40 %
1636 22-12-2019 08:32:17 5.8 C 41 %
1637 22-12-2019 08:42:17 6.3 C 41 %
1638 22-12-2019 08:52:18 6.2 C 39 %
1639 22-12-2019 09:02:17 6 C 39 %
1640 22-12-2019 09:12:17 6.2 C 40 %
1641 22-12-2019 09:22:17 6.4 C 39 %
1642 22-12-2019 09:32:17 6.3 C 39 %
1643 22-12-2019 09:42:17 6.8 C 39 %
1644 22-12-2019 09:52:17 7 C 37 %
1645 22-12-2019 10:02:17 7.1 C 37 %
1646 22-12-2019 10:12:17 7.9 C 33 %
1647 22-12-2019 10:22:17 8.1 C 33 %
1648 22-12-2019 10:32:17 8.8 C 30 %
1649 22-12-2019 10:42:17 9 C 29 %
1650 22-12-2019 10:52:17 9.3 C 28 %
Sensor: Nr:Datum:Temp:Feuchte:
Aussen-T/F 1651 22-12-2019 11:02:17 9.5 C 28 %
1652 22-12-2019 11:12:17 10 C 26 %
1653 22-12-2019 11:22:17 10 C 26 %
1654 22-12-2019 11:32:18 10.4 C 26 %
1655 22-12-2019 11:42:18 10.2 C 26 %
1656 22-12-2019 11:52:17 10.4 C 26 %
1657 22-12-2019 12:02:17 10.5 C 25 %
1658 22-12-2019 12:12:17 10.5 C 26 %
1659 22-12-2019 12:22:17 10.5 C 25 %
1660 22-12-2019 12:32:17 10.7 C 26 %
1661 22-12-2019 12:42:17 10.8 C 26 %
1662 22-12-2019 12:52:17 11.2 C 25 %
1663 22-12-2019 13:02:17 11.1 C 25 %
1664 22-12-2019 13:12:17 10.8 C 25 %
1665 22-12-2019 13:22:17 10.7 C 25 %
1666 22-12-2019 13:32:17 10.7 C 25 %
1667 22-12-2019 13:42:17 10.7 C 25 %
1668 22-12-2019 13:52:17 10.8 C 25 %
1669 22-12-2019 14:02:17 11.1 C 23 %
1670 22-12-2019 14:12:17 11 C 23 %
1671 22-12-2019 14:22:17 10.8 C 23 %
1672 22-12-2019 14:32:17 10.9 C 23 %
1673 22-12-2019 14:42:17 10.8 C 23 %
1674 22-12-2019 14:52:17 10.7 C 25 %
1675 22-12-2019 15:02:17 10.6 C 25 %
Sensor: Nr:Datum:Temp:Feuchte:
Aussen-T/F 1676 22-12-2019 15:12:17 10.3 C 25 %
1677 22-12-2019 15:22:17 10.1 C 25 %
1678 22-12-2019 15:32:17 9.9 C 26 %
1679 22-12-2019 15:42:17 9.7 C 26 %
1680 22-12-2019 15:52:18 9.6 C 25 %
1681 22-12-2019 16:02:18 9.6 C 25 %
1682 22-12-2019 16:12:18 9.3 C 25 %
1683 22-12-2019 16:22:17 8.9 C 26 %
1684 22-12-2019 16:32:17 8.3 C 26 %
1685 22-12-2019 16:42:17 8.4 C 27 %
1686 22-12-2019 16:52:17 7.9 C 28 %
1687 22-12-2019 17:02:18 7.5 C 30 %
1688 22-12-2019 17:12:18 7.5 C 30 %
1689 22-12-2019 17:22:17 7.4 C 30 %
1690 22-12-2019 17:32:17 7.5 C 29 %
1691 22-12-2019 17:42:17 7.5 C 28 %
1692 22-12-2019 17:52:17 7.2 C 28 %
1693 22-12-2019 18:02:17 7.2 C 30 %
1694 22-12-2019 18:12:17 7.1 C 30 %
1695 22-12-2019 18:22:17 7.3 C 30 %
1696 22-12-2019 18:32:17 7.4 C 29 %
1697 22-12-2019 18:42:17 7.5 C 29 %
1698 22-12-2019 18:52:17 7.2 C 29 %
1699 22-12-2019 19:02:17 7.1 C 30 %
1700 22-12-2019 19:12:17 7 C 31 %
Sensor: Nr:Datum:Temp:Feuchte:
Aussen-T/F 1701 22-12-2019 19:22:17 7 C 32 %
1702 22-12-2019 19:32:17 7.1 C 31 %
1703 22-12-2019 19:42:17 7.5 C 30 %
1704 22-12-2019 19:52:17 8 C 27 %
1705 22-12-2019 20:02:17 7.9 C 27 %
1706 22-12-2019 20:12:17 8.1 C 26 %
1707 22-12-2019 20:22:17 8.3 C 25 %
1708 22-12-2019 20:32:17 8.2 C 25 %
1709 22-12-2019 20:42:17 8 C 25 %
1710 22-12-2019 20:52:17 8 C 25 %
1711 22-12-2019 21:02:17 8.1 C 25 %
1712 22-12-2019 21:12:17 8.1 C 25 %
1713 22-12-2019 21:22:17 7.8 C 25 %
1714 22-12-2019 21:32:17 8.1 C 25 %
1715 22-12-2019 21:42:17 7.8 C 26 %
1716 22-12-2019 21:52:17 7.7 C 26 %
1717 22-12-2019 22:02:17 7.9 C 26 %
1718 22-12-2019 22:12:17 7.6 C 26 %
1719 22-12-2019 22:22:17 7.5 C 26 %
1720 22-12-2019 22:32:17 7.1 C 27 %
1721 22-12-2019 22:42:17 6.9 C 28 %
1722 22-12-2019 22:52:17 6.7 C 29 %
1723 22-12-2019 23:02:17 6.2 C 31 %
1724 22-12-2019 23:12:17 6.4 C 31 %
1725 22-12-2019 23:22:17 6.6 C 31 %
Sensor: Nr:Datum:Temp:Feuchte:
Aussen-T/F 1726 22-12-2019 23:32:17 6.6 C 31 %
1727 22-12-2019 23:42:17 6.7 C 31 %
1728 22-12-2019 23:52:17 6.7 C 31 %
1729 23-12-2019 00:02:17 6.6 C 32 %
1730 23-12-2019 00:12:17 6.5 C 31 %
1731 23-12-2019 00:22:17 6.4 C 32 %
1732 23-12-2019 00:32:17 6.6 C 31 %
1733 23-12-2019 00:42:17 7 C 30 %
1734 23-12-2019 00:52:17 6.9 C 30 %
1735 23-12-2019 01:02:17 6.8 C 30 %
1736 23-12-2019 01:12:17 7.1 C 28 %
1737 23-12-2019 01:22:17 7 C 28 %
1738 23-12-2019 01:32:17 7.1 C 28 %
1739 23-12-2019 01:42:17 7.4 C 27 %
1740 23-12-2019 01:52:17 7.4 C 27 %
1741 23-12-2019 02:02:17 6.8 C 29 %
1742 23-12-2019 02:12:17 6.5 C 30 %
1743 23-12-2019 02:22:17 6.8 C 29 %
1744 23-12-2019 02:32:17 6.9 C 29 %
1745 23-12-2019 02:42:17 7.3 C 28 %
1746 23-12-2019 02:52:17 6.9 C 30 %
1747 23-12-2019 03:02:17 6.8 C 31 %
1748 23-12-2019 03:12:17 6.4 C 31 %
1749 23-12-2019 03:22:17 6.5 C 30 %
1750 23-12-2019 03:32:17 7 C 28 %
Sensor: Nr:Datum:Temp:Feuchte:
Aussen-T/F 1751 23-12-2019 03:42:17 6.6 C 29 %
1752 23-12-2019 03:52:17 7 C 28 %
1753 23-12-2019 04:02:17 6.9 C 30 %
1754 23-12-2019 04:12:17 7.1 C 28 %
1755 23-12-2019 04:22:17 6.8 C 30 %
1756 23-12-2019 04:32:17 6.9 C 31 %
1757 23-12-2019 04:42:17 6.5 C 31 %
1758 23-12-2019 04:52:17 6.1 C 31 %
1759 23-12-2019 05:02:17 6.4 C 32 %
1760 23-12-2019 05:12:17 7 C 30 %
1761 23-12-2019 05:22:17 7.1 C 30 %
1762 23-12-2019 05:32:17 7 C 30 %
1763 23-12-2019 05:42:17 6.8 C 31 %
1764 23-12-2019 05:52:17 6.3 C 32 %
1765 23-12-2019 06:02:18 6.3 C 34 %
1766 23-12-2019 06:12:18 6.6 C 33 %
1767 23-12-2019 06:22:17 6.9 C 31 %
1768 23-12-2019 06:32:18 7.1 C 30 %
1769 23-12-2019 06:42:18 6.9 C 31 %
1770 23-12-2019 06:52:17 6.9 C 31 %
1771 23-12-2019 07:02:17 6.8 C 32 %
1772 23-12-2019 07:12:17 6.8 C 34 %
1773 23-12-2019 07:22:17 6.8 C 32 %
1774 23-12-2019 07:32:17 7.1 C 30 %
1775 23-12-2019 07:42:17 7.4 C 29 %
Sensor: Nr:Datum:Temp:Feuchte:
Aussen-T/F 1776 23-12-2019 07:52:17 7.1 C 30 %
1777 23-12-2019 08:02:17 7.3 C 30 %
1778 23-12-2019 08:12:17 7.4 C 28 %
1779 23-12-2019 08:22:17 7.5 C 28 %
1780 23-12-2019 08:32:18 7.5 C 28 %
1781 23-12-2019 08:42:18 7.6 C 28 %
1782 23-12-2019 08:52:17 7.6 C 27 %
1783 23-12-2019 09:02:17 7.6 C 27 %
1784 23-12-2019 09:12:18 7.7 C 27 %
1785 23-12-2019 09:22:17 7.8 C 27 %
1786 23-12-2019 09:32:18 7.8 C 27 %
1787 23-12-2019 09:42:18 7.8 C 27 %
1788 23-12-2019 09:52:18 7.9 C 26 %
1789 23-12-2019 10:02:17 7.3 C 30 %
1790 23-12-2019 10:12:18 7 C 33 %
1791 23-12-2019 10:22:17 7 C 35 %
1792 23-12-2019 10:32:18 6.8 C 35 %
1793 23-12-2019 10:42:18 6.9 C 34 %
1794 23-12-2019 10:52:17 7.4 C 30 %
1795 23-12-2019 11:02:18 7.8 C 28 %
1796 23-12-2019 11:12:18 8.1 C 28 %
1797 23-12-2019 11:22:17 8.4 C 26 %
1798 23-12-2019 11:32:18 8.3 C 26 %
1799 23-12-2019 11:42:18 8.6 C 26 %
1800 23-12-2019 11:52:17 8.9 C 25 %
Sensor: Nr:Datum:Temp:Feuchte:
Aussen-T/F 1801 23-12-2019 12:02:18 9.1 C 25 %
1802 23-12-2019 12:12:18 9.1 C 25 %
1803 23-12-2019 12:22:17 8.9 C 25 %
1804 23-12-2019 12:32:17 9 C 25 %
1805 23-12-2019 12:42:17 9.3 C 25 %
1806 23-12-2019 12:52:17 8.4 C 26 %
1807 23-12-2019 13:02:17 8.4 C 26 %
1808 23-12-2019 13:12:17 8.3 C 27 %
1809 23-12-2019 13:22:17 8.2 C 27 %
1810 23-12-2019 13:32:18 8.1 C 29 %
1811 23-12-2019 13:42:18 8.2 C 28 %
1812 23-12-2019 13:52:17 8.5 C 28 %
1813 23-12-2019 14:02:17 8.9 C 27 %
1814 23-12-2019 14:12:17 8.9 C 26 %
1815 23-12-2019 14:22:18 9 C 25 %
1816 23-12-2019 14:32:17 9.1 C 25 %
1817 23-12-2019 14:42:17 9.1 C 25 %
1818 23-12-2019 14:52:17 8.9 C 25 %
1819 23-12-2019 15:02:18 8.7 C 26 %
1820 23-12-2019 15:12:18 9.1 C 25 %
1821 23-12-2019 15:22:17 9.1 C 25 %
1822 23-12-2019 15:32:17 9 C 25 %
1823 23-12-2019 15:42:17 9 C 25 %
1824 23-12-2019 15:52:17 8.8 C 25 %
1825 23-12-2019 16:02:17 8.8 C 25 %
Sensor: Nr:Datum:Temp:Feuchte:
Aussen-T/F 1826 23-12-2019 16:12:17 8.6 C 26 %
1827 23-12-2019 16:22:18 8.5 C 25 %
1828 23-12-2019 16:32:17 8.4 C 25 %
1829 23-12-2019 16:42:17 8.5 C 25 %
1830 23-12-2019 16:52:18 8.5 C 25 %
1831 23-12-2019 17:02:17 8.2 C 25 %
1832 23-12-2019 17:12:17 8.4 C 25 %
1833 23-12-2019 17:22:17 8 C 25 %
1834 23-12-2019 17:32:17 7.9 C 25 %
1835 23-12-2019 17:42:18 7.8 C 25 %
1836 23-12-2019 17:52:17 7.8 C 25 %
1837 23-12-2019 18:02:17 7.9 C 25 %
1838 23-12-2019 18:12:17 8 C 23 %
1839 23-12-2019 18:22:17 7.9 C 23 %
1840 23-12-2019 18:32:17 7.9 C 25 %
1841 23-12-2019 18:42:17 7.6 C 25 %
1842 23-12-2019 18:52:17 7.5 C 26 %
1843 23-12-2019 19:02:17 7.3 C 26 %
1844 23-12-2019 19:12:17 6.7 C 29 %
1845 23-12-2019 19:22:17 6.4 C 30 %
1846 23-12-2019 19:32:17 7.4 C 26 %
1847 23-12-2019 19:42:17 7 C 26 %
1848 23-12-2019 19:52:17 7 C 27 %
1849 23-12-2019 20:02:17 7 C 28 %
1850 23-12-2019 20:12:17 6.5 C 30 %
Sensor: Nr:Datum:Temp:Feuchte:
Aussen-T/F 1851 23-12-2019 20:22:17 6.8 C 30 %
1852 23-12-2019 20:32:18 6.8 C 30 %
1853 23-12-2019 20:42:18 6.9 C 30 %
1854 23-12-2019 20:52:17 6.9 C 30 %
1855 23-12-2019 21:02:18 6.7 C 30 %
1856 23-12-2019 21:12:18 7.1 C 28 %
1857 23-12-2019 21:22:17 7 C 28 %
1858 23-12-2019 21:32:17 6.7 C 31 %
1859 23-12-2019 21:42:17 6.5 C 31 %
1860 23-12-2019 21:52:17 6.5 C 32 %
1861 23-12-2019 22:02:18 6.4 C 31 %
1862 23-12-2019 22:12:18 5.8 C 32 %
1863 23-12-2019 22:22:17 5.4 C 37 %
1864 23-12-2019 22:32:17 5.7 C 33 %
1865 23-12-2019 22:42:17 5.3 C 34 %
1866 23-12-2019 22:52:17 5.5 C 34 %
1867 23-12-2019 23:02:17 5.4 C 33 %
1868 23-12-2019 23:12:17 5.5 C 32 %
1869 23-12-2019 23:22:18 5.4 C 30 %
1870 23-12-2019 23:32:17 5.8 C 30 %
1871 23-12-2019 23:42:17 4.8 C 33 %
1872 23-12-2019 23:52:17 4.8 C 36 %
1873 24-12-2019 00:02:17 5.6 C 35 %
1874 24-12-2019 00:12:17 5.8 C 32 %
1875 24-12-2019 00:22:17 5.7 C 32 %
Sensor: Nr:Datum:Temp:Feuchte:
Aussen-T/F 1876 24-12-2019 00:32:18 6 C 32 %
1877 24-12-2019 00:42:18 6.1 C 31 %
1878 24-12-2019 00:52:17 6.3 C 31 %
1879 24-12-2019 01:02:17 5.6 C 32 %
1880 24-12-2019 01:12:17 5.9 C 32 %
1881 24-12-2019 01:22:17 6.1 C 30 %
1882 24-12-2019 01:32:17 6.3 C 30 %
1883 24-12-2019 01:42:17 5.9 C 31 %
1884 24-12-2019 01:52:17 5.7 C 33 %
1885 24-12-2019 02:02:17 5.7 C 35 %
1886 24-12-2019 02:12:17 5.8 C 35 %
1887 24-12-2019 02:22:17 5.6 C 35 %
1888 24-12-2019 02:32:18 5.5 C 36 %
1889 24-12-2019 02:42:18 5.5 C 36 %
1890 24-12-2019 02:52:17 6.6 C 30 %
1891 24-12-2019 03:02:18 6.7 C 29 %
1892 24-12-2019 03:12:18 6.3 C 30 %
1893 24-12-2019 03:22:17 5.7 C 31 %
1894 24-12-2019 03:32:17 5.5 C 31 %
1895 24-12-2019 03:42:17 5.7 C 31 %
1896 24-12-2019 03:52:17 5 C 32 %
1897 24-12-2019 04:02:17 5 C 38 %
1898 24-12-2019 04:12:17 5.2 C 37 %
1899 24-12-2019 04:22:17 5.2 C 36 %
1900 24-12-2019 04:32:17 4.8 C 37 %
Sensor: Nr:Datum:Temp:Feuchte:
Aussen-T/F 1901 24-12-2019 04:42:17 4.8 C 39 %
1902 24-12-2019 04:52:17 5.3 C 38 %
1903 24-12-2019 05:02:18 5.4 C 35 %
1904 24-12-2019 05:12:18 5.2 C 35 %
1905 24-12-2019 05:22:17 4.7 C 37 %
1906 24-12-2019 05:32:18 5 C 37 %
1907 24-12-2019 05:42:18 4.6 C 36 %
1908 24-12-2019 05:52:17 4.9 C 37 %
1909 24-12-2019 06:02:18 4.3 C 36 %
1910 24-12-2019 06:12:18 4.6 C 39 %
1911 24-12-2019 06:22:17 4.6 C 38 %
1912 24-12-2019 06:32:17 4.6 C 39 %
1913 24-12-2019 06:42:17 4.5 C 38 %
1914 24-12-2019 06:52:17 4.5 C 39 %
1915 24-12-2019 07:02:17 4.8 C 37 %
1916 24-12-2019 07:12:17 5 C 36 %
1917 24-12-2019 07:22:17 5.4 C 34 %
1918 24-12-2019 07:32:17 5.6 C 33 %
1919 24-12-2019 07:42:17 5.6 C 32 %
1920 24-12-2019 07:52:17 5.8 C 32 %
1921 24-12-2019 08:02:17 5.8 C 31 %
1922 24-12-2019 08:12:17 6 C 30 %
1923 24-12-2019 08:22:17 6.2 C 29 %
1924 24-12-2019 08:32:17 6.2 C 30 %
1925 24-12-2019 08:42:17 6.3 C 30 %
Sensor: Nr:Datum:Temp:Feuchte:
Aussen-T/F 1926 24-12-2019 08:52:18 6.4 C 30 %
1927 24-12-2019 09:02:17 6.5 C 29 %
1928 24-12-2019 09:12:17 6.8 C 29 %
1929 24-12-2019 09:22:17 6.8 C 28 %
1930 24-12-2019 09:32:17 6.8 C 29 %
1931 24-12-2019 09:42:17 6.8 C 28 %
1932 24-12-2019 09:52:17 6.5 C 30 %
1933 24-12-2019 10:02:17 6.4 C 30 %
1934 24-12-2019 10:12:17 6.2 C 31 %
1935 24-12-2019 10:22:17 6.2 C 33 %
1936 24-12-2019 10:32:17 6.3 C 37 %
1937 24-12-2019 10:42:17 6.8 C 37 %
1938 24-12-2019 10:52:17 6.7 C 33 %
1939 24-12-2019 11:02:17 6.8 C 35 %
1940 24-12-2019 11:12:17 6.9 C 34 %
1941 24-12-2019 11:22:17 7.5 C 32 %
1942 24-12-2019 11:32:17 8 C 30 %
1943 24-12-2019 11:42:17 8.2 C 29 %
1944 24-12-2019 11:52:18 8 C 29 %
1945 24-12-2019 12:02:17 7.8 C 30 %
1946 24-12-2019 12:12:17 7.6 C 30 %
1947 24-12-2019 12:22:17 8 C 28 %
1948 24-12-2019 12:32:17 8.2 C 27 %
1949 24-12-2019 12:42:17 8.4 C 27 %
1950 24-12-2019 12:52:18 8.9 C 27 %
Sensor: Nr:Datum:Temp:Feuchte:
Aussen-T/F 1951 24-12-2019 13:02:17 9.2 C 25 %
1952 24-12-2019 13:12:17 9.3 C 25 %
1953 24-12-2019 13:22:17 9.3 C 25 %
1954 24-12-2019 13:32:17 9.2 C 26 %
1955 24-12-2019 13:42:17 9.3 C 26 %
1956 24-12-2019 13:52:17 9.3 C 26 %
1957 24-12-2019 14:02:18 9.4 C 25 %
1958 24-12-2019 14:12:18 9.5 C 25 %
1959 24-12-2019 14:22:17 9.6 C 25 %
1960 24-12-2019 14:32:18 9.7 C 25 %
1961 24-12-2019 14:42:18 9.3 C 26 %
1962 24-12-2019 14:52:17 9.2 C 27 %
1963 24-12-2019 15:02:18 9.1 C 27 %
1964 24-12-2019 15:12:18 9.5 C 26 %
1965 24-12-2019 15:22:17 9.8 C 25 %
1966 24-12-2019 15:32:17 10 C 22 %
1967 24-12-2019 15:42:17 10.1 C 20 %
1968 24-12-2019 15:52:17 10.5 C 20 %
1969 24-12-2019 16:02:17 10.1 C 20 %
1970 24-12-2019 16:12:17 10 C 20 %
1971 24-12-2019 16:22:17 10.2 C 20 %
1972 24-12-2019 16:32:17 9.8 C 20 %
1973 24-12-2019 16:42:17 9.7 C 21 %
1974 24-12-2019 16:52:17 10.1 C 20 %
1975 24-12-2019 17:02:17 9.8 C 20 %
Sensor: Nr:Datum:Temp:Feuchte:
Aussen-T/F 1976 24-12-2019 17:12:17 9.4 C 20 %
1977 24-12-2019 17:22:18 9.6 C 20 %
1978 24-12-2019 17:32:17 8.8 C 20 %
1979 24-12-2019 17:42:17 9.1 C 20 %
1980 24-12-2019 17:52:17 9.3 C 20 %
1981 24-12-2019 18:02:17 9 C 20 %
1982 24-12-2019 18:12:17 8.5 C 26 %
1983 24-12-2019 18:22:17 8.9 C 25 %
1984 24-12-2019 18:32:17 8.2 C 28 %
1985 24-12-2019 18:42:17 7.8 C 31 %
1986 24-12-2019 18:52:17 7.5 C 35 %
1987 24-12-2019 19:02:17 7.6 C 31 %
1988 24-12-2019 19:12:17 7.3 C 31 %
1989 24-12-2019 19:22:17 6.7 C 35 %
1990 24-12-2019 19:32:17 6.5 C 40 %
1991 24-12-2019 19:42:17 6.5 C 36 %
1992 24-12-2019 19:52:17 6.2 C 36 %
1993 24-12-2019 20:02:17 6.7 C 35 %
1994 24-12-2019 20:12:17 7.3 C 30 %
1995 24-12-2019 20:22:17 7.2 C 32 %
1996 24-12-2019 20:32:18 7.1 C 30 %
1997 24-12-2019 20:42:18 7.3 C 31 %
1998 24-12-2019 20:52:17 7.3 C 30 %
1999 24-12-2019 21:02:17 7.1 C 31 %
2000 24-12-2019 21:12:17 7.7 C 30 %
Sensor: Nr:Datum:Temp:Feuchte:
Aussen-T/F 2001 24-12-2019 21:22:17 7.4 C 30 %
2002 24-12-2019 21:32:17 7.6 C 30 %
2003 24-12-2019 21:42:17 7.9 C 29 %
2004 24-12-2019 21:52:17 8.1 C 28 %
2005 24-12-2019 22:02:17 8.6 C 26 %
2006 24-12-2019 22:12:17 8.5 C 26 %
2007 24-12-2019 22:22:17 8.3 C 26 %
2008 24-12-2019 22:32:17 8.4 C 26 %
2009 24-12-2019 22:42:17 8.2 C 27 %
2010 24-12-2019 22:52:17 8 C 28 %
2011 24-12-2019 23:02:17 8.4 C 27 %
2012 24-12-2019 23:12:17 8.4 C 27 %
2013 24-12-2019 23:22:17 8.4 C 27 %
2014 24-12-2019 23:32:17 8.5 C 27 %
2015 24-12-2019 23:42:17 8.5 C 27 %
2016 24-12-2019 23:52:17 8.4 C 27 %
2017 25-12-2019 00:02:17 8.4 C 27 %
2018 25-12-2019 00:12:17 8.4 C 27 %
2019 25-12-2019 00:22:17 8.4 C 28 %
2020 25-12-2019 00:32:17 8.3 C 28 %
2021 25-12-2019 00:42:18 8.2 C 29 %
2022 25-12-2019 00:52:17 8.2 C 29 %
2023 25-12-2019 01:02:17 7.8 C 32 %
2024 25-12-2019 01:12:17 7.7 C 33 %
2025 25-12-2019 01:22:17 7.5 C 35 %
Sensor: Nr:Datum:Temp:Feuchte:
Aussen-T/F 2026 25-12-2019 01:32:18 7.3 C 35 %
2027 25-12-2019 01:42:18 7.5 C 35 %
2028 25-12-2019 01:52:17 7.6 C 33 %
2029 25-12-2019 02:02:17 7.7 C 32 %
2030 25-12-2019 02:12:17 8 C 31 %
2031 25-12-2019 02:22:17 7.9 C 31 %
2032 25-12-2019 02:32:18 7.9 C 31 %
2033 25-12-2019 02:42:18 7.9 C 31 %
2034 25-12-2019 02:52:17 7.9 C 31 %
2035 25-12-2019 03:02:17 7.8 C 31 %
2036 25-12-2019 03:12:17 7.9 C 32 %
2037 25-12-2019 03:22:17 8.1 C 31 %
2038 25-12-2019 03:32:17 8.3 C 30 %
2039 25-12-2019 03:42:17 8.2 C 30 %
2040 25-12-2019 03:52:18 8.2 C 30 %
2041 25-12-2019 04:02:17 7.9 C 34 %
2042 25-12-2019 04:12:17 8 C 34 %
2043 25-12-2019 04:22:18 7.9 C 35 %
2044 25-12-2019 04:32:17 7.9 C 36 %
2045 25-12-2019 04:42:17 7.9 C 38 %
2046 25-12-2019 04:52:17 7.9 C 36 %
2047 25-12-2019 05:02:17 7.9 C 37 %
2048 25-12-2019 05:12:17 7.8 C 37 %
2049 25-12-2019 05:22:18 7.6 C 38 %
2050 25-12-2019 05:32:17 8 C 36 %
Sensor: Nr:Datum:Temp:Feuchte:
Aussen-T/F 2051 25-12-2019 05:42:17 7.9 C 35 %
2052 25-12-2019 05:52:17 7.5 C 35 %
2053 25-12-2019 06:02:18 7.5 C 35 %
2054 25-12-2019 06:12:18 7.2 C 36 %
2055 25-12-2019 06:22:17 7.2 C 37 %
2056 25-12-2019 06:32:18 7.3 C 37 %
2057 25-12-2019 06:42:18 7.3 C 36 %
2058 25-12-2019 06:52:17 7.1 C 39 %
2059 25-12-2019 07:02:18 7.3 C 33 %
2060 25-12-2019 07:12:18 7.1 C 32 %
2061 25-12-2019 07:22:17 6.9 C 35 %
2062 25-12-2019 07:32:18 6.8 C 38 %
2063 25-12-2019 07:42:18 6.9 C 38 %
2064 25-12-2019 07:52:17 7 C 35 %
2065 25-12-2019 08:02:18 6.8 C 32 %
2066 25-12-2019 08:12:18 6.4 C 32 %
2067 25-12-2019 08:22:17 6.2 C 33 %
2068 25-12-2019 08:32:17 6.2 C 32 %
2069 25-12-2019 08:42:17 6.5 C 32 %
2070 25-12-2019 08:52:17 6.7 C 31 %
2071 25-12-2019 09:02:17 6.9 C 30 %
2072 25-12-2019 09:12:17 6.9 C 30 %
2073 25-12-2019 09:22:18 6.8 C 30 %
2074 25-12-2019 09:32:17 7.3 C 28 %
2075 25-12-2019 09:42:17 7.3 C 27 %
Sensor: Nr:Datum:Temp:Feuchte:
Aussen-T/F 2076 25-12-2019 09:52:17 7.3 C 27 %
2077 25-12-2019 10:02:17 7.1 C 29 %
2078 25-12-2019 10:12:17 7.3 C 27 %
2079 25-12-2019 10:22:18 7.6 C 26 %
2080 25-12-2019 10:32:17 7.7 C 26 %
2081 25-12-2019 10:42:17 7.8 C 25 %
2082 25-12-2019 10:52:17 7.5 C 26 %
2083 25-12-2019 11:02:17 7.5 C 26 %
2084 25-12-2019 11:12:17 7.5 C 26 %
2085 25-12-2019 11:22:17 7.7 C 26 %
2086 25-12-2019 11:32:17 7.4 C 26 %
2087 25-12-2019 11:42:17 7.4 C 27 %
2088 25-12-2019 11:52:18 7.1 C 28 %
2089 25-12-2019 12:02:17 7.1 C 29 %
2090 25-12-2019 12:12:17 7.6 C 27 %
2091 25-12-2019 12:22:17 7.6 C 27 %
2092 25-12-2019 12:32:17 7.7 C 27 %
2093 25-12-2019 12:42:17 7.8 C 27 %
2094 25-12-2019 12:52:18 7.6 C 27 %
2095 25-12-2019 13:02:17 7.1 C 29 %
2096 25-12-2019 13:12:17 7 C 31 %
2097 25-12-2019 13:22:18 6.9 C 31 %
2098 25-12-2019 13:32:17 7.1 C 30 %
2099 25-12-2019 13:42:17 7 C 30 %
2100 25-12-2019 13:52:17 6.9 C 30 %
Sensor: Nr:Datum:Temp:Feuchte:
Aussen-T/F 2101 25-12-2019 14:02:17 7.1 C 30 %
2102 25-12-2019 14:12:17 7.4 C 29 %
2103 25-12-2019 14:22:18 7.6 C 28 %
2104 25-12-2019 14:32:17 7.7 C 29 %
2105 25-12-2019 14:42:17 7.6 C 29 %
2106 25-12-2019 14:52:17 7.1 C 31 %
2107 25-12-2019 15:02:17 7.1 C 32 %
2108 25-12-2019 15:12:17 7.1 C 30 %
2109 25-12-2019 15:22:18 7.1 C 31 %
2110 25-12-2019 15:32:17 7.4 C 30 %
2111 25-12-2019 15:42:17 7.3 C 31 %
2112 25-12-2019 15:52:17 7.2 C 30 %
2113 25-12-2019 16:02:17 7.2 C 30 %
2114 25-12-2019 16:12:17 6.9 C 31 %
2115 25-12-2019 16:22:17 6.8 C 32 %
2116 25-12-2019 16:32:17 6.7 C 35 %
2117 25-12-2019 16:42:17 6.9 C 32 %
2118 25-12-2019 16:52:17 6.9 C 31 %
2119 25-12-2019 17:02:17 6.8 C 30 %
2120 25-12-2019 17:12:17 6.7 C 30 %
2121 25-12-2019 17:22:18 6.6 C 31 %
2122 25-12-2019 17:32:17 6.2 C 31 %
2123 25-12-2019 17:42:17 5.7 C 35 %
2124 25-12-2019 17:52:18 5.9 C 35 %
2125 25-12-2019 18:02:17 6 C 33 %
Sensor: Nr:Datum:Temp:Feuchte:
Aussen-T/F 2126 25-12-2019 18:12:17 6.1 C 32 %
2127 25-12-2019 18:22:17 6.2 C 33 %
2128 25-12-2019 18:32:17 6.2 C 33 %
2129 25-12-2019 18:42:17 6.2 C 32 %
2130 25-12-2019 18:52:17 6.2 C 32 %
2131 25-12-2019 19:02:17 6 C 33 %
2132 25-12-2019 19:12:17 5.9 C 33 %
2133 25-12-2019 19:22:17 6.1 C 32 %
2134 25-12-2019 19:32:18 6.1 C 32 %
2135 25-12-2019 19:42:18 6 C 33 %
2136 25-12-2019 19:52:17 5.9 C 33 %
2137 25-12-2019 20:02:17 5.8 C 35 %
2138 25-12-2019 20:12:17 5.9 C 35 %
2139 25-12-2019 20:22:18 5.9 C 34 %
2140 25-12-2019 20:32:17 5.8 C 34 %
2141 25-12-2019 20:42:17 5.6 C 37 %
2142 25-12-2019 20:52:17 5.5 C 38 %
2143 25-12-2019 21:02:18 5.5 C 38 %
2144 25-12-2019 21:12:18 5.4 C 40 %
2145 25-12-2019 21:22:17 5.3 C 41 %
2146 25-12-2019 21:32:17 5.3 C 43 %
2147 25-12-2019 21:42:17 5.3 C 42 %
2148 25-12-2019 21:52:17 5.2 C 42 %
2149 25-12-2019 22:02:18 5.2 C 42 %
2150 25-12-2019 22:12:18 5.1 C 43 %
Sensor: Nr:Datum:Temp:Feuchte:
Aussen-T/F 2151 25-12-2019 22:22:17 5.2 C 42 %
2152 25-12-2019 22:32:18 5.1 C 41 %
2153 25-12-2019 22:42:18 5.1 C 42 %
2154 25-12-2019 22:52:17 5.2 C 42 %
2155 25-12-2019 23:02:18 5.2 C 42 %
2156 25-12-2019 23:12:18 5.2 C 42 %
2157 25-12-2019 23:22:17 5.2 C 42 %
2158 25-12-2019 23:32:17 5.1 C 42 %
2159 25-12-2019 23:42:17 4.7 C 42 %
2160 25-12-2019 23:52:17 4.5 C 42 %
2161 26-12-2019 00:02:17 4.6 C 43 %
2162 26-12-2019 00:12:18 4 C 42 %
2163 26-12-2019 00:22:17 3.6 C 42 %
2164 26-12-2019 00:32:18 3.9 C 44 %
2165 26-12-2019 00:42:18 3.9 C 44 %
2166 26-12-2019 00:52:17 4.1 C 43 %
2167 26-12-2019 01:02:18 4.4 C 43 %
2168 26-12-2019 01:12:18 4.3 C 43 %
2169 26-12-2019 01:22:17 4.3 C 43 %
2170 26-12-2019 01:32:17 4.4 C 43 %
2171 26-12-2019 01:42:17 4.4 C 43 %
2172 26-12-2019 01:52:17 4.3 C 42 %
2173 26-12-2019 02:02:18 4.3 C 42 %
2174 26-12-2019 02:12:18 4.4 C 42 %
2175 26-12-2019 02:22:17 4.2 C 42 %
Sensor: Nr:Datum:Temp:Feuchte:
Aussen-T/F 2176 26-12-2019 02:32:17 4 C 42 %
2177 26-12-2019 02:42:17 4 C 42 %
2178 26-12-2019 02:52:17 4.2 C 42 %
2179 26-12-2019 03:02:18 4.2 C 42 %
2180 26-12-2019 03:12:18 4.1 C 42 %
2181 26-12-2019 03:22:17 4.1 C 42 %
2182 26-12-2019 03:32:17 4.1 C 42 %
2183 26-12-2019 03:42:17 4.1 C 42 %
2184 26-12-2019 03:52:17 3.9 C 43 %
2185 26-12-2019 04:02:17 3.6 C 42 %
2186 26-12-2019 04:12:17 3.6 C 42 %
2187 26-12-2019 04:22:18 3.4 C 42 %
2188 26-12-2019 04:32:17 3 C 42 %
2189 26-12-2019 04:42:17 3.1 C 42 %
2190 26-12-2019 04:52:17 3.1 C 43 %
2191 26-12-2019 05:02:17 3.3 C 43 %
2192 26-12-2019 05:12:17 3.5 C 43 %
2193 26-12-2019 05:22:17 3.4 C 43 %
2194 26-12-2019 05:32:18 3.5 C 43 %
2195 26-12-2019 05:42:18 3.4 C 43 %
2196 26-12-2019 05:52:17 3.5 C 43 %
2197 26-12-2019 06:02:17 3.6 C 43 %
2198 26-12-2019 06:12:18 3.6 C 43 %
2199 26-12-2019 06:22:17 3.5 C 43 %
2200 26-12-2019 06:32:18 3.6 C 43 %
Sensor: Nr:Datum:Temp:Feuchte:
Aussen-T/F 2201 26-12-2019 06:42:18 3.5 C 43 %
2202 26-12-2019 06:52:17 3.5 C 43 %
2203 26-12-2019 07:02:18 3.5 C 43 %
2204 26-12-2019 07:12:18 3.5 C 43 %
2205 26-12-2019 07:22:17 3.4 C 43 %
2206 26-12-2019 07:32:17 3.4 C 43 %
2207 26-12-2019 07:42:17 3.4 C 43 %
2208 26-12-2019 07:52:17 3.4 C 43 %
2209 26-12-2019 08:02:18 3.4 C 43 %
2210 26-12-2019 08:12:18 3.4 C 43 %
2211 26-12-2019 08:22:17 3.5 C 43 %
2212 26-12-2019 08:32:17 3.4 C 43 %
2213 26-12-2019 08:42:17 3.4 C 43 %
2214 26-12-2019 08:52:17 3.5 C 43 %
2215 26-12-2019 09:02:17 3.5 C 43 %
2216 26-12-2019 09:12:17 3.5 C 43 %
2217 26-12-2019 09:22:17 3.4 C 42 %
2218 26-12-2019 09:32:17 3.5 C 43 %
2219 26-12-2019 09:42:17 3.6 C 42 %
2220 26-12-2019 09:52:18 3.6 C 42 %
2221 26-12-2019 10:02:17 3.6 C 42 %
2222 26-12-2019 10:12:17 3.6 C 42 %
2223 26-12-2019 10:22:18 3.8 C 42 %
2224 26-12-2019 10:32:17 4 C 41 %
2225 26-12-2019 10:42:17 4.3 C 41 %
Sensor: Nr:Datum:Temp:Feuchte:
Aussen-T/F 2226 26-12-2019 10:52:18 4.5 C 41 %
2227 26-12-2019 11:02:17 4.7 C 41 %
2228 26-12-2019 11:12:17 4.8 C 41 %
2229 26-12-2019 11:22:17 5 C 40 %
2230 26-12-2019 11:32:17 5.4 C 40 %
2231 26-12-2019 11:42:17 5.5 C 39 %
2232 26-12-2019 11:52:17 5.6 C 37 %
2233 26-12-2019 12:02:17 5.7 C 36 %
2234 26-12-2019 12:12:17 5.7 C 36 %
2235 26-12-2019 12:22:17 5.7 C 35 %
2236 26-12-2019 12:32:18 5.9 C 35 %
2237 26-12-2019 12:42:18 6 C 35 %
2238 26-12-2019 12:52:17 6 C 36 %
2239 26-12-2019 13:02:18 5.9 C 36 %
2240 26-12-2019 13:12:18 5.9 C 37 %
2241 26-12-2019 13:22:17 5.8 C 36 %
2242 26-12-2019 13:32:18 5.8 C 36 %
2243 26-12-2019 13:42:18 5.7 C 36 %
2244 26-12-2019 13:52:17 5.7 C 36 %
2245 26-12-2019 14:02:18 5.7 C 36 %
2246 26-12-2019 14:12:18 5.8 C 35 %
2247 26-12-2019 14:22:17 6 C 35 %
2248 26-12-2019 14:32:17 6 C 35 %
2249 26-12-2019 14:42:17 5.7 C 35 %
2250 26-12-2019 14:52:17 5.6 C 36 %
Sensor: Nr:Datum:Temp:Feuchte:
Aussen-T/F 2251 26-12-2019 15:02:17 5.5 C 36 %
2252 26-12-2019 15:12:17 5.4 C 36 %
2253 26-12-2019 15:22:17 5.1 C 38 %
2254 26-12-2019 15:32:17 5 C 37 %
2255 26-12-2019 15:42:17 4.8 C 39 %
2256 26-12-2019 15:52:18 4.8 C 39 %
2257 26-12-2019 16:02:17 4.7 C 38 %
2258 26-12-2019 16:12:17 4.6 C 39 %
2259 26-12-2019 16:22:17 4.5 C 40 %
2260 26-12-2019 16:32:17 4.4 C 41 %
2261 26-12-2019 16:42:18 4.4 C 40 %
2262 26-12-2019 16:53:17 4.3 C 41 %
2263 26-12-2019 17:02:17 4.4 C 40 %
2264 26-12-2019 17:12:17 4.3 C 40 %
2265 26-12-2019 17:22:17 4.3 C 40 %
2266 26-12-2019 17:32:17 4.4 C 40 %
2267 26-12-2019 17:42:17 4.1 C 40 %
2268 26-12-2019 17:52:17 4.1 C 40 %
2269 26-12-2019 18:02:17 4 C 40 %
2270 26-12-2019 18:12:17 4 C 41 %
2271 26-12-2019 18:22:17 4.1 C 41 %
2272 26-12-2019 18:32:17 4.1 C 41 %
2273 26-12-2019 18:42:18 4.1 C 40 %
2274 26-12-2019 18:53:17 4.1 C 40 %
2275 26-12-2019 19:02:17 4 C 40 %
Sensor: Nr:Datum:Temp:Feuchte:
Aussen-T/F 2276 26-12-2019 19:12:17 4 C 41 %
2277 26-12-2019 19:23:17 4 C 41 %
2278 26-12-2019 19:32:17 3.8 C 41 %
2279 26-12-2019 19:42:17 4 C 41 %
2280 26-12-2019 19:53:17 3.8 C 41 %
2281 26-12-2019 20:02:17 3.8 C 42 %
2282 26-12-2019 20:12:17 3.9 C 42 %
2283 26-12-2019 20:23:17 4 C 41 %
2284 26-12-2019 20:32:17 4.1 C 40 %
2285 26-12-2019 20:42:17 4.2 C 39 %
2286 26-12-2019 20:53:17 4.1 C 38 %
2287 26-12-2019 21:02:17 4.3 C 37 %
2288 26-12-2019 21:12:17 4.2 C 38 %
2289 26-12-2019 21:23:17 4.1 C 38 %
2290 26-12-2019 21:32:18 4.1 C 38 %
2291 26-12-2019 21:42:18 4.2 C 37 %
2292 26-12-2019 21:52:17 4.3 C 37 %
2293 26-12-2019 22:02:18 4.1 C 39 %
2294 26-12-2019 22:12:18 4.1 C 41 %
2295 26-12-2019 22:22:17 4.1 C 41 %
2296 26-12-2019 22:33:17 4.1 C 41 %
2297 26-12-2019 22:43:17 4.1 C 42 %
2298 26-12-2019 22:52:17 4.1 C 42 %
2299 26-12-2019 23:03:17 4.1 C 43 %
2300 26-12-2019 23:13:17 4.1 C 43 %
Sensor: Nr:Datum:Temp:Feuchte:
Aussen-T/F 2301 26-12-2019 23:23:17 4 C 43 %
2302 26-12-2019 23:32:17 4 C 43 %
2303 26-12-2019 23:42:17 4 C 42 %
2304 26-12-2019 23:53:17 4 C 42 %
2305 27-12-2019 00:02:17 4 C 42 %
2306 27-12-2019 00:12:17 4 C 42 %
2307 27-12-2019 00:23:17 4 C 42 %
2308 27-12-2019 00:32:17 4 C 42 %
2309 27-12-2019 00:42:18 4.1 C 42 %
2310 27-12-2019 00:53:17 4.1 C 42 %
2311 27-12-2019 01:03:18 4.1 C 42 %
2312 27-12-2019 01:13:18 4.1 C 42 %
2313 27-12-2019 01:23:17 4.1 C 42 %
2314 27-12-2019 01:33:17 4.1 C 42 %
2315 27-12-2019 01:43:17 4.1 C 42 %
2316 27-12-2019 01:53:18 4.1 C 42 %
2317 27-12-2019 02:03:17 4.1 C 42 %
2318 27-12-2019 02:13:17 4.1 C 42 %
2319 27-12-2019 02:23:17 4.1 C 42 %
2320 27-12-2019 02:33:18 4.1 C 42 %
2321 27-12-2019 02:43:19 4.1 C 42 %
2322 27-12-2019 02:53:17 4.2 C 42 %
2323 27-12-2019 03:03:17 4.3 C 42 %
2324 27-12-2019 03:13:17 4.2 C 42 %
2325 27-12-2019 03:23:17 4.3 C 42 %
Sensor: Nr:Datum:Temp:Feuchte:
Aussen-T/F 2326 27-12-2019 03:33:17 4.3 C 42 %
2327 27-12-2019 03:43:18 4.3 C 42 %
2328 27-12-2019 03:53:17 4.3 C 42 %
2329 27-12-2019 04:03:17 4.3 C 42 %
2330 27-12-2019 04:13:17 4.3 C 42 %
2331 27-12-2019 04:23:17 4.3 C 42 %
2332 27-12-2019 04:33:17 4.3 C 42 %
2333 27-12-2019 04:43:17 4.3 C 42 %
2334 27-12-2019 04:53:18 4.4 C 42 %
2335 27-12-2019 05:03:17 4.4 C 42 %
2336 27-12-2019 05:13:17 4.4 C 42 %
2337 27-12-2019 05:23:17 4.4 C 42 %
2338 27-12-2019 05:33:17 4.3 C 42 %
2339 27-12-2019 05:43:17 4.4 C 42 %
2340 27-12-2019 05:53:17 4.4 C 42 %
2341 27-12-2019 06:03:17 4.4 C 42 %
2342 27-12-2019 06:13:17 4.4 C 42 %
2343 27-12-2019 06:23:17 4.4 C 42 %
2344 27-12-2019 06:33:17 4.4 C 42 %
2345 27-12-2019 06:43:17 4.4 C 42 %
2346 27-12-2019 06:53:17 4.4 C 42 %
2347 27-12-2019 07:03:17 4.5 C 42 %
2348 27-12-2019 07:13:17 4.4 C 42 %
2349 27-12-2019 07:23:18 4.4 C 42 %
2350 27-12-2019 07:33:17 4.4 C 42 %
Sensor: Nr:Datum:Temp:Feuchte:
Aussen-T/F 2351 27-12-2019 07:43:17 4.4 C 42 %
2352 27-12-2019 07:53:17 4.3 C 42 %
2353 27-12-2019 08:03:17 4.3 C 42 %
2354 27-12-2019 08:13:17 4.3 C 42 %
2355 27-12-2019 08:23:17 4.3 C 42 %
2356 27-12-2019 08:33:17 4.3 C 42 %
2357 27-12-2019 08:43:17 4.3 C 42 %
2358 27-12-2019 08:53:18 4.3 C 42 %
2359 27-12-2019 09:03:17 4.4 C 42 %
2360 27-12-2019 09:13:17 4.4 C 42 %
2361 27-12-2019 09:23:17 4.3 C 42 %
2362 27-12-2019 09:33:17 4.5 C 42 %
2363 27-12-2019 09:43:17 4.6 C 42 %
2364 27-12-2019 09:53:17 4.8 C 41 %
2365 27-12-2019 10:03:17 4.9 C 41 %
2366 27-12-2019 10:13:17 4.8 C 40 %
2367 27-12-2019 10:23:17 4.8 C 40 %
2368 27-12-2019 10:33:18 4.9 C 40 %
2369 27-12-2019 10:43:18 4.9 C 40 %
2370 27-12-2019 10:53:17 5 C 38 %
2371 27-12-2019 11:03:18 5 C 38 %
2372 27-12-2019 11:13:18 5.1 C 37 %
2373 27-12-2019 11:23:17 5.1 C 37 %
2374 27-12-2019 11:33:17 5.2 C 36 %
2375 27-12-2019 11:43:17 5.7 C 33 %
Sensor: Nr:Datum:Temp:Feuchte:
Aussen-T/F 2376 27-12-2019 11:53:17 6 C 31 %
2377 27-12-2019 12:03:17 6.1 C 31 %
2378 27-12-2019 12:13:17 5.9 C 31 %
2379 27-12-2019 12:23:17 5.9 C 31 %
2380 27-12-2019 12:33:17 6 C 31 %
2381 27-12-2019 12:43:17 6 C 31 %
2382 27-12-2019 12:53:17 5.9 C 31 %
2383 27-12-2019 13:03:17 5.7 C 31 %
2384 27-12-2019 13:13:17 5.7 C 31 %
2385 27-12-2019 13:23:17 5.6 C 31 %
2386 27-12-2019 13:33:17 5.7 C 31 %
2387 27-12-2019 13:43:17 5.7 C 30 %
2388 27-12-2019 13:53:17 5.8 C 30 %
2389 27-12-2019 14:03:18 5.9 C 30 %
2390 27-12-2019 14:13:18 6.1 C 29 %
2391 27-12-2019 14:23:18 5.9 C 29 %
2392 27-12-2019 14:33:17 6 C 30 %
2393 27-12-2019 14:43:17 5.9 C 28 %
2394 27-12-2019 14:53:18 5.8 C 26 %
2395 27-12-2019 15:03:17 5.7 C 27 %
2396 27-12-2019 15:13:17 5.7 C 28 %
2397 27-12-2019 15:23:18 5.6 C 29 %
2398 27-12-2019 15:33:17 5.6 C 29 %
2399 27-12-2019 15:43:17 5.4 C 30 %
2400 27-12-2019 15:53:17 5.3 C 31 %
Sensor: Nr:Datum:Temp:Feuchte:
Aussen-T/F 2401 27-12-2019 16:03:17 5.1 C 33 %
2402 27-12-2019 16:13:17 4.9 C 33 %
2403 27-12-2019 16:23:17 4.9 C 33 %
2404 27-12-2019 16:33:17 4.8 C 34 %
2405 27-12-2019 16:43:17 4.7 C 33 %
2406 27-12-2019 16:53:17 4.6 C 34 %
2407 27-12-2019 17:03:17 4.5 C 34 %
2408 27-12-2019 17:13:17 4.5 C 35 %
2409 27-12-2019 17:23:17 4.5 C 33 %
2410 27-12-2019 17:33:18 4.5 C 34 %
2411 27-12-2019 17:43:18 4.5 C 34 %
2412 27-12-2019 17:53:17 4.4 C 34 %
2413 27-12-2019 18:03:18 4.4 C 33 %
2414 27-12-2019 18:13:18 4.4 C 33 %
2415 27-12-2019 18:23:17 4.4 C 32 %
2416 27-12-2019 18:33:18 4.4 C 34 %
2417 27-12-2019 18:43:18 4.3 C 34 %
2418 27-12-2019 18:53:17 4.2 C 33 %
2419 27-12-2019 19:03:17 4.2 C 33 %
2420 27-12-2019 19:13:17 4.2 C 33 %
2421 27-12-2019 19:23:17 4.3 C 32 %
2422 27-12-2019 19:33:17 4.2 C 33 %
2423 27-12-2019 19:43:17 4.1 C 34 %
2424 27-12-2019 19:53:18 3.9 C 35 %
2425 27-12-2019 20:03:17 3.8 C 34 %
Sensor: Nr:Datum:Temp:Feuchte:
Aussen-T/F 2426 27-12-2019 20:13:17 4 C 32 %
2427 27-12-2019 20:23:17 4 C 32 %
2428 27-12-2019 20:33:18 4 C 32 %
2429 27-12-2019 20:43:18 4 C 31 %
2430 27-12-2019 20:53:17 4.1 C 31 %
2431 27-12-2019 21:03:18 4.1 C 31 %
2432 27-12-2019 21:13:18 4 C 31 %
2433 27-12-2019 21:23:17 4 C 31 %
2434 27-12-2019 21:33:18 3.9 C 33 %
2435 27-12-2019 21:43:18 3.9 C 32 %
2436 27-12-2019 21:53:17 3.7 C 32 %
2437 27-12-2019 22:03:17 3.6 C 32 %
2438 27-12-2019 22:13:17 3.3 C 32 %
2439 27-12-2019 22:23:17 3.2 C 32 %
2440 27-12-2019 22:33:17 2.7 C 33 %
2441 27-12-2019 22:43:17 2.2 C 34 %
2442 27-12-2019 22:53:17 2 C 35 %
2443 27-12-2019 23:03:18 1.7 C 38 %
2444 27-12-2019 23:13:18 1.3 C 39 %
2445 27-12-2019 23:23:17 1.2 C 41 %
2446 27-12-2019 23:33:17 0.9 C 42 %
2447 27-12-2019 23:43:17 0.8 C 41 %
2448 27-12-2019 23:53:17 0.7 C 41 %
2449 28-12-2019 00:03:17 0.5 C 40 %
2450 28-12-2019 00:13:17 0.4 C 41 %
Sensor: Nr:Datum:Temp:Feuchte:
Aussen-T/F 2451 28-12-2019 00:23:18 0.4 C 41 %
2452 28-12-2019 00:33:17 0.3 C 41 %
2453 28-12-2019 00:43:17 0.3 C 41 %
2454 28-12-2019 00:53:17 0.2 C 40 %
2455 28-12-2019 01:03:17 0.1 C 40 %
2456 28-12-2019 01:13:17 -0.2 C 43 %
2457 28-12-2019 01:23:17 -0.5 C 43 %
2458 28-12-2019 01:33:17 -0.3 C 44 %
2459 28-12-2019 01:43:17 -0.7 C 42 %
2460 28-12-2019 01:53:17 -1.1 C 43 %
2461 28-12-2019 02:03:17 -1.3 C 45 %
2462 28-12-2019 02:13:17 -1.5 C 44 %
2463 28-12-2019 02:23:17 -1.7 C 44 %
2464 28-12-2019 02:33:18 -1.5 C 45 %
2465 28-12-2019 02:43:18 -1.5 C 45 %
2466 28-12-2019 02:53:17 -1.6 C 45 %
2467 28-12-2019 03:03:17 -1.9 C 45 %
2468 28-12-2019 03:13:18 -1.7 C 45 %
2469 28-12-2019 03:23:17 -2.1 C 45 %
2470 28-12-2019 03:33:17 -2.1 C 45 %
2471 28-12-2019 03:43:17 -2.1 C 45 %
2472 28-12-2019 03:53:18 -2.4 C 45 %
2473 28-12-2019 04:03:17 -2.4 C 45 %
2474 28-12-2019 04:13:17 -2.4 C 45 %
2475 28-12-2019 04:23:17 -2.3 C 45 %
Sensor: Nr:Datum:Temp:Feuchte:
Aussen-T/F 2476 28-12-2019 04:33:17 -2.4 C 45 %
2477 28-12-2019 04:43:18 -2.3 C 45 %
2478 28-12-2019 04:53:17 -2.4 C 45 %
2479 28-12-2019 05:03:18 -2.6 C 44 %
2480 28-12-2019 05:13:18 -2.7 C 44 %
2481 28-12-2019 05:23:17 -2.5 C 45 %
2482 28-12-2019 05:33:18 -2.5 C 45 %
2483 28-12-2019 05:43:18 -2.1 C 45 %
2484 28-12-2019 05:53:17 -2.3 C 45 %
2485 28-12-2019 06:03:17 -1.8 C 45 %
2486 28-12-2019 06:13:18 -2.1 C 44 %
2487 28-12-2019 06:23:17 -2.2 C 43 %
2488 28-12-2019 06:33:17 -2 C 44 %
2489 28-12-2019 06:43:18 -1.9 C 44 %
2490 28-12-2019 06:53:17 -2.1 C 43 %
2491 28-12-2019 07:03:18 -2 C 43 %
2492 28-12-2019 07:13:18 -2.3 C 43 %
2493 28-12-2019 07:23:17 -2.8 C 42 %
2494 28-12-2019 07:33:17 -2.3 C 43 %
2495 28-12-2019 07:43:17 -2.4 C 43 %
2496 28-12-2019 07:53:17 -2.2 C 44 %
2497 28-12-2019 08:03:17 -2.6 C 43 %
2498 28-12-2019 08:13:17 -3 C 42 %
2499 28-12-2019 08:23:18 -3.1 C 42 %
2500 28-12-2019 08:33:17 -3.2 C 42 %
Sensor: Nr:Datum:Temp:Feuchte:
Aussen-T/F 2501 28-12-2019 08:43:17 -3.2 C 42 %
2502 28-12-2019 08:53:17 -2.9 C 43 %
2503 28-12-2019 09:03:18 -2.9 C 43 %
2504 28-12-2019 09:13:18 -2.8 C 43 %
2505 28-12-2019 09:23:17 -2.7 C 43 %
2506 28-12-2019 09:33:17 -2.5 C 43 %
2507 28-12-2019 09:43:17 -1.9 C 45 %
2508 28-12-2019 09:53:17 -1.7 C 45 %
2509 28-12-2019 10:03:17 -1.6 C 45 %
2510 28-12-2019 10:13:17 -1.4 C 45 %
2511 28-12-2019 10:23:17 -1.5 C 45 %
2512 28-12-2019 10:33:18 -1.3 C 45 %
2513 28-12-2019 10:43:18 -1.3 C 45 %
2514 28-12-2019 10:53:17 -1.1 C 45 %
2515 28-12-2019 11:03:18 -1 C 44 %
2516 28-12-2019 11:13:18 -0.9 C 44 %
2517 28-12-2019 11:23:17 -0.6 C 44 %
2518 28-12-2019 11:33:17 -0.5 C 43 %
2519 28-12-2019 11:43:18 -0.3 C 42 %
2520 28-12-2019 11:53:17 -0.2 C 42 %
2521 28-12-2019 12:03:17 -0.2 C 41 %
2522 28-12-2019 12:13:17 0 C 41 %
2523 28-12-2019 12:23:17 0.2 C 41 %
2524 28-12-2019 12:33:17 0.3 C 41 %
2525 28-12-2019 12:43:18 0.4 C 40 %
Sensor: Nr:Datum:Temp:Feuchte:
Aussen-T/F 2526 28-12-2019 12:53:17 0.5 C 40 %
2527 28-12-2019 13:03:18 0.7 C 40 %
2528 28-12-2019 13:13:18 0.8 C 40 %
2529 28-12-2019 13:23:17 0.8 C 40 %
2530 28-12-2019 13:33:17 0.9 C 40 %
2531 28-12-2019 13:43:17 0.8 C 40 %
2532 28-12-2019 13:53:17 0.6 C 40 %
2533 28-12-2019 14:03:17 0.6 C 41 %
2534 28-12-2019 14:13:17 0.7 C 41 %
2535 28-12-2019 14:23:17 0.8 C 40 %
2536 28-12-2019 14:33:17 0.7 C 40 %
2537 28-12-2019 14:43:17 0.6 C 40 %
2538 28-12-2019 14:53:17 0.5 C 40 %
2539 28-12-2019 15:03:17 0.5 C 40 %
2540 28-12-2019 15:13:18 0.5 C 40 %
2541 28-12-2019 15:23:17 0.2 C 40 %
2542 28-12-2019 15:33:17 0.4 C 40 %
2543 28-12-2019 15:43:17 0.3 C 39 %
2544 28-12-2019 15:53:18 0.4 C 39 %
2545 28-12-2019 16:03:17 0.3 C 38 %
2546 28-12-2019 16:13:17 0.2 C 38 %
2547 28-12-2019 16:23:17 0 C 39 %
2548 28-12-2019 16:33:17 0 C 39 %
2549 28-12-2019 16:43:17 -0.1 C 38 %
2550 28-12-2019 16:53:17 -0.3 C 39 %
Sensor: Nr:Datum:Temp:Feuchte:
Aussen-T/F 2551 28-12-2019 17:03:17 -0.4 C 39 %
2552 28-12-2019 17:13:17 -0.4 C 40 %
2553 28-12-2019 17:23:17 -0.5 C 40 %
2554 28-12-2019 17:33:18 -0.6 C 40 %
2555 28-12-2019 17:43:18 -0.7 C 41 %
2556 28-12-2019 17:53:17 -1.3 C 41 %
2557 28-12-2019 18:03:17 -1.2 C 44 %
2558 28-12-2019 18:13:17 -1.1 C 43 %
2559 28-12-2019 18:23:17 -1.1 C 43 %
2560 28-12-2019 18:33:17 -0.9 C 43 %
2561 28-12-2019 18:43:17 -1.2 C 43 %
2562 28-12-2019 18:53:17 -0.9 C 43 %
2563 28-12-2019 19:03:17 -1.2 C 42 %
2564 28-12-2019 19:13:18 -1.7 C 42 %
2565 28-12-2019 19:23:17 -1.9 C 43 %
2566 28-12-2019 19:33:18 -1.9 C 44 %
2567 28-12-2019 19:43:18 -1.9 C 44 %
2568 28-12-2019 19:53:17 -1.8 C 44 %
2569 28-12-2019 20:03:17 -1.9 C 44 %
2570 28-12-2019 20:13:17 -1.7 C 45 %
2571 28-12-2019 20:23:17 -1.2 C 45 %
2572 28-12-2019 20:33:18 -1.2 C 43 %
2573 28-12-2019 20:43:18 -1.4 C 43 %
2574 28-12-2019 20:53:18 -1.2 C 44 %
2575 28-12-2019 21:03:17 -1.6 C 43 %
Sensor: Nr:Datum:Temp:Feuchte:
Aussen-T/F 2576 28-12-2019 21:13:17 -1.3 C 44 %
2577 28-12-2019 21:23:17 -1.4 C 41 %
2578 28-12-2019 21:33:17 -1.8 C 41 %
2579 28-12-2019 21:43:18 -1.6 C 43 %
2580 28-12-2019 21:53:17 -1.7 C 42 %
2581 28-12-2019 22:03:18 -1.7 C 42 %
2582 28-12-2019 22:13:18 -2.2 C 41 %
2583 28-12-2019 22:23:17 -2.3 C 42 %
2584 28-12-2019 22:33:17 -2.3 C 42 %
2585 28-12-2019 22:43:17 -2.5 C 42 %
2586 28-12-2019 22:53:17 -2.2 C 43 %
2587 28-12-2019 23:03:17 -2.5 C 42 %
2588 28-12-2019 23:13:17 -2.3 C 43 %
2589 28-12-2019 23:23:17 -2.3 C 43 %
2590 28-12-2019 23:33:17 -2.7 C 42 %
2591 28-12-2019 23:43:17 -2.6 C 43 %
2592 28-12-2019 23:53:17 -2.9 C 42 %
2593 29-12-2019 00:03:18 -2.6 C 43 %
2594 29-12-2019 00:13:18 -2.9 C 43 %
2595 29-12-2019 00:23:17 -3.1 C 42 %
2596 29-12-2019 00:33:17 -3.2 C 43 %
2597 29-12-2019 00:43:17 -3.1 C 43 %
2598 29-12-2019 00:53:17 -3.1 C 43 %
2599 29-12-2019 01:03:17 -3.3 C 42 %
2600 29-12-2019 01:13:17 -3.3 C 43 %
Sensor: Nr:Datum:Temp:Feuchte:
Aussen-T/F 2601 29-12-2019 01:23:17 -3.5 C 42 %
2602 29-12-2019 01:33:17 -3.7 C 42 %
2603 29-12-2019 01:43:17 -3 C 44 %
2604 29-12-2019 01:53:17 -3.5 C 42 %
2605 29-12-2019 02:03:17 -3.7 C 41 %
2606 29-12-2019 02:13:17 -3.8 C 42 %
2607 29-12-2019 02:23:17 -3.3 C 43 %
2608 29-12-2019 02:33:17 -3.7 C 41 %
2609 29-12-2019 02:43:17 -3.7 C 42 %
2610 29-12-2019 02:53:18 -3.8 C 41 %
2611 29-12-2019 03:03:17 -4 C 41 %
2612 29-12-2019 03:13:17 -4 C 42 %
2613 29-12-2019 03:23:17 -4 C 41 %
2614 29-12-2019 03:33:17 -4.1 C 41 %
2615 29-12-2019 03:43:17 -4.1 C 41 %
2616 29-12-2019 03:53:18 -4 C 42 %
2617 29-12-2019 04:03:17 -4.2 C 41 %
2618 29-12-2019 04:13:17 -3.9 C 42 %
2619 29-12-2019 04:23:17 -4.1 C 41 %
2620 29-12-2019 04:33:17 -4.1 C 41 %
2621 29-12-2019 04:43:17 -4.4 C 41 %
2622 29-12-2019 04:53:17 -4.2 C 41 %
2623 29-12-2019 05:03:17 -4.3 C 41 %
2624 29-12-2019 05:13:17 -4.5 C 41 %
2625 29-12-2019 05:23:17 -4.5 C 41 %
Sensor: Nr:Datum:Temp:Feuchte:
Aussen-T/F 2626 29-12-2019 05:33:18 -4.4 C 41 %
2627 29-12-2019 05:43:18 -4.5 C 41 %
2628 29-12-2019 05:53:17 -4.7 C 41 %
2629 29-12-2019 06:03:17 -4.6 C 41 %
2630 29-12-2019 06:13:17 -4.7 C 41 %
2631 29-12-2019 06:23:17 -4.8 C 41 %
2632 29-12-2019 06:33:17 -4.8 C 41 %
2633 29-12-2019 06:43:17 -4.8 C 41 %
2634 29-12-2019 06:53:17 -4.8 C 41 %
2635 29-12-2019 07:03:17 -4.9 C 41 %
2636 29-12-2019 07:13:17 -4.9 C 41 %
2637 29-12-2019 07:23:17 -5 C 41 %
2638 29-12-2019 07:33:17 -4.5 C 42 %
2639 29-12-2019 07:43:17 -4.7 C 41 %
2640 29-12-2019 07:53:17 -4.7 C 41 %
2641 29-12-2019 08:03:17 -4.4 C 42 %
2642 29-12-2019 08:13:17 -4.3 C 42 %
2643 29-12-2019 08:23:18 -3.9 C 43 %
2644 29-12-2019 08:33:17 -4.1 C 41 %
2645 29-12-2019 08:43:17 -4.3 C 41 %
2646 29-12-2019 08:53:17 -4.5 C 40 %
2647 29-12-2019 09:03:17 -4.1 C 42 %
2648 29-12-2019 09:13:17 -3.9 C 42 %
2649 29-12-2019 09:23:18 -4 C 41 %
2650 29-12-2019 09:33:17 -4.1 C 41 %
Sensor: Nr:Datum:Temp:Feuchte:
Aussen-T/F 2651 29-12-2019 09:43:17 -4 C 41 %
2652 29-12-2019 09:53:17 -4 C 41 %
2653 29-12-2019 10:03:18 -4 C 40 %
2654 29-12-2019 10:13:18 -3.9 C 41 %
2655 29-12-2019 10:23:17 -3.5 C 42 %
2656 29-12-2019 10:33:17 -3.3 C 42 %
2657 29-12-2019 10:43:17 -3.1 C 42 %
2658 29-12-2019 10:53:17 -2.6 C 43 %
2659 29-12-2019 11:03:17 -2.1 C 43 %
2660 29-12-2019 11:13:17 -1.8 C 42 %
2661 29-12-2019 11:23:17 -1.4 C 43 %
2662 29-12-2019 11:33:17 -1.3 C 42 %
2663 29-12-2019 11:43:18 -0.8 C 43 %
2664 29-12-2019 11:53:17 -0.4 C 42 %
2665 29-12-2019 12:03:18 -0.5 C 41 %
2666 29-12-2019 12:13:18 -0.3 C 41 %
2667 29-12-2019 12:23:17 0.1 C 40 %
2668 29-12-2019 12:33:17 0.3 C 40 %
2669 29-12-2019 12:43:17 0.5 C 40 %
2670 29-12-2019 12:53:17 0.4 C 40 %
2671 29-12-2019 13:03:17 0.7 C 38 %
2672 29-12-2019 13:13:17 1 C 37 %
2673 29-12-2019 13:23:17 1 C 37 %
2674 29-12-2019 13:33:18 1.4 C 36 %
2675 29-12-2019 13:43:18 1.4 C 38 %
Sensor: Nr:Datum:Temp:Feuchte:
Aussen-T/F 2676 29-12-2019 13:53:17 1.5 C 37 %
2677 29-12-2019 14:03:17 1.5 C 36 %
2678 29-12-2019 14:13:17 1.4 C 37 %
2679 29-12-2019 14:23:17 1.7 C 36 %
2680 29-12-2019 14:33:18 1.9 C 36 %
2681 29-12-2019 14:43:18 2.2 C 34 %
2682 29-12-2019 14:53:17 2.1 C 33 %
2683 29-12-2019 15:03:17 1.9 C 34 %
2684 29-12-2019 15:13:18 2 C 31 %
2685 29-12-2019 15:23:17 2 C 27 %
2686 29-12-2019 15:33:17 1.9 C 30 %
2687 29-12-2019 15:43:17 1.5 C 32 %
2688 29-12-2019 15:53:18 1.1 C 32 %
2689 29-12-2019 16:03:17 0.5 C 35 %
2690 29-12-2019 16:13:17 0.2 C 38 %
2691 29-12-2019 16:23:17 0.2 C 39 %
2692 29-12-2019 16:33:18 -0.3 C 39 %
2693 29-12-2019 16:43:18 -0.1 C 40 %
2694 29-12-2019 16:53:17 -0.2 C 40 %
2695 29-12-2019 17:03:17 -0.2 C 40 %
2696 29-12-2019 17:13:17 -0.3 C 39 %
2697 29-12-2019 17:23:17 -0.3 C 37 %
2698 29-12-2019 17:33:17 -0.3 C 37 %
2699 29-12-2019 17:43:17 -0.1 C 36 %
2700 29-12-2019 17:53:17 -0.2 C 38 %
Sensor: Nr:Datum:Temp:Feuchte:
Aussen-T/F 2701 29-12-2019 18:03:17 -0.1 C 37 %
2702 29-12-2019 18:13:17 0.1 C 37 %
2703 29-12-2019 18:23:17 0.2 C 36 %
2704 29-12-2019 18:33:17 -0.2 C 38 %
2705 29-12-2019 18:43:17 -0.5 C 40 %
2706 29-12-2019 18:53:17 -0.8 C 40 %
2707 29-12-2019 19:03:17 -0.5 C 41 %
2708 29-12-2019 19:13:17 -0.7 C 38 %
2709 29-12-2019 19:23:18 -0.6 C 37 %
2710 29-12-2019 19:33:18 -0.6 C 35 %
2711 29-12-2019 19:43:18 -1 C 35 %
2712 29-12-2019 19:53:17 -1.1 C 36 %
2713 29-12-2019 20:03:18 -0.9 C 34 %
2714 29-12-2019 20:13:18 -1.2 C 36 %
2715 29-12-2019 20:23:17 -0.7 C 35 %
2716 29-12-2019 20:33:17 -1.3 C 37 %
2717 29-12-2019 20:43:17 -0.9 C 39 %
2718 29-12-2019 20:53:17 -1.5 C 39 %
2719 29-12-2019 21:03:17 -1.2 C 38 %
2720 29-12-2019 21:13:17 -1.8 C 37 %
2721 29-12-2019 21:23:17 -1.8 C 40 %
2722 29-12-2019 21:33:18 -1.8 C 41 %
2723 29-12-2019 21:43:18 -2.1 C 42 %
2724 29-12-2019 21:53:17 -2.3 C 42 %
2725 29-12-2019 22:03:17 -2.2 C 43 %
Sensor: Nr:Datum:Temp:Feuchte:
Aussen-T/F 2726 29-12-2019 22:13:17 -2.1 C 43 %
2727 29-12-2019 22:23:17 -2.4 C 42 %
2728 29-12-2019 22:33:17 -2.7 C 42 %
2729 29-12-2019 22:43:18 -2.7 C 43 %
2730 29-12-2019 22:53:17 -2.7 C 43 %
2731 29-12-2019 23:03:17 -2.8 C 43 %
2732 29-12-2019 23:13:17 -2.7 C 44 %
2733 29-12-2019 23:23:17 -2.8 C 43 %
2734 29-12-2019 23:33:18 -3 C 43 %
2735 29-12-2019 23:43:18 -3 C 43 %
2736 29-12-2019 23:53:17 -3 C 42 %
2737 30-12-2019 00:03:17 -3 C 42 %
2738 30-12-2019 00:13:17 -3.1 C 41 %
2739 30-12-2019 00:23:17 -3.1 C 41 %
2740 30-12-2019 00:33:17 -3 C 42 %
2741 30-12-2019 00:43:17 -3.2 C 42 %
2742 30-12-2019 00:53:17 -3.2 C 42 %
2743 30-12-2019 01:03:17 -3.2 C 42 %
2744 30-12-2019 01:13:18 -3.1 C 44 %
2745 30-12-2019 01:23:17 -3.1 C 43 %
2746 30-12-2019 01:33:18 -3.2 C 42 %
2747 30-12-2019 01:43:18 -3.4 C 42 %
2748 30-12-2019 01:53:17 -3.5 C 42 %
2749 30-12-2019 02:03:17 -3.2 C 43 %
2750 30-12-2019 02:13:17 -3.4 C 43 %
Sensor: Nr:Datum:Temp:Feuchte:
Aussen-T/F 2751 30-12-2019 02:23:17 -3.4 C 43 %
2752 30-12-2019 02:33:18 -3.4 C 43 %
2753 30-12-2019 02:43:18 -3.4 C 43 %
2754 30-12-2019 02:53:17 -3.4 C 43 %
2755 30-12-2019 03:03:17 -3.3 C 43 %
2756 30-12-2019 03:13:17 -3.4 C 43 %
2757 30-12-2019 03:23:17 -3.1 C 43 %
2758 30-12-2019 03:33:18 -3.2 C 43 %
2759 30-12-2019 03:43:18 -3.3 C 43 %
2760 30-12-2019 03:53:17 -3.5 C 43 %
2761 30-12-2019 04:03:17 -3.7 C 42 %
2762 30-12-2019 04:13:17 -3.8 C 42 %
2763 30-12-2019 04:23:17 -3.8 C 42 %
2764 30-12-2019 04:33:17 -3.9 C 42 %
2765 30-12-2019 04:43:17 -3.9 C 42 %
2766 30-12-2019 04:53:17 -4 C 42 %
2767 30-12-2019 05:03:17 -3.9 C 42 %
2768 30-12-2019 05:13:17 -3.8 C 42 %
2769 30-12-2019 05:23:17 -3.9 C 42 %
2770 30-12-2019 05:33:17 -3.7 C 43 %
2771 30-12-2019 05:43:17 -3.8 C 43 %
2772 30-12-2019 05:53:18 -4 C 42 %
2773 30-12-2019 06:03:17 -4 C 42 %
2774 30-12-2019 06:13:17 -4 C 42 %
2775 30-12-2019 06:23:17 -3.9 C 42 %
Sensor: Nr:Datum:Temp:Feuchte:
Aussen-T/F 2776 30-12-2019 06:33:17 -3.7 C 43 %
2777 30-12-2019 06:43:17 -3.9 C 42 %
2778 30-12-2019 06:53:17 -4 C 42 %
2779 30-12-2019 07:03:17 -4 C 42 %
2780 30-12-2019 07:13:17 -4.2 C 41 %
2781 30-12-2019 07:23:17 -4.4 C 42 %
2782 30-12-2019 07:33:18 -4.4 C 41 %
2783 30-12-2019 07:43:18 -4.4 C 42 %
2784 30-12-2019 07:53:17 -4.2 C 42 %
2785 30-12-2019 08:03:17 -4.4 C 41 %
2786 30-12-2019 08:13:17 -4.3 C 42 %
2787 30-12-2019 08:23:17 -4.4 C 42 %
2788 30-12-2019 08:33:17 -4.5 C 41 %
2789 30-12-2019 08:43:17 -4 C 43 %
2790 30-12-2019 08:53:17 -4.2 C 41 %
2791 30-12-2019 09:03:18 -4.1 C 42 %
2792 30-12-2019 09:13:18 -3.9 C 42 %
2793 30-12-2019 09:23:17 -3.8 C 42 %
2794 30-12-2019 09:33:17 -3.6 C 43 %
2795 30-12-2019 09:43:17 -3.7 C 42 %
2796 30-12-2019 09:53:17 -3.7 C 42 %
2797 30-12-2019 10:03:17 -3.5 C 42 %
2798 30-12-2019 10:13:17 -3.3 C 43 %
2799 30-12-2019 10:23:17 -3.3 C 42 %
2800 30-12-2019 10:33:17 -3.3 C 42 %
Sensor: Nr:Datum:Temp:Feuchte:
Aussen-T/F 2801 30-12-2019 10:43:17 -3 C 43 %
2802 30-12-2019 10:53:17 -2.9 C 42 %
2803 30-12-2019 11:03:17 -2.9 C 42 %
2804 30-12-2019 11:13:17 -2.8 C 42 %
2805 30-12-2019 11:23:17 -2.4 C 43 %
2806 30-12-2019 11:33:17 -2.1 C 42 %
2807 30-12-2019 11:43:17 -2 C 41 %
2808 30-12-2019 11:53:18 -2.1 C 40 %
2809 30-12-2019 12:03:17 -1.7 C 41 %
2810 30-12-2019 12:13:17 -1.5 C 40 %
2811 30-12-2019 12:23:17 -1.6 C 40 %
2812 30-12-2019 12:33:17 -1.4 C 41 %
2813 30-12-2019 12:43:17 -0.7 C 39 %
2814 30-12-2019 12:53:17 -0.8 C 39 %
2815 30-12-2019 13:03:17 -0.8 C 38 %
2816 30-12-2019 13:13:17 -1 C 40 %
2817 30-12-2019 13:23:17 -1 C 41 %
2818 30-12-2019 13:33:17 -1 C 42 %
2819 30-12-2019 13:43:17 -0.6 C 42 %
2820 30-12-2019 13:53:17 -0.2 C 41 %
2821 30-12-2019 14:03:17 0.3 C 37 %
2822 30-12-2019 14:13:17 0.1 C 35 %
2823 30-12-2019 14:23:17 0.6 C 35 %
2824 30-12-2019 14:33:17 0.5 C 35 %
2825 30-12-2019 14:43:17 1 C 32 %
Sensor: Nr:Datum:Temp:Feuchte:
Aussen-T/F 2826 30-12-2019 14:53:17 0.6 C 35 %
2827 30-12-2019 15:03:17 0.9 C 36 %
2828 30-12-2019 15:13:17 1.1 C 33 %
2829 30-12-2019 15:23:17 0.6 C 35 %
2830 30-12-2019 15:33:18 0.6 C 36 %
2831 30-12-2019 15:43:18 0.7 C 35 %
2832 30-12-2019 15:53:17 1.6 C 32 %
2833 30-12-2019 16:03:18 1.7 C 32 %
2834 30-12-2019 16:13:18 1.9 C 31 %
2835 30-12-2019 16:23:18 1.6 C 33 %
2836 30-12-2019 16:33:17 1.1 C 35 %
2837 30-12-2019 16:43:17 0.8 C 37 %
2838 30-12-2019 16:53:17 0.6 C 40 %
2839 30-12-2019 17:03:17 0.7 C 40 %
2840 30-12-2019 17:13:17 0.7 C 40 %
2841 30-12-2019 17:23:18 0.6 C 40 %
2842 30-12-2019 17:33:17 0.5 C 40 %
2843 30-12-2019 17:43:17 0.5 C 40 %
2844 30-12-2019 17:53:17 0.5 C 37 %
2845 30-12-2019 18:03:17 0.3 C 36 %
2846 30-12-2019 18:13:17 -0.3 C 36 %
2847 30-12-2019 18:23:18 -0.7 C 37 %
2848 30-12-2019 18:33:18 -0.4 C 36 %
2849 30-12-2019 18:43:18 -0.2 C 36 %
2850 30-12-2019 18:53:17 -0.6 C 34 %
Sensor: Nr:Datum:Temp:Feuchte:
Aussen-T/F 2851 30-12-2019 19:03:17 -1.3 C 36 %
2852 30-12-2019 19:13:17 -1 C 36 %
2853 30-12-2019 19:23:18 -1.4 C 36 %
2854 30-12-2019 19:33:17 -1.4 C 39 %
2855 30-12-2019 19:43:17 -0.4 C 33 %
2856 30-12-2019 19:53:18 0 C 32 %
2857 30-12-2019 20:03:17 -0.3 C 31 %
2858 30-12-2019 20:13:17 -1.2 C 32 %
2859 30-12-2019 20:23:17 -1.6 C 35 %
2860 30-12-2019 20:33:17 -1.6 C 36 %
2861 30-12-2019 20:43:17 -1.7 C 36 %
2862 30-12-2019 20:53:17 -1.5 C 37 %
2863 30-12-2019 21:03:17 -1.9 C 37 %
2864 30-12-2019 21:13:17 -0.8 C 35 %
2865 30-12-2019 21:23:17 -1.1 C 35 %
2866 30-12-2019 21:33:17 -0.9 C 35 %
2867 30-12-2019 21:43:17 -0.8 C 36 %
2868 30-12-2019 21:53:17 -1.1 C 33 %
2869 30-12-2019 22:03:17 -1.5 C 35 %
2870 30-12-2019 22:13:17 -1.7 C 35 %
2871 30-12-2019 22:23:17 -1.7 C 35 %
2872 30-12-2019 22:33:17 -2.3 C 35 %
2873 30-12-2019 22:43:17 -1.8 C 35 %
2874 30-12-2019 22:53:17 -2 C 36 %
2875 30-12-2019 23:03:17 -2.3 C 36 %
Sensor: Nr:Datum:Temp:Feuchte:
Aussen-T/F 2876 30-12-2019 23:13:17 -1.5 C 36 %
2877 30-12-2019 23:23:17 -0.9 C 32 %
2878 30-12-2019 23:33:17 -0.3 C 31 %
2879 30-12-2019 23:43:17 -0.9 C 31 %
2880 30-12-2019 23:53:17 -1 C 31 %
2881 31-12-2019 00:03:17 -1.2 C 32 %
2882 31-12-2019 00:13:18 -1.4 C 34 %
2883 31-12-2019 00:23:17 -1.6 C 36 %
2884 31-12-2019 00:33:18 -1.2 C 35 %
2885 31-12-2019 00:43:18 -1.5 C 35 %
2886 31-12-2019 00:53:17 -1.5 C 36 %
2887 31-12-2019 01:03:17 -1.5 C 36 %
2888 31-12-2019 01:13:17 -0.8 C 34 %
2889 31-12-2019 01:23:18 -1.3 C 34 %
2890 31-12-2019 01:33:17 -1.6 C 37 %
2891 31-12-2019 01:43:17 -2 C 37 %
2892 31-12-2019 01:53:17 -2.3 C 38 %
2893 31-12-2019 02:03:17 -2.5 C 40 %
2894 31-12-2019 02:13:17 -2.7 C 40 %
2895 31-12-2019 02:23:18 -2.8 C 41 %
2896 31-12-2019 02:33:17 -3 C 41 %
2897 31-12-2019 02:43:17 -2.9 C 43 %
2898 31-12-2019 02:53:17 -2 C 45 %
2899 31-12-2019 03:03:17 -1.7 C 42 %
2900 31-12-2019 03:13:18 -2 C 40 %
Sensor: Nr:Datum:Temp:Feuchte:
Aussen-T/F 2901 31-12-2019 03:23:17 -2.4 C 40 %
2902 31-12-2019 03:33:18 -2.5 C 41 %
2903 31-12-2019 03:43:18 -2.9 C 41 %
2904 31-12-2019 03:53:17 -2.8 C 42 %
2905 31-12-2019 04:03:17 -2.6 C 43 %
2906 31-12-2019 04:13:17 -3.1 C 42 %
2907 31-12-2019 04:23:17 -3.2 C 42 %
2908 31-12-2019 04:33:17 -3.3 C 42 %
2909 31-12-2019 04:43:18 -3.3 C 42 %
2910 31-12-2019 04:53:17 -3.2 C 43 %
2911 31-12-2019 05:03:17 -3.3 C 42 %
2912 31-12-2019 05:13:17 -3.6 C 42 %
2913 31-12-2019 05:23:17 -3.4 C 43 %
2914 31-12-2019 05:33:17 -3.1 C 44 %
2915 31-12-2019 05:43:17 -3 C 44 %
2916 31-12-2019 05:53:17 -2.9 C 44 %
2917 31-12-2019 06:03:17 -3.1 C 43 %
2918 31-12-2019 06:13:17 -3.3 C 43 %
2919 31-12-2019 06:23:17 -3.2 C 43 %
2920 31-12-2019 06:33:17 -3.3 C 43 %
2921 31-12-2019 06:43:17 -3.4 C 43 %
2922 31-12-2019 06:53:18 -3.2 C 44 %
2923 31-12-2019 07:03:17 -3.2 C 44 %
2924 31-12-2019 07:13:17 -3 C 44 %
2925 31-12-2019 07:23:17 -3.1 C 44 %
Sensor: Nr:Datum:Temp:Feuchte:
Aussen-T/F 2926 31-12-2019 07:33:17 -3 C 44 %
2927 31-12-2019 07:43:17 -2.6 C 45 %
2928 31-12-2019 07:53:18 -2.1 C 45 %
2929 31-12-2019 08:03:17 -2 C 45 %
2930 31-12-2019 08:13:17 -2 C 45 %
2931 31-12-2019 08:23:17 -1.3 C 45 %
2932 31-12-2019 08:33:17 -1 C 44 %
2933 31-12-2019 08:43:17 -1 C 43 %
2934 31-12-2019 08:53:17 -1.1 C 42 %
2935 31-12-2019 09:03:17 -1 C 43 %
2936 31-12-2019 09:13:17 -0.9 C 44 %
2937 31-12-2019 09:23:17 -1.1 C 42 %
2938 31-12-2019 09:33:17 -1.1 C 42 %
2939 31-12-2019 09:43:17 -1.1 C 42 %
2940 31-12-2019 09:53:17 -0.9 C 43 %
2941 31-12-2019 10:03:17 -0.6 C 44 %
2942 31-12-2019 10:13:17 -0.2 C 43 %
2943 31-12-2019 10:23:17 0.1 C 41 %
2944 31-12-2019 10:33:17 0.3 C 40 %
2945 31-12-2019 10:43:17 0.3 C 38 %
2946 31-12-2019 10:53:18 0.5 C 40 %
2947 31-12-2019 11:03:17 0.8 C 41 %
2948 31-12-2019 11:13:17 0.7 C 41 %
2949 31-12-2019 11:23:17 1.2 C 40 %
2950 31-12-2019 11:33:17 1.1 C 38 %
Sensor: Nr:Datum:Temp:Feuchte:
Aussen-T/F 2951 31-12-2019 11:43:17 1.5 C 40 %
2952 31-12-2019 11:53:17 1.5 C 40 %
2953 31-12-2019 12:03:18 1.8 C 31 %
2954 31-12-2019 12:13:18 2.4 C 35 %
2955 31-12-2019 12:23:17 2.6 C 33 %
2956 31-12-2019 12:33:18 2.4 C 32 %
2957 31-12-2019 12:43:18 2.8 C 30 %
2958 31-12-2019 12:53:17 2.3 C 29 %
2959 31-12-2019 13:03:18 2.4 C 28 %
2960 31-12-2019 13:13:18 2.4 C 27 %
2961 31-12-2019 13:23:17 2.8 C 27 %
2962 31-12-2019 13:33:17 2.8 C 26 %
2963 31-12-2019 13:43:17 3.3 C 26 %
2964 31-12-2019 13:53:17 2.9 C 26 %
2965 31-12-2019 14:03:18 2.7 C 27 %
2966 31-12-2019 14:13:18 2.9 C 27 %
2967 31-12-2019 14:23:17 3.1 C 26 %
2968 31-12-2019 14:33:17 3.4 C 26 %
2969 31-12-2019 14:43:17 3.2 C 26 %
2970 31-12-2019 14:53:17 3 C 26 %
2971 31-12-2019 15:03:17 2.8 C 27 %
2972 31-12-2019 15:13:17 2.9 C 27 %
2973 31-12-2019 15:23:18 3 C 27 %
2974 31-12-2019 15:33:17 3 C 27 %
2975 31-12-2019 15:43:17 2.9 C 28 %
Sensor: Nr:Datum:Temp:Feuchte:
Aussen-T/F 2976 31-12-2019 15:53:17 2.7 C 29 %
2977 31-12-2019 16:03:17 2.1 C 30 %
2978 31-12-2019 16:13:17 0.9 C 35 %
2979 31-12-2019 16:23:18 0.6 C 38 %
2980 31-12-2019 16:33:17 0.3 C 40 %
2981 31-12-2019 16:43:17 0.2 C 39 %
2982 31-12-2019 16:53:18 0.2 C 40 %
2983 31-12-2019 17:03:17 -0.1 C 41 %
2984 31-12-2019 17:13:17 -0.4 C 41 %
2985 31-12-2019 17:23:17 -0.3 C 40 %
2986 31-12-2019 17:33:17 -0.3 C 41 %
2987 31-12-2019 17:43:17 -0.6 C 43 %
2988 31-12-2019 17:53:18 -0.7 C 43 %
2989 31-12-2019 18:03:17 -1.1 C 43 %
2990 31-12-2019 18:13:17 -1.2 C 45 %
2991 31-12-2019 18:23:17 -0.9 C 45 %
2992 31-12-2019 18:33:17 -0.8 C 45 %
2993 31-12-2019 18:43:17 -0.4 C 46 %
2994 31-12-2019 18:53:18 -0.4 C 46 %
2995 31-12-2019 19:03:17 -0.3 C 45 %
2996 31-12-2019 19:13:17 -0.1 C 46 %
2997 31-12-2019 19:23:18 0 C 45 %
2998 31-12-2019 19:33:17 0.1 C 45 %
2999 31-12-2019 19:43:17 0.2 C 45 %
3000 31-12-2019 19:53:17 0.4 C 45 %
Sensor: Nr:Datum:Temp:Feuchte:
Aussen-T/F 3001 31-12-2019 20:03:18 0.5 C 45 %
3002 31-12-2019 20:13:18 0.5 C 45 %
3003 31-12-2019 20:23:17 0.4 C 45 %
3004 31-12-2019 20:33:17 0.4 C 45 %
3005 31-12-2019 20:43:17 0.3 C 43 %
3006 31-12-2019 20:53:17 0.2 C 43 %
3007 31-12-2019 21:03:17 0.2 C 43 %
3008 31-12-2019 21:13:17 0.4 C 44 %
3009 31-12-2019 21:23:18 0.4 C 44 %
3010 31-12-2019 21:33:17 0.5 C 44 %
3011 31-12-2019 21:43:17 0.6 C 43 %
3012 31-12-2019 21:53:17 0.5 C 43 %
3013 31-12-2019 22:03:17 0.6 C 42 %
3014 31-12-2019 22:13:17 0.5 C 42 %
3015 31-12-2019 22:23:18 0.2 C 41 %
3016 31-12-2019 22:33:17 0 C 41 %
3017 31-12-2019 22:43:17 -0.2 C 42 %
3018 31-12-2019 22:53:17 -0.4 C 43 %
3019 31-12-2019 23:03:17 -0.3 C 44 %
3020 31-12-2019 23:13:17 -0.1 C 45 %
3021 31-12-2019 23:23:18 0 C 45 %
3022 31-12-2019 23:33:17 0 C 45 %
3023 31-12-2019 23:43:17 0.4 C 45 %
3024 31-12-2019 23:53:18 0.3 C 45 %
Sensor: Nr:Datum:Temp:Feuchte:
G-T/H 1 11-12-2019 00:01:18 8.8 C 73 %
2 11-12-2019 00:11:18 8.8 C 73 %
3 11-12-2019 00:21:17 8.8 C 73 %
4 11-12-2019 00:31:17 8.8 C 73 %
5 11-12-2019 00:41:17 8.8 C 73 %
6 11-12-2019 00:51:17 8.8 C 73 %
7 11-12-2019 01:01:17 8.8 C 73 %
8 11-12-2019 01:11:17 8.8 C 73 %
9 11-12-2019 01:21:18 8.8 C 73 %
10 11-12-2019 01:31:17 8.8 C 73 %
11 11-12-2019 01:41:17 8.8 C 73 %
12 11-12-2019 01:51:17 8.8 C 73 %
13 11-12-2019 02:01:17 8.8 C 73 %
14 11-12-2019 02:11:17 8.8 C 73 %
15 11-12-2019 02:21:17 8.8 C 73 %
16 11-12-2019 02:31:18 8.8 C 73 %
17 11-12-2019 02:41:18 8.8 C 73 %
18 11-12-2019 02:51:17 8.8 C 73 %
19 11-12-2019 03:01:18 8.8 C 73 %
20 11-12-2019 03:11:18 8.8 C 73 %
21 11-12-2019 03:21:17 8.8 C 73 %
22 11-12-2019 03:31:17 8.8 C 73 %
23 11-12-2019 03:41:17 8.7 C 73 %
24 11-12-2019 03:51:17 8.8 C 73 %
25 11-12-2019 04:01:17 8.7 C 73 %
Sensor: Nr:Datum:Temp:Feuchte:
G-T/H 26 11-12-2019 04:11:17 8.7 C 73 %
27 11-12-2019 04:21:17 8.8 C 73 %
28 11-12-2019 04:31:18 8.7 C 73 %
29 11-12-2019 04:41:18 8.8 C 73 %
30 11-12-2019 04:51:17 8.8 C 73 %
31 11-12-2019 05:01:17 8.8 C 73 %
32 11-12-2019 05:11:17 8.7 C 73 %
33 11-12-2019 05:21:18 8.8 C 73 %
34 11-12-2019 05:31:17 8.8 C 73 %
35 11-12-2019 05:41:17 8.7 C 73 %
36 11-12-2019 05:51:17 8.7 C 73 %
37 11-12-2019 06:01:18 8.8 C 73 %
38 11-12-2019 06:11:18 8.7 C 73 %
39 11-12-2019 06:21:17 8.7 C 73 %
40 11-12-2019 06:31:17 8.7 C 73 %
41 11-12-2019 06:41:17 8.7 C 73 %
42 11-12-2019 06:51:17 8.7 C 73 %
43 11-12-2019 07:01:17 8.7 C 73 %
44 11-12-2019 07:11:17 8.7 C 73 %
45 11-12-2019 07:21:17 8.7 C 73 %
46 11-12-2019 07:31:17 8.7 C 73 %
47 11-12-2019 07:41:18 8.7 C 73 %
48 11-12-2019 07:51:17 8.7 C 73 %
49 11-12-2019 08:01:17 8.7 C 73 %
50 11-12-2019 08:11:17 8.7 C 73 %
Sensor: Nr:Datum:Temp:Feuchte:
G-T/H 51 11-12-2019 08:21:17 8.7 C 73 %
52 11-12-2019 08:31:18 8.7 C 73 %
53 11-12-2019 08:41:18 8.7 C 73 %
54 11-12-2019 08:51:17 8.7 C 73 %
55 11-12-2019 09:01:18 8.7 C 73 %
56 11-12-2019 09:11:18 8.7 C 73 %
57 11-12-2019 09:21:17 8.7 C 73 %
58 11-12-2019 09:31:17 8.8 C 73 %
59 11-12-2019 09:41:17 8.8 C 73 %
60 11-12-2019 09:51:17 8.7 C 73 %
61 11-12-2019 10:01:17 8.8 C 73 %
62 11-12-2019 10:11:17 8.7 C 73 %
63 11-12-2019 10:21:17 8.7 C 73 %
64 11-12-2019 10:31:17 8.7 C 73 %
65 11-12-2019 10:41:17 8.8 C 73 %
66 11-12-2019 10:51:17 8.7 C 73 %
67 11-12-2019 11:01:17 8.7 C 73 %
68 11-12-2019 11:11:17 8.7 C 73 %
69 11-12-2019 11:21:17 8.7 C 73 %
70 11-12-2019 11:31:17 8.7 C 73 %
71 11-12-2019 11:41:17 8.8 C 73 %
72 11-12-2019 11:51:17 8.7 C 73 %
73 11-12-2019 12:01:18 8.7 C 73 %
74 11-12-2019 12:11:18 8.7 C 73 %
75 11-12-2019 12:21:17 8.7 C 73 %
Sensor: Nr:Datum:Temp:Feuchte:
G-T/H 76 11-12-2019 12:31:17 8.7 C 73 %
77 11-12-2019 12:41:17 8.7 C 73 %
78 11-12-2019 12:51:17 8.7 C 73 %
79 11-12-2019 13:01:18 8.7 C 73 %
80 11-12-2019 13:11:18 8.7 C 73 %
81 11-12-2019 13:21:17 8.7 C 73 %
82 11-12-2019 13:31:17 8.7 C 73 %
83 11-12-2019 13:41:17 8.7 C 73 %
84 11-12-2019 13:51:17 8.7 C 73 %
85 11-12-2019 14:01:17 8.7 C 73 %
86 11-12-2019 14:11:18 8.7 C 73 %
87 11-12-2019 14:21:17 8.7 C 73 %
88 11-12-2019 14:31:17 8.7 C 73 %
89 11-12-2019 14:41:17 8.7 C 73 %
90 11-12-2019 14:51:17 8.7 C 73 %
91 11-12-2019 15:01:17 8.7 C 73 %
92 11-12-2019 15:11:17 8.7 C 73 %
93 11-12-2019 15:21:17 8.7 C 73 %
94 11-12-2019 15:31:18 8.7 C 73 %
95 11-12-2019 15:41:18 8.7 C 73 %
96 11-12-2019 15:51:17 8.7 C 73 %
97 11-12-2019 16:01:17 8.7 C 73 %
98 11-12-2019 16:11:17 8.7 C 73 %
99 11-12-2019 16:21:17 8.7 C 73 %
100 11-12-2019 16:31:17 8.7 C 73 %
Sensor: Nr:Datum:Temp:Feuchte:
G-T/H 101 11-12-2019 16:41:17 8.7 C 73 %
102 11-12-2019 16:51:17 8.7 C 73 %
103 11-12-2019 17:01:17 8.7 C 73 %
104 11-12-2019 17:11:17 8.7 C 73 %
105 11-12-2019 17:21:17 8.8 C 73 %
106 11-12-2019 17:31:17 8.7 C 73 %
107 11-12-2019 17:41:17 8.7 C 73 %
108 11-12-2019 17:51:18 8.7 C 73 %
109 11-12-2019 18:01:17 8.7 C 73 %
110 11-12-2019 18:11:17 8.7 C 73 %
111 11-12-2019 18:21:17 8.7 C 73 %
112 11-12-2019 18:31:18 8.7 C 73 %
113 11-12-2019 18:41:18 8.8 C 73 %
114 11-12-2019 18:51:17 8.8 C 73 %
115 11-12-2019 19:01:17 8.8 C 73 %
116 11-12-2019 19:11:17 8.8 C 73 %
117 11-12-2019 19:21:18 8.8 C 73 %
118 11-12-2019 19:31:17 8.8 C 73 %
119 11-12-2019 19:41:17 8.8 C 73 %
120 11-12-2019 19:51:18 8.8 C 73 %
121 11-12-2019 20:01:17 8.8 C 73 %
122 11-12-2019 20:11:17 8.8 C 73 %
123 11-12-2019 20:21:17 8.9 C 73 %
124 11-12-2019 20:31:18 8.8 C 73 %
125 11-12-2019 20:41:18 8.8 C 73 %
Sensor: Nr:Datum:Temp:Feuchte:
G-T/H 126 11-12-2019 20:51:17 8.8 C 73 %
127 11-12-2019 21:01:17 8.8 C 74 %
128 11-12-2019 21:11:17 8.9 C 74 %
129 11-12-2019 21:21:17 8.9 C 74 %
130 11-12-2019 21:31:17 8.9 C 74 %
131 11-12-2019 21:41:17 8.8 C 74 %
132 11-12-2019 21:51:17 8.9 C 74 %
133 11-12-2019 22:01:17 8.8 C 74 %
134 11-12-2019 22:11:17 8.9 C 74 %
135 11-12-2019 22:21:17 8.9 C 74 %
136 11-12-2019 22:31:17 8.9 C 74 %
137 11-12-2019 22:41:17 8.8 C 74 %
138 11-12-2019 22:51:18 8.9 C 74 %
139 11-12-2019 23:01:17 8.9 C 74 %
140 11-12-2019 23:11:17 8.9 C 74 %
141 11-12-2019 23:21:17 8.8 C 74 %
142 11-12-2019 23:31:17 8.9 C 74 %
143 11-12-2019 23:41:17 8.9 C 74 %
144 11-12-2019 23:51:18 8.9 C 74 %
145 12-12-2019 00:01:17 8.9 C 74 %
146 12-12-2019 00:11:17 8.8 C 74 %
147 12-12-2019 00:21:17 8.8 C 74 %
148 12-12-2019 00:31:17 8.8 C 74 %
149 12-12-2019 00:41:17 8.9 C 74 %
150 12-12-2019 00:51:17 8.9 C 74 %
Sensor: Nr:Datum:Temp:Feuchte:
G-T/H 151 12-12-2019 01:01:17 8.8 C 74 %
152 12-12-2019 01:11:17 8.8 C 74 %
153 12-12-2019 01:21:18 8.8 C 74 %
154 12-12-2019 01:31:17 8.8 C 74 %
155 12-12-2019 01:41:17 8.8 C 74 %
156 12-12-2019 01:51:18 8.8 C 74 %
157 12-12-2019 02:01:17 8.8 C 74 %
158 12-12-2019 02:11:17 8.8 C 74 %
159 12-12-2019 02:21:17 8.8 C 74 %
160 12-12-2019 02:31:18 8.8 C 73 %
161 12-12-2019 02:41:18 8.8 C 73 %
162 12-12-2019 02:51:17 8.8 C 73 %
163 12-12-2019 03:01:17 8.8 C 73 %
164 12-12-2019 03:11:17 8.8 C 73 %
165 12-12-2019 03:21:17 8.8 C 73 %
166 12-12-2019 03:31:17 8.8 C 73 %
167 12-12-2019 03:41:17 8.8 C 73 %
168 12-12-2019 03:51:17 8.8 C 73 %
169 12-12-2019 04:01:17 8.8 C 73 %
170 12-12-2019 04:11:17 8.8 C 73 %
171 12-12-2019 04:21:17 8.8 C 73 %
172 12-12-2019 04:31:17 8.8 C 73 %
173 12-12-2019 04:41:17 8.8 C 73 %
174 12-12-2019 04:51:17 8.8 C 73 %
175 12-12-2019 05:01:17 8.8 C 73 %
Sensor: Nr:Datum:Temp:Feuchte:
G-T/H 176 12-12-2019 05:11:17 8.8 C 73 %
177 12-12-2019 05:21:17 8.8 C 73 %
178 12-12-2019 05:31:18 8.8 C 73 %
179 12-12-2019 05:41:18 8.8 C 73 %
180 12-12-2019 05:51:17 8.7 C 73 %
181 12-12-2019 06:01:17 8.7 C 73 %
182 12-12-2019 06:11:17 8.7 C 73 %
183 12-12-2019 06:21:17 8.7 C 73 %
184 12-12-2019 06:31:17 8.7 C 73 %
185 12-12-2019 06:41:17 8.7 C 73 %
186 12-12-2019 06:51:17 8.7 C 73 %
187 12-12-2019 07:01:17 8.7 C 73 %
188 12-12-2019 07:11:17 8.7 C 73 %
189 12-12-2019 07:21:17 8.7 C 73 %
190 12-12-2019 07:31:17 8.7 C 73 %
191 12-12-2019 07:41:17 8.7 C 73 %
192 12-12-2019 07:51:17 8.7 C 73 %
193 12-12-2019 08:01:17 8.7 C 73 %
194 12-12-2019 08:11:17 8.7 C 73 %
195 12-12-2019 08:21:17 8.7 C 74 %
196 12-12-2019 08:31:18 8.7 C 74 %
197 12-12-2019 08:41:18 8.7 C 74 %
198 12-12-2019 08:51:17 8.7 C 74 %
199 12-12-2019 09:01:18 8.7 C 74 %
200 12-12-2019 09:11:18 8.7 C 74 %
Sensor: Nr:Datum:Temp:Feuchte:
G-T/H 201 12-12-2019 09:21:17 8.7 C 74 %
202 12-12-2019 09:31:17 8.7 C 74 %
203 12-12-2019 09:41:17 8.7 C 74 %
204 12-12-2019 09:51:17 8.7 C 74 %
205 12-12-2019 10:01:17 8.7 C 74 %
206 12-12-2019 10:11:17 8.7 C 74 %
207 12-12-2019 10:21:18 8.7 C 74 %
208 12-12-2019 10:31:17 8.7 C 74 %
209 12-12-2019 10:41:17 8.7 C 74 %
210 12-12-2019 10:51:17 8.7 C 74 %
211 12-12-2019 11:01:18 8.7 C 74 %
212 12-12-2019 11:11:18 8.7 C 74 %
213 12-12-2019 11:21:17 8.7 C 74 %
214 12-12-2019 11:31:17 8.7 C 74 %
215 12-12-2019 11:41:17 8.8 C 74 %
216 12-12-2019 11:51:18 8.7 C 74 %
217 12-12-2019 12:01:17 8.7 C 74 %
218 12-12-2019 12:11:17 8.8 C 74 %
219 12-12-2019 12:21:17 8.7 C 74 %
220 12-12-2019 12:31:18 8.8 C 74 %
221 12-12-2019 12:41:18 8.7 C 74 %
222 12-12-2019 12:51:17 8.8 C 74 %
223 12-12-2019 13:01:17 8.8 C 74 %
224 12-12-2019 13:11:18 8.8 C 74 %
225 12-12-2019 13:21:17 8.8 C 74 %
Sensor: Nr:Datum:Temp:Feuchte:
G-T/H 226 12-12-2019 13:31:17 8.8 C 74 %
227 12-12-2019 13:41:17 8.8 C 74 %
228 12-12-2019 13:51:17 8.8 C 74 %
229 12-12-2019 14:01:17 8.8 C 74 %
230 12-12-2019 14:11:17 8.8 C 74 %
231 12-12-2019 14:21:17 8.8 C 74 %
232 12-12-2019 14:31:18 8.8 C 74 %
233 12-12-2019 14:41:18 8.8 C 74 %
234 12-12-2019 14:51:17 8.8 C 74 %
235 12-12-2019 15:01:18 8.8 C 74 %
236 12-12-2019 15:11:18 8.8 C 74 %
237 12-12-2019 15:21:17 8.8 C 74 %
238 12-12-2019 15:31:17 8.8 C 74 %
239 12-12-2019 15:41:17 8.8 C 74 %
240 12-12-2019 15:51:17 8.8 C 74 %
241 12-12-2019 16:01:17 8.8 C 74 %
242 12-12-2019 16:11:17 8.8 C 74 %
243 12-12-2019 16:21:18 8.8 C 74 %
244 12-12-2019 16:31:17 8.8 C 74 %
245 12-12-2019 16:41:17 8.8 C 74 %
246 12-12-2019 16:51:17 8.8 C 74 %
247 12-12-2019 17:01:17 8.8 C 74 %
248 12-12-2019 17:11:17 8.8 C 74 %
249 12-12-2019 17:21:17 8.8 C 74 %
250 12-12-2019 17:31:17 8.8 C 74 %
Sensor: Nr:Datum:Temp:Feuchte:
G-T/H 251 12-12-2019 17:41:17 8.7 C 74 %
252 12-12-2019 17:51:17 8.8 C 74 %
253 12-12-2019 18:01:17 8.8 C 74 %
254 12-12-2019 18:11:17 8.8 C 74 %
255 12-12-2019 18:21:17 8.7 C 73 %
256 12-12-2019 18:31:17 8.7 C 73 %
257 12-12-2019 18:41:17 8.7 C 73 %
258 12-12-2019 18:51:17 8.7 C 73 %
259 12-12-2019 19:01:17 8.4 C 72 %
260 12-12-2019 19:11:17 8.6 C 72 %
261 12-12-2019 19:21:17 8.8 C 72 %
262 12-12-2019 19:31:17 8.9 C 72 %
263 12-12-2019 19:41:17 8.9 C 72 %
264 12-12-2019 19:51:17 9 C 72 %
265 12-12-2019 20:01:17 9 C 72 %
266 12-12-2019 20:11:17 9 C 72 %
267 12-12-2019 20:21:17 9.1 C 72 %
268 12-12-2019 20:31:17 9.1 C 72 %
269 12-12-2019 20:41:17 9.1 C 72 %
270 12-12-2019 20:51:17 9.1 C 72 %
271 12-12-2019 21:01:17 9.1 C 72 %
272 12-12-2019 21:11:17 9.1 C 72 %
273 12-12-2019 21:21:17 9.1 C 72 %
274 12-12-2019 21:31:17 9.1 C 72 %
275 12-12-2019 21:41:17 9.1 C 72 %
Sensor: Nr:Datum:Temp:Feuchte:
G-T/H 276 12-12-2019 21:51:17 9.1 C 71 %
277 12-12-2019 22:01:17 9.1 C 71 %
278 12-12-2019 22:11:17 9.1 C 71 %
279 12-12-2019 22:21:18 9.1 C 71 %
280 12-12-2019 22:31:17 9.1 C 71 %
281 12-12-2019 22:41:17 9 C 71 %
282 12-12-2019 22:51:17 9 C 71 %
283 12-12-2019 23:01:18 9 C 71 %
284 12-12-2019 23:11:18 9 C 71 %
285 12-12-2019 23:21:17 8.9 C 72 %
286 12-12-2019 23:31:17 8.9 C 72 %
287 12-12-2019 23:41:17 8.9 C 72 %
288 12-12-2019 23:51:17 8.9 C 72 %
289 13-12-2019 00:01:17 8.9 C 72 %
290 13-12-2019 00:11:17 8.9 C 72 %
291 13-12-2019 00:21:17 8.9 C 72 %
292 13-12-2019 00:31:18 8.9 C 72 %
293 13-12-2019 00:41:18 8.9 C 72 %
294 13-12-2019 00:51:17 8.9 C 72 %
295 13-12-2019 01:01:18 8.8 C 72 %
296 13-12-2019 01:11:18 8.8 C 72 %
297 13-12-2019 01:21:17 8.8 C 72 %
298 13-12-2019 01:31:17 8.8 C 72 %
299 13-12-2019 01:41:17 8.8 C 72 %
300 13-12-2019 01:51:17 8.8 C 72 %
Sensor: Nr:Datum:Temp:Feuchte:
G-T/H 301 13-12-2019 02:01:18 8.8 C 72 %
302 13-12-2019 02:11:18 8.8 C 72 %
303 13-12-2019 02:21:17 8.8 C 72 %
304 13-12-2019 02:31:17 8.8 C 72 %
305 13-12-2019 02:41:17 8.7 C 72 %
306 13-12-2019 02:51:17 8.7 C 72 %
307 13-12-2019 03:01:17 8.7 C 72 %
308 13-12-2019 03:11:17 8.7 C 72 %
309 13-12-2019 03:21:17 8.7 C 72 %
310 13-12-2019 03:31:17 8.7 C 72 %
311 13-12-2019 03:41:17 8.6 C 72 %
312 13-12-2019 03:51:17 8.6 C 72 %
313 13-12-2019 04:01:17 8.6 C 72 %
314 13-12-2019 04:11:17 8.6 C 72 %
315 13-12-2019 04:21:17 8.6 C 72 %
316 13-12-2019 04:31:17 8.6 C 72 %
317 13-12-2019 04:41:17 8.6 C 72 %
318 13-12-2019 04:51:17 8.6 C 72 %
319 13-12-2019 05:01:17 8.6 C 72 %
320 13-12-2019 05:11:17 8.6 C 72 %
321 13-12-2019 05:21:17 8.6 C 72 %
322 13-12-2019 05:31:18 8.6 C 72 %
323 13-12-2019 05:41:18 8.6 C 72 %
324 13-12-2019 05:51:17 8.6 C 72 %
325 13-12-2019 06:01:17 8.5 C 72 %
Sensor: Nr:Datum:Temp:Feuchte:
G-T/H 326 13-12-2019 06:11:17 8.5 C 72 %
327 13-12-2019 06:21:17 8.5 C 72 %
328 13-12-2019 06:31:17 8.5 C 72 %
329 13-12-2019 06:41:17 8.5 C 72 %
330 13-12-2019 06:51:17 8.5 C 72 %
331 13-12-2019 07:01:17 8.5 C 72 %
332 13-12-2019 07:11:18 8.5 C 72 %
333 13-12-2019 07:21:17 8.5 C 72 %
334 13-12-2019 07:31:17 8.5 C 72 %
335 13-12-2019 07:41:17 8.4 C 72 %
336 13-12-2019 07:51:17 8.3 C 71 %
337 13-12-2019 08:01:17 8.4 C 71 %
338 13-12-2019 08:11:17 8.4 C 71 %
339 13-12-2019 08:21:17 8.4 C 72 %
340 13-12-2019 08:31:17 8.4 C 72 %
341 13-12-2019 08:41:17 8.4 C 72 %
342 13-12-2019 08:51:17 8.4 C 72 %
343 13-12-2019 09:01:17 8.4 C 72 %
344 13-12-2019 09:11:17 8.4 C 72 %
345 13-12-2019 09:21:17 8.4 C 72 %
346 13-12-2019 09:31:17 8.4 C 72 %
347 13-12-2019 09:41:17 8.4 C 72 %
348 13-12-2019 09:51:18 8.4 C 72 %
349 13-12-2019 10:01:17 8.4 C 72 %
350 13-12-2019 10:11:17 8.4 C 72 %
Sensor: Nr:Datum:Temp:Feuchte:
G-T/H 351 13-12-2019 10:21:18 8.4 C 72 %
352 13-12-2019 10:31:17 8.4 C 72 %
353 13-12-2019 10:41:17 8.4 C 72 %
354 13-12-2019 10:51:18 8.4 C 72 %
355 13-12-2019 11:01:17 8.4 C 72 %
356 13-12-2019 11:11:17 8.4 C 72 %
357 13-12-2019 11:21:17 8.4 C 72 %
358 13-12-2019 11:31:17 8.4 C 72 %
359 13-12-2019 11:41:17 8.4 C 72 %
360 13-12-2019 11:51:18 8.4 C 72 %
361 13-12-2019 12:01:17 8.4 C 72 %
362 13-12-2019 12:11:17 8.4 C 72 %
363 13-12-2019 12:21:17 8.4 C 73 %
364 13-12-2019 12:31:17 8.4 C 73 %
365 13-12-2019 12:41:17 8.4 C 73 %
366 13-12-2019 12:51:18 8.4 C 73 %
367 13-12-2019 13:01:18 8.4 C 73 %
368 13-12-2019 13:11:18 8.5 C 73 %
369 13-12-2019 13:21:17 8.4 C 73 %
370 13-12-2019 13:31:17 8.4 C 73 %
371 13-12-2019 13:41:17 8.5 C 73 %
372 13-12-2019 13:51:17 8.5 C 73 %
373 13-12-2019 14:01:17 8.5 C 73 %
374 13-12-2019 14:11:17 8.5 C 73 %
375 13-12-2019 14:21:17 8.5 C 73 %
Sensor: Nr:Datum:Temp:Feuchte:
G-T/H 376 13-12-2019 14:31:17 8.5 C 73 %
377 13-12-2019 14:41:17 8.5 C 73 %
378 13-12-2019 14:51:18 8.5 C 73 %
379 13-12-2019 15:01:18 8.5 C 73 %
380 13-12-2019 15:11:18 8.5 C 73 %
381 13-12-2019 15:21:17 8.5 C 73 %
382 13-12-2019 15:31:17 8.5 C 73 %
383 13-12-2019 15:41:17 8.4 C 73 %
384 13-12-2019 15:51:17 8.4 C 73 %
385 13-12-2019 16:01:18 8.4 C 72 %
386 13-12-2019 16:11:18 8.4 C 72 %
387 13-12-2019 16:21:17 8.3 C 72 %
388 13-12-2019 16:31:17 8.3 C 71 %
389 13-12-2019 16:41:17 8.3 C 71 %
390 13-12-2019 16:51:17 8.2 C 71 %
391 13-12-2019 17:01:17 8.2 C 70 %
392 13-12-2019 17:11:17 8.2 C 70 %
393 13-12-2019 17:21:17 8.2 C 70 %
394 13-12-2019 17:31:18 8.2 C 70 %
395 13-12-2019 17:41:18 8.2 C 70 %
396 13-12-2019 17:51:17 8.2 C 70 %
397 13-12-2019 18:01:17 8.3 C 70 %
398 13-12-2019 18:11:17 8.4 C 71 %
399 13-12-2019 18:21:17 8.4 C 71 %
400 13-12-2019 18:31:17 8.4 C 71 %
Sensor: Nr:Datum:Temp:Feuchte:
G-T/H 401 13-12-2019 18:41:18 8.4 C 71 %
402 13-12-2019 18:51:17 8.5 C 72 %
403 13-12-2019 19:01:17 8.5 C 72 %
404 13-12-2019 19:11:17 8.5 C 72 %
405 13-12-2019 19:21:17 8.5 C 72 %
406 13-12-2019 19:31:17 8.5 C 72 %
407 13-12-2019 19:41:17 8.5 C 72 %
408 13-12-2019 19:51:17 8.5 C 72 %
409 13-12-2019 20:01:17 8.5 C 72 %
410 13-12-2019 20:11:17 8.6 C 73 %
411 13-12-2019 20:21:17 8.5 C 73 %
412 13-12-2019 20:31:17 8.5 C 73 %
413 13-12-2019 20:41:17 8.6 C 73 %
414 13-12-2019 20:51:17 8.6 C 73 %
415 13-12-2019 21:01:17 8.6 C 73 %
416 13-12-2019 21:11:17 8.6 C 73 %
417 13-12-2019 21:21:17 8.6 C 73 %
418 13-12-2019 21:31:18 8.6 C 73 %
419 13-12-2019 21:41:18 8.6 C 73 %
420 13-12-2019 21:51:17 8.6 C 73 %
421 13-12-2019 22:01:17 8.6 C 73 %
422 13-12-2019 22:11:17 8.6 C 73 %
423 13-12-2019 22:21:17 8.6 C 73 %
424 13-12-2019 22:31:18 8.6 C 73 %
425 13-12-2019 22:41:18 8.6 C 73 %
Sensor: Nr:Datum:Temp:Feuchte:
G-T/H 426 13-12-2019 22:51:17 8.6 C 73 %
427 13-12-2019 23:01:17 8.6 C 73 %
428 13-12-2019 23:11:17 8.6 C 73 %
429 13-12-2019 23:21:17 8.6 C 73 %
430 13-12-2019 23:31:17 8.6 C 73 %
431 13-12-2019 23:41:17 8.6 C 73 %
432 13-12-2019 23:51:17 8.6 C 73 %
433 14-12-2019 00:01:17 8.7 C 73 %
434 14-12-2019 00:11:17 8.7 C 73 %
435 14-12-2019 00:21:17 8.7 C 73 %
436 14-12-2019 00:31:18 8.7 C 73 %
437 14-12-2019 00:41:18 8.6 C 73 %
438 14-12-2019 00:51:17 8.7 C 73 %
439 14-12-2019 01:01:17 8.7 C 73 %
440 14-12-2019 01:11:17 8.7 C 74 %
441 14-12-2019 01:21:17 8.7 C 74 %
442 14-12-2019 01:31:17 8.7 C 74 %
443 14-12-2019 01:41:17 8.6 C 74 %
444 14-12-2019 01:51:17 8.7 C 74 %
445 14-12-2019 02:01:17 8.7 C 74 %
446 14-12-2019 02:11:17 8.7 C 74 %
447 14-12-2019 02:21:17 8.7 C 74 %
448 14-12-2019 02:31:18 8.7 C 74 %
449 14-12-2019 02:41:18 8.7 C 74 %
450 14-12-2019 02:51:17 8.7 C 74 %
Sensor: Nr:Datum:Temp:Feuchte:
G-T/H 451 14-12-2019 03:01:18 8.7 C 74 %
452 14-12-2019 03:11:18 8.7 C 74 %
453 14-12-2019 03:21:17 8.7 C 74 %
454 14-12-2019 03:31:17 8.7 C 74 %
455 14-12-2019 03:41:17 8.7 C 74 %
456 14-12-2019 03:51:18 8.7 C 74 %
457 14-12-2019 04:01:17 8.7 C 74 %
458 14-12-2019 04:11:17 8.7 C 74 %
459 14-12-2019 04:21:17 8.7 C 74 %
460 14-12-2019 04:31:18 8.7 C 74 %
461 14-12-2019 04:41:18 8.7 C 74 %
462 14-12-2019 04:51:17 8.7 C 74 %
463 14-12-2019 05:01:17 8.7 C 74 %
464 14-12-2019 05:11:17 8.7 C 74 %
465 14-12-2019 05:21:17 8.7 C 74 %
466 14-12-2019 05:31:18 8.7 C 74 %
467 14-12-2019 05:41:18 8.7 C 74 %
468 14-12-2019 05:51:17 8.7 C 74 %
469 14-12-2019 06:01:18 8.7 C 74 %
470 14-12-2019 06:11:18 8.7 C 74 %
471 14-12-2019 06:21:17 8.7 C 74 %
472 14-12-2019 06:31:17 8.7 C 74 %
473 14-12-2019 06:41:17 8.7 C 74 %
474 14-12-2019 06:51:18 8.7 C 74 %
475 14-12-2019 07:01:17 8.8 C 74 %
Sensor: Nr:Datum:Temp:Feuchte:
G-T/H 476 14-12-2019 07:11:18 8.8 C 74 %
477 14-12-2019 07:21:17 8.8 C 74 %
478 14-12-2019 07:31:17 8.8 C 74 %
479 14-12-2019 07:41:17 8.8 C 74 %
480 14-12-2019 07:51:17 8.8 C 74 %
481 14-12-2019 08:01:17 8.8 C 74 %
482 14-12-2019 08:11:17 8.8 C 74 %
483 14-12-2019 08:21:17 8.8 C 74 %
484 14-12-2019 08:31:18 8.8 C 74 %
485 14-12-2019 08:41:18 8.8 C 74 %
486 14-12-2019 08:51:17 8.8 C 74 %
487 14-12-2019 09:01:17 8.8 C 74 %
488 14-12-2019 09:11:17 8.8 C 74 %
489 14-12-2019 09:21:18 8.8 C 74 %
490 14-12-2019 09:31:18 8.8 C 74 %
491 14-12-2019 09:41:18 8.8 C 74 %
492 14-12-2019 09:51:17 8.8 C 74 %
493 14-12-2019 10:01:17 8.8 C 74 %
494 14-12-2019 10:11:17 8.8 C 74 %
495 14-12-2019 10:21:17 8.8 C 74 %
496 14-12-2019 10:31:17 8.8 C 74 %
497 14-12-2019 10:41:17 8.9 C 74 %
498 14-12-2019 10:51:17 8.9 C 74 %
499 14-12-2019 11:01:18 8.9 C 74 %
500 14-12-2019 11:11:18 8.9 C 74 %
Sensor: Nr:Datum:Temp:Feuchte:
G-T/H 501 14-12-2019 11:21:17 8.9 C 74 %
502 14-12-2019 11:31:17 8.9 C 74 %
503 14-12-2019 11:41:17 8.9 C 74 %
504 14-12-2019 11:51:17 9 C 73 %
505 14-12-2019 12:01:17 9.1 C 73 %
506 14-12-2019 12:11:17 9.1 C 73 %
507 14-12-2019 12:21:18 9 C 72 %
508 14-12-2019 12:31:17 8.9 C 70 %
509 14-12-2019 12:41:17 8.9 C 68 %
510 14-12-2019 12:51:17 8.9 C 68 %
511 14-12-2019 13:01:17 8.9 C 69 %
512 14-12-2019 13:11:17 8.9 C 69 %
513 14-12-2019 13:21:17 9 C 69 %
514 14-12-2019 13:31:17 8.9 C 70 %
515 14-12-2019 13:41:17 8.9 C 70 %
516 14-12-2019 13:51:17 8.9 C 71 %
517 14-12-2019 14:01:18 9 C 70 %
518 14-12-2019 14:11:18 9 C 70 %
519 14-12-2019 14:21:17 9 C 71 %
520 14-12-2019 14:31:18 9 C 71 %
521 14-12-2019 14:41:18 9 C 71 %
522 14-12-2019 14:51:18 8.9 C 72 %
523 14-12-2019 15:01:17 9 C 71 %
524 14-12-2019 15:11:17 9 C 71 %
525 14-12-2019 15:21:17 9 C 72 %
Sensor: Nr:Datum:Temp:Feuchte:
G-T/H 526 14-12-2019 15:31:17 9 C 72 %
527 14-12-2019 15:41:18 9 C 72 %
528 14-12-2019 15:51:17 9 C 72 %
529 14-12-2019 16:01:17 9 C 72 %
530 14-12-2019 16:11:17 9.1 C 72 %
531 14-12-2019 16:21:17 9.1 C 72 %
532 14-12-2019 16:31:18 9.1 C 72 %
533 14-12-2019 16:41:18 9.1 C 72 %
534 14-12-2019 16:51:17 9.1 C 72 %
535 14-12-2019 17:01:17 9.1 C 72 %
536 14-12-2019 17:11:17 9 C 73 %
537 14-12-2019 17:21:17 9.1 C 73 %
538 14-12-2019 17:31:18 9.1 C 73 %
539 14-12-2019 17:41:18 9.1 C 73 %
540 14-12-2019 17:51:17 9.1 C 73 %
541 14-12-2019 18:01:17 9.1 C 73 %
542 14-12-2019 18:11:17 9.1 C 73 %
543 14-12-2019 18:22:17 9.1 C 73 %
544 14-12-2019 18:31:17 9.1 C 73 %
545 14-12-2019 18:41:17 9.1 C 73 %
546 14-12-2019 18:52:17 9.2 C 73 %
547 14-12-2019 19:01:18 9.1 C 73 %
548 14-12-2019 19:11:18 9.1 C 73 %
549 14-12-2019 19:21:17 9.2 C 73 %
550 14-12-2019 19:31:17 9.2 C 73 %
Sensor: Nr:Datum:Temp:Feuchte:
G-T/H 551 14-12-2019 19:41:17 9.2 C 73 %
552 14-12-2019 19:52:17 9.1 C 73 %
553 14-12-2019 20:01:18 9.2 C 73 %
554 14-12-2019 20:11:18 9.2 C 73 %
555 14-12-2019 20:21:17 9.2 C 73 %
556 14-12-2019 20:31:17 9.2 C 73 %
557 14-12-2019 20:41:17 9.1 C 73 %
558 14-12-2019 20:52:17 9.2 C 73 %
559 14-12-2019 21:01:17 9.2 C 73 %
560 14-12-2019 21:11:17 9.2 C 73 %
561 14-12-2019 21:22:17 9.2 C 73 %
562 14-12-2019 21:31:18 9.2 C 73 %
563 14-12-2019 21:41:18 9.2 C 73 %
564 14-12-2019 21:52:17 9.2 C 73 %
565 14-12-2019 22:02:17 9.2 C 73 %
566 14-12-2019 22:11:17 9.2 C 73 %
567 14-12-2019 22:22:17 9.2 C 73 %
568 14-12-2019 22:31:17 9.2 C 74 %
569 14-12-2019 22:41:17 9.2 C 74 %
570 14-12-2019 22:52:17 9.2 C 74 %
571 14-12-2019 23:02:17 9.2 C 74 %
572 14-12-2019 23:12:17 9.2 C 74 %
573 14-12-2019 23:22:17 9.2 C 74 %
574 14-12-2019 23:31:18 9.2 C 74 %
575 14-12-2019 23:41:18 9.2 C 74 %
Sensor: Nr:Datum:Temp:Feuchte:
G-T/H 576 14-12-2019 23:51:18 9.2 C 74 %
577 15-12-2019 00:02:17 9.2 C 74 %
578 15-12-2019 00:11:17 9.2 C 74 %
579 15-12-2019 00:22:17 9.2 C 74 %
580 15-12-2019 00:31:18 9.2 C 74 %
581 15-12-2019 00:41:18 9.2 C 74 %
582 15-12-2019 00:52:17 9.2 C 74 %
583 15-12-2019 01:02:17 9.2 C 74 %
584 15-12-2019 01:12:17 9.2 C 74 %
585 15-12-2019 01:22:17 9.2 C 74 %
586 15-12-2019 01:31:18 9.2 C 74 %
587 15-12-2019 01:41:18 9.2 C 74 %
588 15-12-2019 01:52:17 9.2 C 74 %
589 15-12-2019 02:02:17 9.2 C 74 %
590 15-12-2019 02:12:17 9.3 C 74 %
591 15-12-2019 02:22:17 9.2 C 74 %
592 15-12-2019 02:32:18 9.3 C 74 %
593 15-12-2019 02:42:18 9.3 C 74 %
594 15-12-2019 02:52:17 9.2 C 74 %
595 15-12-2019 03:02:18 9.2 C 74 %
596 15-12-2019 03:12:18 9.3 C 74 %
597 15-12-2019 03:22:17 9.3 C 74 %
598 15-12-2019 03:32:17 9.3 C 74 %
599 15-12-2019 03:42:17 9.3 C 74 %
600 15-12-2019 03:52:17 9.3 C 74 %
Sensor: Nr:Datum:Temp:Feuchte:
G-T/H 601 15-12-2019 04:02:17 9.3 C 74 %
602 15-12-2019 04:12:17 9.3 C 74 %
603 15-12-2019 04:22:17 9.3 C 74 %
604 15-12-2019 04:32:17 9.3 C 74 %
605 15-12-2019 04:42:17 9.3 C 74 %
606 15-12-2019 04:52:17 9.2 C 74 %
607 15-12-2019 05:02:17 9.3 C 74 %
608 15-12-2019 05:12:17 9.3 C 74 %
609 15-12-2019 05:22:17 9.3 C 74 %
610 15-12-2019 05:32:18 9.3 C 74 %
611 15-12-2019 05:42:18 9.3 C 74 %
612 15-12-2019 05:52:17 9.3 C 74 %
613 15-12-2019 06:02:17 9.3 C 74 %
614 15-12-2019 06:12:17 9.4 C 74 %
615 15-12-2019 06:22:17 9.4 C 74 %
616 15-12-2019 06:32:17 9.4 C 74 %
617 15-12-2019 06:42:17 9.4 C 74 %
618 15-12-2019 06:52:17 9.4 C 74 %
619 15-12-2019 07:02:17 9.4 C 74 %
620 15-12-2019 07:12:17 9.5 C 75 %
621 15-12-2019 07:22:17 9.4 C 75 %
622 15-12-2019 07:32:17 9.5 C 75 %
623 15-12-2019 07:42:17 9.5 C 75 %
624 15-12-2019 07:52:17 9.5 C 75 %
625 15-12-2019 08:02:17 9.5 C 75 %
Sensor: Nr:Datum:Temp:Feuchte:
G-T/H 626 15-12-2019 08:12:17 9.5 C 75 %
627 15-12-2019 08:22:17 9.5 C 75 %
628 15-12-2019 08:32:18 9.5 C 75 %
629 15-12-2019 08:42:18 9.5 C 75 %
630 15-12-2019 08:52:17 9.5 C 75 %
631 15-12-2019 09:02:17 9.5 C 75 %
632 15-12-2019 09:12:17 9.5 C 75 %
633 15-12-2019 09:22:17 9.5 C 75 %
634 15-12-2019 09:32:17 9.5 C 75 %
635 15-12-2019 09:42:17 9.6 C 75 %
636 15-12-2019 09:52:18 9.6 C 75 %
637 15-12-2019 10:02:18 9.6 C 75 %
638 15-12-2019 10:12:18 9.6 C 75 %
639 15-12-2019 10:22:18 9.6 C 75 %
640 15-12-2019 10:32:17 9.6 C 75 %
641 15-12-2019 10:42:17 9.6 C 75 %
642 15-12-2019 10:52:17 9.6 C 75 %
643 15-12-2019 11:02:17 9.6 C 75 %
644 15-12-2019 11:12:17 9.6 C 75 %
645 15-12-2019 11:22:17 9.6 C 75 %
646 15-12-2019 11:32:17 9.6 C 75 %
647 15-12-2019 11:42:17 9.6 C 75 %
648 15-12-2019 11:52:17 9.6 C 75 %
649 15-12-2019 12:02:17 9.6 C 75 %
650 15-12-2019 12:12:17 9.7 C 75 %
Sensor: Nr:Datum:Temp:Feuchte:
G-T/H 651 15-12-2019 12:22:17 9.6 C 75 %
652 15-12-2019 12:32:17 9.6 C 75 %
653 15-12-2019 12:42:17 9.7 C 75 %
654 15-12-2019 12:52:18 9.7 C 75 %
655 15-12-2019 13:02:18 9.7 C 75 %
656 15-12-2019 13:12:18 9.7 C 75 %
657 15-12-2019 13:22:17 9.7 C 75 %
658 15-12-2019 13:32:17 9.7 C 75 %
659 15-12-2019 13:42:17 9.7 C 75 %
660 15-12-2019 13:52:18 9.7 C 75 %
661 15-12-2019 14:02:17 9.7 C 75 %
662 15-12-2019 14:12:17 9.7 C 75 %
663 15-12-2019 14:22:17 9.7 C 75 %
664 15-12-2019 14:32:17 9.8 C 75 %
665 15-12-2019 14:42:17 9.7 C 75 %
666 15-12-2019 14:52:17 9.7 C 75 %
667 15-12-2019 15:02:17 9.7 C 75 %
668 15-12-2019 15:12:17 9.7 C 75 %
669 15-12-2019 15:22:17 9.7 C 75 %
670 15-12-2019 15:32:17 9.8 C 75 %
671 15-12-2019 15:42:17 9.8 C 75 %
672 15-12-2019 15:52:17 9.8 C 75 %
673 15-12-2019 16:02:17 9.8 C 75 %
674 15-12-2019 16:12:17 9.8 C 75 %
675 15-12-2019 16:22:18 9.8 C 75 %
Sensor: Nr:Datum:Temp:Feuchte:
G-T/H 676 15-12-2019 16:32:17 9.8 C 75 %
677 15-12-2019 16:42:17 9.8 C 75 %
678 15-12-2019 16:52:17 9.8 C 75 %
679 15-12-2019 17:02:17 9.8 C 75 %
680 15-12-2019 17:12:17 9.8 C 75 %
681 15-12-2019 17:22:17 9.8 C 75 %
682 15-12-2019 17:32:17 9.8 C 75 %
683 15-12-2019 17:42:17 9.8 C 75 %
684 15-12-2019 17:52:17 9.8 C 75 %
685 15-12-2019 18:02:17 9.8 C 75 %
686 15-12-2019 18:12:17 9.8 C 75 %
687 15-12-2019 18:22:17 9.8 C 75 %
688 15-12-2019 18:32:17 9.8 C 75 %
689 15-12-2019 18:42:17 9.8 C 75 %
690 15-12-2019 18:52:18 9.8 C 75 %
691 15-12-2019 19:02:17 9.8 C 75 %
692 15-12-2019 19:12:17 9.8 C 75 %
693 15-12-2019 19:22:17 9.8 C 75 %
694 15-12-2019 19:32:18 9.8 C 75 %
695 15-12-2019 19:42:18 9.8 C 75 %
696 15-12-2019 19:52:17 9.8 C 75 %
697 15-12-2019 20:02:17 9.8 C 75 %
698 15-12-2019 20:12:17 9.8 C 75 %
699 15-12-2019 20:22:17 9.8 C 75 %
700 15-12-2019 20:32:17 9.8 C 75 %
Sensor: Nr:Datum:Temp:Feuchte:
G-T/H 701 15-12-2019 20:42:17 9.8 C 75 %
702 15-12-2019 20:52:17 9.8 C 75 %
703 15-12-2019 21:02:17 9.8 C 75 %
704 15-12-2019 21:12:17 9.8 C 75 %
705 15-12-2019 21:22:17 9.8 C 75 %
706 15-12-2019 21:32:18 9.8 C 75 %
707 15-12-2019 21:42:18 9.8 C 75 %
708 15-12-2019 21:52:17 9.8 C 75 %
709 15-12-2019 22:02:17 9.7 C 75 %
710 15-12-2019 22:12:17 9.7 C 75 %
711 15-12-2019 22:22:17 9.7 C 75 %
712 15-12-2019 22:32:17 9.7 C 75 %
713 15-12-2019 22:42:17 9.7 C 75 %
714 15-12-2019 22:52:18 9.7 C 75 %
715 15-12-2019 23:02:17 9.7 C 75 %
716 15-12-2019 23:12:18 9.7 C 74 %
717 15-12-2019 23:22:17 9.7 C 74 %
718 15-12-2019 23:32:18 9.7 C 74 %
719 15-12-2019 23:42:18 9.7 C 74 %
720 15-12-2019 23:52:17 9.7 C 74 %
721 16-12-2019 00:02:17 9.7 C 74 %
722 16-12-2019 00:12:17 9.7 C 74 %
723 16-12-2019 00:22:17 9.7 C 74 %
724 16-12-2019 00:32:17 9.7 C 74 %
725 16-12-2019 00:42:17 9.7 C 74 %
Sensor: Nr:Datum:Temp:Feuchte:
G-T/H 726 16-12-2019 00:52:18 9.7 C 74 %
727 16-12-2019 01:02:17 9.7 C 74 %
728 16-12-2019 01:12:17 9.7 C 74 %
729 16-12-2019 01:22:17 9.7 C 74 %
730 16-12-2019 01:32:17 9.7 C 74 %
731 16-12-2019 01:42:18 9.7 C 75 %
732 16-12-2019 01:52:17 9.7 C 75 %
733 16-12-2019 02:02:18 9.7 C 75 %
734 16-12-2019 02:12:18 9.7 C 75 %
735 16-12-2019 02:22:17 9.7 C 75 %
736 16-12-2019 02:32:17 9.7 C 75 %
737 16-12-2019 02:42:17 9.7 C 75 %
738 16-12-2019 02:52:18 9.7 C 75 %
739 16-12-2019 03:02:17 9.7 C 75 %
740 16-12-2019 03:12:17 9.7 C 75 %
741 16-12-2019 03:22:17 9.7 C 75 %
742 16-12-2019 03:32:18 9.7 C 75 %
743 16-12-2019 03:42:18 9.6 C 75 %
744 16-12-2019 03:52:17 9.7 C 75 %
745 16-12-2019 04:02:17 9.7 C 75 %
746 16-12-2019 04:12:17 9.7 C 75 %
747 16-12-2019 04:22:17 9.7 C 75 %
748 16-12-2019 04:32:17 9.7 C 75 %
749 16-12-2019 04:42:17 9.7 C 75 %
750 16-12-2019 04:52:17 9.7 C 75 %
Sensor: Nr:Datum:Temp:Feuchte:
G-T/H 751 16-12-2019 05:02:17 9.7 C 75 %
752 16-12-2019 05:12:17 9.7 C 75 %
753 16-12-2019 05:22:17 9.7 C 75 %
754 16-12-2019 05:32:17 9.7 C 75 %
755 16-12-2019 05:42:17 9.7 C 75 %
756 16-12-2019 05:52:17 9.7 C 75 %
757 16-12-2019 06:02:17 9.7 C 75 %
758 16-12-2019 06:12:17 9.7 C 75 %
759 16-12-2019 06:22:17 9.7 C 75 %
760 16-12-2019 06:32:17 9.7 C 75 %
761 16-12-2019 06:42:17 9.7 C 75 %
762 16-12-2019 06:52:17 9.7 C 75 %
763 16-12-2019 07:02:17 9.7 C 75 %
764 16-12-2019 07:12:17 9.7 C 75 %
765 16-12-2019 07:22:17 9.7 C 75 %
766 16-12-2019 07:32:18 9.7 C 75 %
767 16-12-2019 07:42:18 9.7 C 75 %
768 16-12-2019 07:52:17 9.7 C 75 %
769 16-12-2019 08:02:17 9.7 C 75 %
770 16-12-2019 08:12:17 9.7 C 75 %
771 16-12-2019 08:22:17 9.7 C 75 %
772 16-12-2019 08:32:17 9.7 C 75 %
773 16-12-2019 08:42:17 9.7 C 75 %
774 16-12-2019 08:52:17 9.7 C 75 %
775 16-12-2019 09:02:17 9.7 C 75 %
Sensor: Nr:Datum:Temp:Feuchte:
G-T/H 776 16-12-2019 09:12:17 9.8 C 76 %
777 16-12-2019 09:22:18 9.7 C 76 %
778 16-12-2019 09:32:17 9.7 C 76 %
779 16-12-2019 09:42:17 9.8 C 76 %
780 16-12-2019 09:52:17 9.8 C 76 %
781 16-12-2019 10:02:18 9.8 C 76 %
782 16-12-2019 10:12:18 9.7 C 76 %
783 16-12-2019 10:22:17 9.8 C 76 %
784 16-12-2019 10:32:17 9.8 C 76 %
785 16-12-2019 10:42:17 9.8 C 76 %
786 16-12-2019 10:52:17 9.8 C 76 %
787 16-12-2019 11:02:17 9.8 C 76 %
788 16-12-2019 11:12:17 9.8 C 76 %
789 16-12-2019 11:22:17 9.8 C 76 %
790 16-12-2019 11:32:18 9.8 C 76 %
791 16-12-2019 11:42:18 9.8 C 76 %
792 16-12-2019 11:52:17 9.8 C 76 %
793 16-12-2019 12:02:17 9.8 C 76 %
794 16-12-2019 12:12:17 9.8 C 76 %
795 16-12-2019 12:22:17 9.8 C 76 %
796 16-12-2019 12:32:17 9.9 C 76 %
797 16-12-2019 12:42:17 9.9 C 76 %
798 16-12-2019 12:52:17 9.8 C 76 %
799 16-12-2019 13:02:17 9.9 C 76 %
800 16-12-2019 13:12:17 9.9 C 76 %
Sensor: Nr:Datum:Temp:Feuchte:
G-T/H 801 16-12-2019 13:22:17 9.9 C 76 %
802 16-12-2019 13:32:17 9.9 C 76 %
803 16-12-2019 13:42:17 9.9 C 76 %
804 16-12-2019 13:52:18 9.9 C 76 %
805 16-12-2019 14:02:17 10 C 75 %
806 16-12-2019 14:12:17 9.9 C 76 %
807 16-12-2019 14:22:17 10 C 75 %
808 16-12-2019 14:32:17 10 C 75 %
809 16-12-2019 14:42:17 10 C 75 %
810 16-12-2019 14:52:18 10 C 75 %
811 16-12-2019 15:02:17 10 C 75 %
812 16-12-2019 15:12:17 10 C 75 %
813 16-12-2019 15:22:17 10 C 75 %
814 16-12-2019 15:32:18 10 C 75 %
815 16-12-2019 15:42:18 10 C 75 %
816 16-12-2019 15:52:17 10.1 C 75 %
817 16-12-2019 16:02:17 10.1 C 75 %
818 16-12-2019 16:12:17 10.1 C 75 %
819 16-12-2019 16:22:17 10.1 C 75 %
820 16-12-2019 16:32:18 10.1 C 75 %
821 16-12-2019 16:42:18 10.1 C 75 %
822 16-12-2019 16:52:17 10.1 C 75 %
823 16-12-2019 17:02:17 10.1 C 75 %
824 16-12-2019 17:12:17 10.1 C 75 %
825 16-12-2019 17:22:17 10.1 C 75 %
Sensor: Nr:Datum:Temp:Feuchte:
G-T/H 826 16-12-2019 17:32:17 10.1 C 75 %
827 16-12-2019 17:42:17 10.1 C 75 %
828 16-12-2019 17:52:17 10.1 C 75 %
829 16-12-2019 18:02:17 10.1 C 75 %
830 16-12-2019 18:12:17 10.1 C 75 %
831 16-12-2019 18:22:17 10.1 C 75 %
832 16-12-2019 18:32:17 10.1 C 75 %
833 16-12-2019 18:42:17 10.2 C 75 %
834 16-12-2019 18:52:17 10.2 C 75 %
835 16-12-2019 19:02:18 10.2 C 75 %
836 16-12-2019 19:12:18 10.2 C 75 %
837 16-12-2019 19:22:17 10.2 C 75 %
838 16-12-2019 19:32:17 10.2 C 75 %
839 16-12-2019 19:42:17 10.2 C 75 %
840 16-12-2019 19:52:18 10.2 C 75 %
841 16-12-2019 20:02:17 10.2 C 75 %
842 16-12-2019 20:12:17 10.2 C 75 %
843 16-12-2019 20:22:17 10.2 C 75 %
844 16-12-2019 20:32:17 10.2 C 75 %
845 16-12-2019 20:42:17 10.2 C 75 %
846 16-12-2019 20:52:17 10.2 C 75 %
847 16-12-2019 21:02:17 10.2 C 75 %
848 16-12-2019 21:12:17 10.2 C 75 %
849 16-12-2019 21:22:17 10.2 C 75 %
850 16-12-2019 21:32:17 10.2 C 75 %
Sensor: Nr:Datum:Temp:Feuchte:
G-T/H 851 16-12-2019 21:42:17 10.3 C 75 %
852 16-12-2019 21:52:17 10.2 C 75 %
853 16-12-2019 22:02:17 10.2 C 75 %
854 16-12-2019 22:12:17 10.2 C 75 %
855 16-12-2019 22:22:17 10.2 C 75 %
856 16-12-2019 22:32:17 10.3 C 75 %
857 16-12-2019 22:42:17 10.2 C 75 %
858 16-12-2019 22:52:18 10.2 C 75 %
859 16-12-2019 23:02:17 10.2 C 75 %
860 16-12-2019 23:12:17 10.2 C 75 %
861 16-12-2019 23:22:17 10.2 C 75 %
862 16-12-2019 23:32:17 10.2 C 75 %
863 16-12-2019 23:42:17 10.2 C 75 %
864 16-12-2019 23:52:18 10.2 C 75 %
865 17-12-2019 00:02:17 10.2 C 75 %
866 17-12-2019 00:12:17 10.2 C 75 %
867 17-12-2019 00:22:17 10.3 C 75 %
868 17-12-2019 00:32:18 10.2 C 75 %
869 17-12-2019 00:42:18 10.3 C 75 %
870 17-12-2019 00:52:17 10.2 C 75 %
871 17-12-2019 01:02:17 10.2 C 75 %
872 17-12-2019 01:12:17 10.2 C 75 %
873 17-12-2019 01:22:17 10.3 C 75 %
874 17-12-2019 01:32:17 10.2 C 75 %
875 17-12-2019 01:42:17 10.2 C 75 %
Sensor: Nr:Datum:Temp:Feuchte:
G-T/H 876 17-12-2019 01:52:17 10.3 C 75 %
877 17-12-2019 02:02:18 10.2 C 75 %
878 17-12-2019 02:12:18 10.3 C 75 %
879 17-12-2019 02:22:17 10.3 C 75 %
880 17-12-2019 02:32:17 10.2 C 75 %
881 17-12-2019 02:42:17 10.2 C 75 %
882 17-12-2019 02:52:18 10.3 C 75 %
883 17-12-2019 03:02:17 10.2 C 75 %
884 17-12-2019 03:12:17 10.2 C 75 %
885 17-12-2019 03:22:17 10.2 C 75 %
886 17-12-2019 03:32:17 10.3 C 75 %
887 17-12-2019 03:42:17 10.2 C 75 %
888 17-12-2019 03:52:18 10.3 C 75 %
889 17-12-2019 04:02:17 10.3 C 75 %
890 17-12-2019 04:12:17 10.3 C 75 %
891 17-12-2019 04:22:17 10.2 C 75 %
892 17-12-2019 04:32:17 10.3 C 75 %
893 17-12-2019 04:42:17 10.3 C 75 %
894 17-12-2019 04:52:18 10.2 C 75 %
895 17-12-2019 05:02:17 10.3 C 75 %
896 17-12-2019 05:12:17 10.2 C 75 %
897 17-12-2019 05:22:17 10.3 C 75 %
898 17-12-2019 05:32:17 10.2 C 75 %
899 17-12-2019 05:42:17 10.3 C 75 %
900 17-12-2019 05:52:17 10.3 C 75 %
Sensor: Nr:Datum:Temp:Feuchte:
G-T/H 901 17-12-2019 06:02:17 10.3 C 75 %
902 17-12-2019 06:12:17 10.2 C 75 %
903 17-12-2019 06:22:18 10.3 C 75 %
904 17-12-2019 06:32:17 10.3 C 75 %
905 17-12-2019 06:42:17 10.2 C 75 %
906 17-12-2019 06:52:17 10.3 C 75 %
907 17-12-2019 07:02:17 10.3 C 75 %
908 17-12-2019 07:12:17 10.3 C 75 %
909 17-12-2019 07:22:17 10.3 C 75 %
910 17-12-2019 07:32:18 10.3 C 75 %
911 17-12-2019 07:42:18 10.3 C 75 %
912 17-12-2019 07:52:17 10.2 C 75 %
913 17-12-2019 08:02:17 10.3 C 75 %
914 17-12-2019 08:12:17 10.3 C 75 %
915 17-12-2019 08:22:17 10.2 C 75 %
916 17-12-2019 08:32:17 10.3 C 75 %
917 17-12-2019 08:42:18 10.3 C 75 %
918 17-12-2019 08:52:17 10.3 C 75 %
919 17-12-2019 09:02:17 10.3 C 75 %
920 17-12-2019 09:12:17 10.3 C 75 %
921 17-12-2019 09:22:18 10.3 C 75 %
922 17-12-2019 09:32:17 10.3 C 75 %
923 17-12-2019 09:42:17 10.3 C 75 %
924 17-12-2019 09:52:17 10.3 C 75 %
925 17-12-2019 10:02:18 10.3 C 75 %
Sensor: Nr:Datum:Temp:Feuchte:
G-T/H 926 17-12-2019 10:12:18 10.2 C 75 %
927 17-12-2019 10:22:17 10.3 C 75 %
928 17-12-2019 10:32:17 10.3 C 75 %
929 17-12-2019 10:42:17 10.2 C 75 %
930 17-12-2019 10:52:17 10.3 C 75 %
931 17-12-2019 11:02:17 10.3 C 75 %
932 17-12-2019 11:12:17 10.3 C 75 %
933 17-12-2019 11:22:17 10.3 C 75 %
934 17-12-2019 11:32:17 10.3 C 75 %
935 17-12-2019 11:42:17 10.3 C 75 %
936 17-12-2019 11:52:17 10.3 C 75 %
937 17-12-2019 12:02:17 10.3 C 75 %
938 17-12-2019 12:12:17 10.3 C 75 %
939 17-12-2019 12:22:17 10.3 C 75 %
940 17-12-2019 12:32:17 10.3 C 75 %
941 17-12-2019 12:42:17 10.3 C 75 %
942 17-12-2019 12:52:17 10.3 C 75 %
943 17-12-2019 13:02:17 10.3 C 75 %
944 17-12-2019 13:12:17 10.3 C 75 %
945 17-12-2019 13:22:17 10.3 C 76 %
946 17-12-2019 13:32:17 10.3 C 76 %
947 17-12-2019 13:42:17 10.3 C 76 %
948 17-12-2019 13:52:18 10.3 C 76 %
949 17-12-2019 14:02:17 10.3 C 76 %
950 17-12-2019 14:12:17 10.3 C 76 %
Sensor: Nr:Datum:Temp:Feuchte:
G-T/H 951 17-12-2019 14:22:17 10.3 C 76 %
952 17-12-2019 14:32:17 10.4 C 76 %
953 17-12-2019 14:42:17 10.4 C 76 %
954 17-12-2019 14:52:17 10.4 C 76 %
955 17-12-2019 15:02:17 10.4 C 76 %
956 17-12-2019 15:12:17 10.4 C 76 %
957 17-12-2019 15:22:17 10.4 C 76 %
958 17-12-2019 15:32:17 10.4 C 76 %
959 17-12-2019 15:42:17 10.4 C 76 %
960 17-12-2019 15:52:18 10.4 C 76 %
961 17-12-2019 16:02:17 10.4 C 76 %
962 17-12-2019 16:12:17 10.4 C 76 %
963 17-12-2019 16:22:17 10.4 C 76 %
964 17-12-2019 16:32:18 10.4 C 76 %
965 17-12-2019 16:42:18 10.4 C 76 %
966 17-12-2019 16:52:17 10.4 C 76 %
967 17-12-2019 17:02:17 10.4 C 76 %
968 17-12-2019 17:12:18 10.4 C 76 %
969 17-12-2019 17:22:17 10.4 C 76 %
970 17-12-2019 17:32:18 10.4 C 76 %
971 17-12-2019 17:42:18 10.5 C 76 %
972 17-12-2019 17:52:17 10.5 C 76 %
973 17-12-2019 18:02:17 10.5 C 76 %
974 17-12-2019 18:12:17 10.5 C 76 %
975 17-12-2019 18:22:17 10.5 C 76 %
Sensor: Nr:Datum:Temp:Feuchte:
G-T/H 976 17-12-2019 18:32:17 10.5 C 76 %
977 17-12-2019 18:42:17 10.8 C 76 %
978 17-12-2019 18:52:17 10.9 C 76 %
979 17-12-2019 19:02:17 11 C 76 %
980 17-12-2019 19:12:17 11.1 C 76 %
981 17-12-2019 19:22:17 11 C 75 %
982 17-12-2019 19:32:18 11 C 75 %
983 17-12-2019 19:42:18 10.9 C 76 %
984 17-12-2019 19:52:17 10.9 C 76 %
985 17-12-2019 20:02:18 10.8 C 76 %
986 17-12-2019 20:12:18 10.9 C 76 %
987 17-12-2019 20:22:17 10.8 C 76 %
988 17-12-2019 20:32:17 10.8 C 76 %
989 17-12-2019 20:42:17 10.8 C 76 %
990 17-12-2019 20:52:17 10.8 C 76 %
991 17-12-2019 21:02:17 10.8 C 76 %
992 17-12-2019 21:12:17 10.8 C 76 %
993 17-12-2019 21:22:17 10.8 C 76 %
994 17-12-2019 21:32:17 10.8 C 76 %
995 17-12-2019 21:42:17 10.8 C 76 %
996 17-12-2019 21:52:17 10.9 C 76 %
997 17-12-2019 22:02:17 10.8 C 76 %
998 17-12-2019 22:12:17 10.9 C 76 %
999 17-12-2019 22:22:17 10.9 C 76 %
1000 17-12-2019 22:32:17 10.9 C 76 %
Sensor: Nr:Datum:Temp:Feuchte:
G-T/H 1001 17-12-2019 22:42:17 10.9 C 76 %
1002 17-12-2019 22:52:17 10.9 C 76 %
1003 17-12-2019 23:02:17 10.9 C 76 %
1004 17-12-2019 23:12:17 10.9 C 77 %
1005 17-12-2019 23:22:17 10.9 C 77 %
1006 17-12-2019 23:32:17 10.9 C 77 %
1007 17-12-2019 23:42:17 11 C 76 %
1008 17-12-2019 23:52:17 10.9 C 77 %
1009 18-12-2019 00:02:17 11 C 76 %
1010 18-12-2019 00:12:17 11 C 76 %
1011 18-12-2019 00:22:17 11 C 76 %
1012 18-12-2019 00:32:18 11 C 76 %
1013 18-12-2019 00:42:18 11 C 76 %
1014 18-12-2019 00:52:17 11 C 76 %
1015 18-12-2019 01:02:17 11 C 76 %
1016 18-12-2019 01:12:17 11 C 76 %
1017 18-12-2019 01:22:17 11 C 76 %
1018 18-12-2019 01:32:18 11 C 76 %
1019 18-12-2019 01:42:18 11 C 76 %
1020 18-12-2019 01:52:17 11 C 76 %
1021 18-12-2019 02:02:17 11 C 76 %
1022 18-12-2019 02:12:17 11 C 76 %
1023 18-12-2019 02:22:17 11.1 C 76 %
1024 18-12-2019 02:32:17 11 C 76 %
1025 18-12-2019 02:42:18 11 C 76 %
Sensor: Nr:Datum:Temp:Feuchte:
G-T/H 1026 18-12-2019 02:52:17 11.1 C 76 %
1027 18-12-2019 03:02:17 11 C 76 %
1028 18-12-2019 03:12:17 11.1 C 76 %
1029 18-12-2019 03:22:18 11.1 C 76 %
1030 18-12-2019 03:32:17 11.1 C 76 %
1031 18-12-2019 03:42:17 11.1 C 76 %
1032 18-12-2019 03:52:18 11.1 C 76 %
1033 18-12-2019 04:02:18 11.1 C 76 %
1034 18-12-2019 04:12:18 11.1 C 76 %
1035 18-12-2019 04:22:17 11.1 C 76 %
1036 18-12-2019 04:32:18 11.1 C 76 %
1037 18-12-2019 04:42:18 11.1 C 76 %
1038 18-12-2019 04:52:17 11.1 C 76 %
1039 18-12-2019 05:02:18 11.1 C 76 %
1040 18-12-2019 05:12:18 11.1 C 76 %
1041 18-12-2019 05:22:17 11.1 C 76 %
1042 18-12-2019 05:32:17 11.1 C 76 %
1043 18-12-2019 05:42:17 11.1 C 76 %
1044 18-12-2019 05:52:17 11.1 C 76 %
1045 18-12-2019 06:02:18 11.1 C 76 %
1046 18-12-2019 06:12:18 11.1 C 76 %
1047 18-12-2019 06:22:17 11.1 C 76 %
1048 18-12-2019 06:32:18 11.1 C 76 %
1049 18-12-2019 06:42:18 11.1 C 76 %
1050 18-12-2019 06:52:17 11.1 C 76 %
Sensor: Nr:Datum:Temp:Feuchte:
G-T/H 1051 18-12-2019 07:02:17 11.1 C 76 %
1052 18-12-2019 07:12:17 11.1 C 76 %
1053 18-12-2019 07:22:17 11.1 C 76 %
1054 18-12-2019 07:32:17 11.1 C 76 %
1055 18-12-2019 07:42:17 11.1 C 76 %
1056 18-12-2019 07:52:17 11.1 C 76 %
1057 18-12-2019 08:02:17 11.1 C 76 %
1058 18-12-2019 08:12:17 11.1 C 76 %
1059 18-12-2019 08:22:17 11.1 C 76 %
1060 18-12-2019 08:32:17 11.1 C 76 %
1061 18-12-2019 08:42:17 11.1 C 76 %
1062 18-12-2019 08:52:17 11.1 C 76 %
1063 18-12-2019 09:02:17 11.1 C 76 %
1064 18-12-2019 09:12:17 11.1 C 76 %
1065 18-12-2019 09:22:17 11.1 C 76 %
1066 18-12-2019 09:32:17 11.1 C 76 %
1067 18-12-2019 09:42:17 11.1 C 76 %
1068 18-12-2019 09:52:17 11.1 C 76 %
1069 18-12-2019 10:02:17 11.1 C 76 %
1070 18-12-2019 10:12:18 11.1 C 76 %
1071 18-12-2019 10:22:17 11.1 C 76 %
1072 18-12-2019 10:32:17 11.1 C 76 %
1073 18-12-2019 10:42:17 11.1 C 76 %
1074 18-12-2019 10:52:17 11.1 C 76 %
1075 18-12-2019 11:02:17 11.1 C 76 %
Sensor: Nr:Datum:Temp:Feuchte:
G-T/H 1076 18-12-2019 11:12:17 11.1 C 76 %
1077 18-12-2019 11:22:17 11.1 C 76 %
1078 18-12-2019 11:32:18 11 C 76 %
1079 18-12-2019 11:42:18 11.1 C 76 %
1080 18-12-2019 11:52:17 11 C 76 %
1081 18-12-2019 12:02:17 11.1 C 76 %
1082 18-12-2019 12:12:17 11.1 C 76 %
1083 18-12-2019 12:22:17 11.1 C 76 %
1084 18-12-2019 12:32:17 11 C 76 %
1085 18-12-2019 12:42:17 11.1 C 76 %
1086 18-12-2019 12:52:17 11.1 C 76 %
1087 18-12-2019 13:02:17 11.1 C 76 %
1088 18-12-2019 13:12:17 11 C 76 %
1089 18-12-2019 13:22:17 11 C 76 %
1090 18-12-2019 13:32:18 11 C 76 %
1091 18-12-2019 13:42:18 11 C 76 %
1092 18-12-2019 13:52:17 11 C 76 %
1093 18-12-2019 14:02:18 11 C 76 %
1094 18-12-2019 14:12:18 11 C 75 %
1095 18-12-2019 14:22:17 11 C 75 %
1096 18-12-2019 14:32:17 11 C 75 %
1097 18-12-2019 14:42:17 11 C 75 %
1098 18-12-2019 14:52:17 10.9 C 76 %
1099 18-12-2019 15:02:17 11 C 75 %
1100 18-12-2019 15:12:17 11 C 75 %
Sensor: Nr:Datum:Temp:Feuchte:
G-T/H 1101 18-12-2019 15:22:17 11 C 75 %
1102 18-12-2019 15:32:17 11 C 75 %
1103 18-12-2019 15:42:17 11 C 75 %
1104 18-12-2019 15:52:17 10.9 C 76 %
1105 18-12-2019 16:02:17 10.9 C 76 %
1106 18-12-2019 16:12:17 10.9 C 76 %
1107 18-12-2019 16:22:17 10.9 C 76 %
1108 18-12-2019 16:32:17 10.9 C 76 %
1109 18-12-2019 16:42:17 10.9 C 76 %
1110 18-12-2019 16:52:17 10.8 C 76 %
1111 18-12-2019 17:02:17 10.8 C 76 %
1112 18-12-2019 17:12:17 10.8 C 75 %
1113 18-12-2019 17:22:17 10.8 C 75 %
1114 18-12-2019 17:32:17 10.8 C 75 %
1115 18-12-2019 17:42:17 10.8 C 75 %
1116 18-12-2019 17:52:18 10.8 C 75 %
1117 18-12-2019 18:02:17 10.8 C 75 %
1118 18-12-2019 18:12:17 10.8 C 75 %
1119 18-12-2019 18:22:17 10.8 C 75 %
1120 18-12-2019 18:32:17 10.8 C 75 %
1121 18-12-2019 18:42:17 10.7 C 75 %
1122 18-12-2019 18:52:17 10.7 C 75 %
1123 18-12-2019 19:02:17 10.7 C 75 %
1124 18-12-2019 19:12:17 10.7 C 75 %
1125 18-12-2019 19:22:17 10.7 C 75 %
Sensor: Nr:Datum:Temp:Feuchte:
G-T/H 1126 18-12-2019 19:32:18 10.7 C 75 %
1127 18-12-2019 19:42:18 10.7 C 75 %
1128 18-12-2019 19:52:17 10.7 C 75 %
1129 18-12-2019 20:02:17 10.7 C 75 %
1130 18-12-2019 20:12:17 10.7 C 75 %
1131 18-12-2019 20:22:17 10.7 C 75 %
1132 18-12-2019 20:32:17 10.7 C 75 %
1133 18-12-2019 20:42:18 10.7 C 75 %
1134 18-12-2019 20:52:17 10.7 C 75 %
1135 18-12-2019 21:02:17 10.6 C 74 %
1136 18-12-2019 21:12:17 10.6 C 74 %
1137 18-12-2019 21:22:17 10.6 C 74 %
1138 18-12-2019 21:32:17 10.6 C 74 %
1139 18-12-2019 21:42:17 10.6 C 74 %
1140 18-12-2019 21:52:17 10.6 C 74 %
1141 18-12-2019 22:02:17 10.5 C 74 %
1142 18-12-2019 22:12:17 10.5 C 74 %
1143 18-12-2019 22:22:17 10.5 C 74 %
1144 18-12-2019 22:32:17 10.4 C 74 %
1145 18-12-2019 22:42:17 10.4 C 74 %
1146 18-12-2019 22:52:17 10.4 C 74 %
1147 18-12-2019 23:02:17 10.4 C 73 %
1148 18-12-2019 23:12:17 10.4 C 73 %
1149 18-12-2019 23:22:18 10.4 C 73 %
1150 18-12-2019 23:32:17 10.3 C 73 %
Sensor: Nr:Datum:Temp:Feuchte:
G-T/H 1151 18-12-2019 23:42:17 10.3 C 73 %
1152 18-12-2019 23:52:17 10.3 C 73 %
1153 19-12-2019 00:02:18 10.2 C 73 %
1154 19-12-2019 00:12:18 10.2 C 73 %
1155 19-12-2019 00:22:17 10.2 C 73 %
1156 19-12-2019 00:32:17 10.2 C 72 %
1157 19-12-2019 00:42:17 10.2 C 72 %
1158 19-12-2019 00:52:18 10.2 C 72 %
1159 19-12-2019 01:02:17 10.2 C 72 %
1160 19-12-2019 01:12:17 10.2 C 72 %
1161 19-12-2019 01:22:17 10.1 C 72 %
1162 19-12-2019 01:32:18 10.1 C 72 %
1163 19-12-2019 01:42:18 10.1 C 72 %
1164 19-12-2019 01:52:17 10.1 C 72 %
1165 19-12-2019 02:02:17 10.1 C 72 %
1166 19-12-2019 02:12:17 10.1 C 72 %
1167 19-12-2019 02:22:17 10 C 72 %
1168 19-12-2019 02:32:18 10 C 72 %
1169 19-12-2019 02:42:18 10 C 72 %
1170 19-12-2019 02:52:17 10 C 72 %
1171 19-12-2019 03:02:18 10 C 71 %
1172 19-12-2019 03:12:18 10 C 71 %
1173 19-12-2019 03:22:17 10 C 71 %
1174 19-12-2019 03:32:17 9.9 C 72 %
1175 19-12-2019 03:42:17 9.9 C 72 %
Sensor: Nr:Datum:Temp:Feuchte:
G-T/H 1176 19-12-2019 03:52:17 9.9 C 72 %
1177 19-12-2019 04:02:17 9.9 C 72 %
1178 19-12-2019 04:12:17 9.9 C 72 %
1179 19-12-2019 04:22:18 9.9 C 72 %
1180 19-12-2019 04:32:17 9.9 C 72 %
1181 19-12-2019 04:42:17 9.9 C 72 %
1182 19-12-2019 04:52:18 9.9 C 72 %
1183 19-12-2019 05:02:17 9.9 C 72 %
1184 19-12-2019 05:12:17 9.9 C 73 %
1185 19-12-2019 05:22:17 9.9 C 73 %
1186 19-12-2019 05:32:17 9.9 C 73 %
1187 19-12-2019 05:42:17 9.8 C 73 %
1188 19-12-2019 05:52:17 9.8 C 73 %
1189 19-12-2019 06:02:17 9.8 C 73 %
1190 19-12-2019 06:12:17 9.8 C 73 %
1191 19-12-2019 06:22:17 9.8 C 73 %
1192 19-12-2019 06:32:17 9.8 C 73 %
1193 19-12-2019 06:42:18 9.8 C 73 %
1194 19-12-2019 06:52:17 9.8 C 73 %
1195 19-12-2019 07:02:17 9.8 C 73 %
1196 19-12-2019 07:12:17 9.8 C 73 %
1197 19-12-2019 07:22:17 9.8 C 73 %
1198 19-12-2019 07:32:17 9.7 C 73 %
1199 19-12-2019 07:42:18 9.8 C 73 %
1200 19-12-2019 07:52:17 9.8 C 73 %
Sensor: Nr:Datum:Temp:Feuchte:
G-T/H 1201 19-12-2019 08:02:18 9.8 C 73 %
1202 19-12-2019 08:12:18 9.7 C 73 %
1203 19-12-2019 08:22:17 9.7 C 73 %
1204 19-12-2019 08:32:18 9.7 C 73 %
1205 19-12-2019 08:42:18 9.7 C 73 %
1206 19-12-2019 08:52:17 9.7 C 73 %
1207 19-12-2019 09:02:17 9.7 C 73 %
1208 19-12-2019 09:12:17 9.7 C 73 %
1209 19-12-2019 09:22:17 9.7 C 73 %
1210 19-12-2019 09:32:17 9.7 C 73 %
1211 19-12-2019 09:42:17 9.7 C 73 %
1212 19-12-2019 09:52:17 9.7 C 73 %
1213 19-12-2019 10:02:17 9.7 C 73 %
1214 19-12-2019 10:12:17 9.7 C 73 %
1215 19-12-2019 10:22:17 9.6 C 73 %
1216 19-12-2019 10:32:17 9.7 C 73 %
1217 19-12-2019 10:42:17 9.7 C 73 %
1218 19-12-2019 10:52:18 9.6 C 73 %
1219 19-12-2019 11:02:17 9.6 C 74 %
1220 19-12-2019 11:12:17 9.6 C 74 %
1221 19-12-2019 11:22:17 9.7 C 74 %
1222 19-12-2019 11:32:17 9.7 C 74 %
1223 19-12-2019 11:42:17 9.7 C 74 %
1224 19-12-2019 11:52:18 9.7 C 74 %
1225 19-12-2019 12:02:17 9.7 C 74 %
Sensor: Nr:Datum:Temp:Feuchte:
G-T/H 1226 19-12-2019 12:12:17 9.6 C 74 %
1227 19-12-2019 12:22:17 9.7 C 74 %
1228 19-12-2019 12:32:17 9.6 C 74 %
1229 19-12-2019 12:42:17 9.6 C 74 %
1230 19-12-2019 12:52:17 9.6 C 74 %
1231 19-12-2019 13:02:17 9.6 C 74 %
1232 19-12-2019 13:12:17 9.6 C 74 %
1233 19-12-2019 13:22:17 9.6 C 74 %
1234 19-12-2019 13:32:17 9.6 C 74 %
1235 19-12-2019 13:42:17 9.6 C 74 %
1236 19-12-2019 13:52:17 9.6 C 74 %
1237 19-12-2019 14:02:17 9.6 C 74 %
1238 19-12-2019 14:12:17 9.7 C 74 %
1239 19-12-2019 14:22:17 9.6 C 74 %
1240 19-12-2019 14:32:17 9.7 C 74 %
1241 19-12-2019 14:42:17 9.6 C 74 %
1242 19-12-2019 14:52:17 9.6 C 74 %
1243 19-12-2019 15:02:17 9.6 C 74 %
1244 19-12-2019 15:12:17 9.7 C 74 %
1245 19-12-2019 15:22:17 9.6 C 74 %
1246 19-12-2019 15:32:18 9.6 C 74 %
1247 19-12-2019 15:42:18 9.6 C 74 %
1248 19-12-2019 15:52:17 9.7 C 75 %
1249 19-12-2019 16:02:17 9.7 C 75 %
1250 19-12-2019 16:12:17 9.6 C 75 %
Sensor: Nr:Datum:Temp:Feuchte:
G-T/H 1251 19-12-2019 16:22:18 9.6 C 75 %
1252 19-12-2019 16:32:17 9.7 C 75 %
1253 19-12-2019 16:42:17 9.7 C 75 %
1254 19-12-2019 16:52:17 9.7 C 75 %
1255 19-12-2019 17:02:17 9.7 C 75 %
1256 19-12-2019 17:12:17 9.7 C 75 %
1257 19-12-2019 17:22:17 9.7 C 75 %
1258 19-12-2019 17:32:17 9.7 C 75 %
1259 19-12-2019 17:42:17 9.7 C 75 %
1260 19-12-2019 17:52:17 9.7 C 75 %
1261 19-12-2019 18:02:17 9.7 C 75 %
1262 19-12-2019 18:12:18 9.7 C 75 %
1263 19-12-2019 18:22:17 9.7 C 75 %
1264 19-12-2019 18:32:17 9.7 C 75 %
1265 19-12-2019 18:42:17 9.7 C 75 %
1266 19-12-2019 18:52:18 9.7 C 75 %
1267 19-12-2019 19:02:17 9.6 C 75 %
1268 19-12-2019 19:12:17 9.7 C 75 %
1269 19-12-2019 19:22:18 9.7 C 75 %
1270 19-12-2019 19:32:17 9.7 C 75 %
1271 19-12-2019 19:42:17 9.7 C 75 %
1272 19-12-2019 19:52:17 9.7 C 75 %
1273 19-12-2019 20:02:17 9.7 C 75 %
1274 19-12-2019 20:12:17 9.7 C 75 %
1275 19-12-2019 20:22:17 9.7 C 75 %
Sensor: Nr:Datum:Temp:Feuchte:
G-T/H 1276 19-12-2019 20:32:17 9.7 C 75 %
1277 19-12-2019 20:42:17 9.7 C 75 %
1278 19-12-2019 20:52:17 9.7 C 75 %
1279 19-12-2019 21:02:17 9.7 C 75 %
1280 19-12-2019 21:12:18 9.7 C 75 %
1281 19-12-2019 21:22:17 9.7 C 75 %
1282 19-12-2019 21:32:17 9.7 C 75 %
1283 19-12-2019 21:42:17 9.7 C 75 %
1284 19-12-2019 21:52:17 9.7 C 75 %
1285 19-12-2019 22:02:17 9.6 C 75 %
1286 19-12-2019 22:12:17 9.6 C 75 %
1287 19-12-2019 22:22:18 9.7 C 75 %
1288 19-12-2019 22:32:18 9.7 C 75 %
1289 19-12-2019 22:42:18 9.6 C 75 %
1290 19-12-2019 22:52:17 9.7 C 75 %
1291 19-12-2019 23:02:17 9.7 C 75 %
1292 19-12-2019 23:12:17 9.7 C 75 %
1293 19-12-2019 23:22:17 9.7 C 75 %
1294 19-12-2019 23:32:17 9.7 C 75 %
1295 19-12-2019 23:42:17 9.7 C 75 %
1296 19-12-2019 23:52:17 9.6 C 75 %
1297 20-12-2019 00:02:17 9.7 C 75 %
1298 20-12-2019 00:12:17 9.7 C 75 %
1299 20-12-2019 00:22:17 9.7 C 75 %
1300 20-12-2019 00:32:17 9.6 C 75 %
Sensor: Nr:Datum:Temp:Feuchte:
G-T/H 1301 20-12-2019 00:42:17 9.6 C 75 %
1302 20-12-2019 00:52:17 9.6 C 75 %
1303 20-12-2019 01:02:17 9.6 C 75 %
1304 20-12-2019 01:12:17 9.6 C 75 %
1305 20-12-2019 01:22:17 9.6 C 75 %
1306 20-12-2019 01:32:17 9.6 C 75 %
1307 20-12-2019 01:42:17 9.6 C 75 %
1308 20-12-2019 01:52:17 9.7 C 74 %
1309 20-12-2019 02:02:17 9.6 C 74 %
1310 20-12-2019 02:12:17 9.6 C 74 %
1311 20-12-2019 02:22:17 9.6 C 74 %
1312 20-12-2019 02:32:18 9.6 C 74 %
1313 20-12-2019 02:42:18 9.6 C 74 %
1314 20-12-2019 02:52:17 9.6 C 74 %
1315 20-12-2019 03:02:17 9.6 C 74 %
1316 20-12-2019 03:12:17 9.6 C 74 %
1317 20-12-2019 03:22:17 9.6 C 74 %
1318 20-12-2019 03:32:17 9.6 C 74 %
1319 20-12-2019 03:42:17 9.6 C 74 %
1320 20-12-2019 03:52:17 9.6 C 74 %
1321 20-12-2019 04:02:17 9.6 C 74 %
1322 20-12-2019 04:12:17 9.5 C 74 %
1323 20-12-2019 04:22:17 9.6 C 74 %
1324 20-12-2019 04:32:18 9.6 C 74 %
1325 20-12-2019 04:42:18 9.6 C 74 %
Sensor: Nr:Datum:Temp:Feuchte:
G-T/H 1326 20-12-2019 04:52:17 9.6 C 74 %
1327 20-12-2019 05:02:17 9.6 C 74 %
1328 20-12-2019 05:12:17 9.6 C 74 %
1329 20-12-2019 05:22:17 9.6 C 74 %
1330 20-12-2019 05:32:17 9.5 C 74 %
1331 20-12-2019 05:42:17 9.5 C 74 %
1332 20-12-2019 05:52:18 9.5 C 74 %
1333 20-12-2019 06:02:18 9.5 C 74 %
1334 20-12-2019 06:12:18 9.5 C 74 %
1335 20-12-2019 06:22:17 9.5 C 74 %
1336 20-12-2019 06:32:17 9.5 C 74 %
1337 20-12-2019 06:42:17 9.5 C 74 %
1338 20-12-2019 06:52:17 9.6 C 74 %
1339 20-12-2019 07:02:17 9.5 C 74 %
1340 20-12-2019 07:12:17 9.6 C 74 %
1341 20-12-2019 07:22:17 9.5 C 74 %
1342 20-12-2019 07:32:17 9.5 C 74 %
1343 20-12-2019 07:42:17 9.5 C 74 %
1344 20-12-2019 07:52:17 9.5 C 74 %
1345 20-12-2019 08:02:17 9.5 C 74 %
1346 20-12-2019 08:12:17 9.5 C 74 %
1347 20-12-2019 08:22:17 9.5 C 74 %
1348 20-12-2019 08:32:18 9.5 C 75 %
1349 20-12-2019 08:42:18 9.5 C 75 %
1350 20-12-2019 08:52:17 9.5 C 75 %
Sensor: Nr:Datum:Temp:Feuchte:
G-T/H 1351 20-12-2019 09:02:17 9.5 C 75 %
1352 20-12-2019 09:12:17 9.5 C 75 %
1353 20-12-2019 09:22:17 9.5 C 75 %
1354 20-12-2019 09:32:17 9.5 C 75 %
1355 20-12-2019 09:42:17 9.6 C 75 %
1356 20-12-2019 09:52:17 9.5 C 75 %
1357 20-12-2019 10:02:17 9.6 C 75 %
1358 20-12-2019 10:12:17 9.5 C 75 %
1359 20-12-2019 10:22:17 9.5 C 75 %
1360 20-12-2019 10:32:17 9.5 C 75 %
1361 20-12-2019 10:42:17 9.5 C 75 %
1362 20-12-2019 10:52:17 9.6 C 75 %
1363 20-12-2019 11:02:17 9.6 C 75 %
1364 20-12-2019 11:12:17 9.6 C 75 %
1365 20-12-2019 11:22:17 9.5 C 75 %
1366 20-12-2019 11:32:17 9.6 C 75 %
1367 20-12-2019 11:42:17 9.6 C 75 %
1368 20-12-2019 11:52:17 9.6 C 75 %
1369 20-12-2019 12:02:18 9.6 C 75 %
1370 20-12-2019 12:12:18 9.5 C 75 %
1371 20-12-2019 12:22:18 9.5 C 75 %
1372 20-12-2019 12:32:17 9.5 C 75 %
1373 20-12-2019 12:42:18 9.6 C 75 %
1374 20-12-2019 12:52:17 9.6 C 75 %
1375 20-12-2019 13:02:18 9.6 C 75 %
Sensor: Nr:Datum:Temp:Feuchte:
G-T/H 1376 20-12-2019 13:12:18 9.6 C 75 %
1377 20-12-2019 13:22:17 9.6 C 75 %
1378 20-12-2019 13:32:17 9.6 C 75 %
1379 20-12-2019 13:42:17 9.6 C 75 %
1380 20-12-2019 13:52:17 9.6 C 75 %
1381 20-12-2019 14:02:17 9.6 C 75 %
1382 20-12-2019 14:12:17 9.6 C 76 %
1383 20-12-2019 14:22:17 9.6 C 76 %
1384 20-12-2019 14:32:17 9.7 C 76 %
1385 20-12-2019 14:42:17 9.6 C 76 %
1386 20-12-2019 14:52:18 9.7 C 76 %
1387 20-12-2019 15:02:17 9.7 C 76 %
1388 20-12-2019 15:12:17 9.7 C 76 %
1389 20-12-2019 15:22:17 9.7 C 76 %
1390 20-12-2019 15:32:17 9.7 C 76 %
1391 20-12-2019 15:42:17 9.7 C 76 %
1392 20-12-2019 15:52:17 9.7 C 76 %
1393 20-12-2019 16:02:17 9.7 C 76 %
1394 20-12-2019 16:12:18 9.7 C 76 %
1395 20-12-2019 16:22:17 9.7 C 76 %
1396 20-12-2019 16:32:17 9.7 C 76 %
1397 20-12-2019 16:42:17 9.7 C 76 %
1398 20-12-2019 16:52:18 9.8 C 76 %
1399 20-12-2019 17:02:17 9.8 C 76 %
1400 20-12-2019 17:12:18 9.8 C 76 %
Sensor: Nr:Datum:Temp:Feuchte:
G-T/H 1401 20-12-2019 17:22:17 9.8 C 76 %
1402 20-12-2019 17:32:17 9.8 C 76 %
1403 20-12-2019 17:42:17 9.8 C 76 %
1404 20-12-2019 17:52:18 9.8 C 76 %
1405 20-12-2019 18:02:17 9.8 C 76 %
1406 20-12-2019 18:12:17 9.8 C 76 %
1407 20-12-2019 18:22:17 9.9 C 76 %
1408 20-12-2019 18:32:17 9.8 C 76 %
1409 20-12-2019 18:42:17 9.9 C 76 %
1410 20-12-2019 18:52:18 9.9 C 76 %
1411 20-12-2019 19:02:17 9.9 C 76 %
1412 20-12-2019 19:12:17 9.9 C 76 %
1413 20-12-2019 19:22:17 9.9 C 77 %
1414 20-12-2019 19:32:17 9.9 C 77 %
1415 20-12-2019 19:42:17 9.9 C 77 %
1416 20-12-2019 19:52:18 9.9 C 77 %
1417 20-12-2019 20:02:18 10 C 75 %
1418 20-12-2019 20:12:18 9.9 C 77 %
1419 20-12-2019 20:22:17 9.9 C 77 %
1420 20-12-2019 20:32:18 10 C 75 %
1421 20-12-2019 20:42:18 10 C 75 %
1422 20-12-2019 20:52:17 10 C 75 %
1423 20-12-2019 21:02:18 10 C 75 %
1424 20-12-2019 21:12:18 10 C 75 %
1425 20-12-2019 21:22:17 10 C 75 %
Sensor: Nr:Datum:Temp:Feuchte:
G-T/H 1426 20-12-2019 21:32:17 10 C 75 %
1427 20-12-2019 21:42:17 10 C 75 %
1428 20-12-2019 21:52:17 10 C 75 %
1429 20-12-2019 22:02:17 10 C 75 %
1430 20-12-2019 22:12:17 10.1 C 75 %
1431 20-12-2019 22:22:17 10.1 C 75 %
1432 20-12-2019 22:32:17 10.1 C 75 %
1433 20-12-2019 22:42:17 10.1 C 75 %
1434 20-12-2019 22:52:17 10.1 C 75 %
1435 20-12-2019 23:02:17 10.1 C 75 %
1436 20-12-2019 23:12:17 10 C 75 %
1437 20-12-2019 23:22:17 10.1 C 75 %
1438 20-12-2019 23:32:17 10.1 C 75 %
1439 20-12-2019 23:42:17 10.1 C 75 %
1440 20-12-2019 23:52:18 10.1 C 75 %
1441 21-12-2019 00:02:17 10.1 C 75 %
1442 21-12-2019 00:12:17 10.1 C 75 %
1443 21-12-2019 00:22:17 10.1 C 75 %
1444 21-12-2019 00:32:17 10.1 C 75 %
1445 21-12-2019 00:42:17 10.1 C 75 %
1446 21-12-2019 00:52:18 10.1 C 75 %
1447 21-12-2019 01:02:17 10.1 C 75 %
1448 21-12-2019 01:12:17 10.1 C 75 %
1449 21-12-2019 01:22:17 10.1 C 75 %
1450 21-12-2019 01:32:17 10.1 C 75 %
Sensor: Nr:Datum:Temp:Feuchte:
G-T/H 1451 21-12-2019 01:42:17 10.1 C 75 %
1452 21-12-2019 01:52:17 10.1 C 75 %
1453 21-12-2019 02:02:17 10.1 C 75 %
1454 21-12-2019 02:12:17 10.1 C 75 %
1455 21-12-2019 02:22:17 10.2 C 75 %
1456 21-12-2019 02:32:18 10.2 C 75 %
1457 21-12-2019 02:42:18 10.2 C 75 %
1458 21-12-2019 02:52:17 10.2 C 75 %
1459 21-12-2019 03:02:17 10.2 C 75 %
1460 21-12-2019 03:12:17 10.2 C 75 %
1461 21-12-2019 03:22:17 10.2 C 75 %
1462 21-12-2019 03:32:18 10.2 C 75 %
1463 21-12-2019 03:42:18 10.2 C 75 %
1464 21-12-2019 03:52:17 10.2 C 75 %
1465 21-12-2019 04:02:17 10.2 C 75 %
1466 21-12-2019 04:12:17 10.2 C 75 %
1467 21-12-2019 04:22:17 10.2 C 75 %
1468 21-12-2019 04:32:18 10.2 C 75 %
1469 21-12-2019 04:42:18 10.2 C 75 %
1470 21-12-2019 04:52:17 10.2 C 75 %
1471 21-12-2019 05:02:17 10.2 C 75 %
1472 21-12-2019 05:12:17 10.2 C 75 %
1473 21-12-2019 05:22:17 10.2 C 75 %
1474 21-12-2019 05:32:18 10.2 C 75 %
1475 21-12-2019 05:42:18 10.2 C 75 %
Sensor: Nr:Datum:Temp:Feuchte:
G-T/H 1476 21-12-2019 05:52:17 10.2 C 75 %
1477 21-12-2019 06:02:17 10.2 C 75 %
1478 21-12-2019 06:12:17 10.2 C 75 %
1479 21-12-2019 06:22:18 10.2 C 75 %
1480 21-12-2019 06:32:17 10.1 C 75 %
1481 21-12-2019 06:42:17 10.1 C 75 %
1482 21-12-2019 06:52:18 10.2 C 75 %
1483 21-12-2019 07:02:17 10.1 C 75 %
1484 21-12-2019 07:12:18 10.1 C 75 %
1485 21-12-2019 07:22:17 10.1 C 75 %
1486 21-12-2019 07:32:17 10.1 C 75 %
1487 21-12-2019 07:42:17 10.1 C 75 %
1488 21-12-2019 07:52:17 10.1 C 75 %
1489 21-12-2019 08:02:17 10.1 C 74 %
1490 21-12-2019 08:12:17 10.1 C 74 %
1491 21-12-2019 08:22:17 10.1 C 74 %
1492 21-12-2019 08:32:17 10.1 C 74 %
1493 21-12-2019 08:42:17 10.1 C 74 %
1494 21-12-2019 08:52:17 10.1 C 74 %
1495 21-12-2019 09:02:17 10.1 C 74 %
1496 21-12-2019 09:12:17 10.1 C 74 %
1497 21-12-2019 09:22:17 10.1 C 74 %
1498 21-12-2019 09:32:17 10.1 C 74 %
1499 21-12-2019 09:42:17 10.1 C 74 %
1500 21-12-2019 09:52:17 10 C 74 %
Sensor: Nr:Datum:Temp:Feuchte:
G-T/H 1501 21-12-2019 10:02:17 10 C 74 %
1502 21-12-2019 10:12:17 10 C 74 %
1503 21-12-2019 10:22:17 10 C 74 %
1504 21-12-2019 10:32:17 10 C 74 %
1505 21-12-2019 10:42:17 10 C 74 %
1506 21-12-2019 10:52:17 10 C 74 %
1507 21-12-2019 11:02:17 10 C 74 %
1508 21-12-2019 11:12:17 10 C 74 %
1509 21-12-2019 11:22:17 10 C 74 %
1510 21-12-2019 11:32:17 10 C 74 %
1511 21-12-2019 11:42:17 10 C 74 %
1512 21-12-2019 11:52:17 10.1 C 74 %
1513 21-12-2019 12:02:17 10.1 C 74 %
1514 21-12-2019 12:12:17 10.2 C 74 %
1515 21-12-2019 12:22:17 10.1 C 74 %
1516 21-12-2019 12:32:17 10.1 C 74 %
1517 21-12-2019 12:42:17 10.1 C 74 %
1518 21-12-2019 12:52:17 10.1 C 74 %
1519 21-12-2019 13:02:17 10.1 C 74 %
1520 21-12-2019 13:12:17 10 C 74 %
1521 21-12-2019 13:22:17 10 C 74 %
1522 21-12-2019 13:32:17 10 C 74 %
1523 21-12-2019 13:42:17 10 C 74 %
1524 21-12-2019 13:52:18 10 C 74 %
1525 21-12-2019 14:02:17 10 C 74 %
Sensor: Nr:Datum:Temp:Feuchte:
G-T/H 1526 21-12-2019 14:12:17 10 C 74 %
1527 21-12-2019 14:22:17 10 C 74 %
1528 21-12-2019 14:32:18 10 C 74 %
1529 21-12-2019 14:42:18 10 C 74 %
1530 21-12-2019 14:52:17 10 C 74 %
1531 21-12-2019 15:02:18 10 C 74 %
1532 21-12-2019 15:12:18 10 C 74 %
1533 21-12-2019 15:22:18 10 C 74 %
1534 21-12-2019 15:32:17 10 C 74 %
1535 21-12-2019 15:42:17 10 C 74 %
1536 21-12-2019 15:52:17 10 C 74 %
1537 21-12-2019 16:02:17 10 C 74 %
1538 21-12-2019 16:12:17 10 C 74 %
1539 21-12-2019 16:22:17 10 C 74 %
1540 21-12-2019 16:32:17 9.9 C 76 %
1541 21-12-2019 16:42:17 10 C 74 %
1542 21-12-2019 16:52:17 10 C 74 %
1543 21-12-2019 17:02:17 10 C 74 %
1544 21-12-2019 17:12:17 10 C 75 %
1545 21-12-2019 17:22:17 10 C 75 %
1546 21-12-2019 17:32:17 10 C 75 %
1547 21-12-2019 17:42:17 10 C 75 %
1548 21-12-2019 17:52:17 10 C 75 %
1549 21-12-2019 18:02:17 10 C 75 %
1550 21-12-2019 18:12:17 10 C 75 %
Sensor: Nr:Datum:Temp:Feuchte:
G-T/H 1551 21-12-2019 18:22:17 10 C 75 %
1552 21-12-2019 18:32:18 10 C 75 %
1553 21-12-2019 18:42:18 10 C 75 %
1554 21-12-2019 18:52:17 10 C 75 %
1555 21-12-2019 19:02:17 10 C 75 %
1556 21-12-2019 19:12:17 10 C 75 %
1557 21-12-2019 19:22:17 10 C 75 %
1558 21-12-2019 19:32:17 10 C 75 %
1559 21-12-2019 19:42:17 10 C 75 %
1560 21-12-2019 19:52:17 10 C 75 %
1561 21-12-2019 20:02:17 10 C 75 %
1562 21-12-2019 20:12:17 10 C 75 %
1563 21-12-2019 20:22:17 10 C 75 %
1564 21-12-2019 20:32:17 10 C 75 %
1565 21-12-2019 20:42:17 10 C 75 %
1566 21-12-2019 20:52:17 10 C 75 %
1567 21-12-2019 21:02:18 10 C 75 %
1568 21-12-2019 21:12:18 10 C 75 %
1569 21-12-2019 21:22:17 10 C 75 %
1570 21-12-2019 21:32:17 10 C 75 %
1571 21-12-2019 21:42:17 10 C 75 %
1572 21-12-2019 21:52:18 10 C 75 %
1573 21-12-2019 22:02:18 10 C 75 %
1574 21-12-2019 22:12:18 10 C 75 %
1575 21-12-2019 22:22:17 10 C 75 %
Sensor: Nr:Datum:Temp:Feuchte:
G-T/H 1576 21-12-2019 22:32:17 10 C 75 %
1577 21-12-2019 22:42:17 10 C 75 %
1578 21-12-2019 22:52:17 10 C 74 %
1579 21-12-2019 23:02:17 10 C 74 %
1580 21-12-2019 23:12:17 10 C 74 %
1581 21-12-2019 23:22:17 10 C 74 %
1582 21-12-2019 23:32:18 10 C 74 %
1583 21-12-2019 23:42:18 10 C 74 %
1584 21-12-2019 23:52:17 10 C 74 %
1585 22-12-2019 00:02:17 10 C 74 %
1586 22-12-2019 00:12:17 10 C 74 %
1587 22-12-2019 00:22:17 10 C 74 %
1588 22-12-2019 00:32:17 10 C 74 %
1589 22-12-2019 00:42:17 10 C 74 %
1590 22-12-2019 00:52:17 10 C 74 %
1591 22-12-2019 01:02:17 10 C 74 %
1592 22-12-2019 01:12:18 10 C 74 %
1593 22-12-2019 01:22:17 10 C 74 %
1594 22-12-2019 01:32:17 10 C 74 %
1595 22-12-2019 01:42:17 10 C 74 %
1596 22-12-2019 01:52:17 10 C 74 %
1597 22-12-2019 02:02:17 10 C 74 %
1598 22-12-2019 02:12:18 10 C 74 %
1599 22-12-2019 02:22:17 10 C 74 %
1600 22-12-2019 02:32:17 10 C 74 %
Sensor: Nr:Datum:Temp:Feuchte:
G-T/H 1601 22-12-2019 02:42:17 10 C 74 %
1602 22-12-2019 02:52:18 10 C 74 %
1603 22-12-2019 03:02:17 10 C 74 %
1604 22-12-2019 03:12:17 10 C 74 %
1605 22-12-2019 03:22:17 10 C 74 %
1606 22-12-2019 03:32:17 10 C 74 %
1607 22-12-2019 03:42:17 10 C 74 %
1608 22-12-2019 03:52:17 10 C 74 %
1609 22-12-2019 04:02:18 10 C 75 %
1610 22-12-2019 04:12:18 10 C 74 %
1611 22-12-2019 04:22:17 10 C 75 %
1612 22-12-2019 04:32:17 10 C 75 %
1613 22-12-2019 04:42:17 10 C 75 %
1614 22-12-2019 04:52:17 10 C 75 %
1615 22-12-2019 05:02:17 10 C 75 %
1616 22-12-2019 05:12:17 10 C 75 %
1617 22-12-2019 05:22:17 10 C 75 %
1618 22-12-2019 05:32:17 10 C 75 %
1619 22-12-2019 05:42:17 10 C 75 %
1620 22-12-2019 05:52:17 10 C 75 %
1621 22-12-2019 06:02:17 10 C 75 %
1622 22-12-2019 06:12:17 10 C 75 %
1623 22-12-2019 06:22:17 10 C 75 %
1624 22-12-2019 06:32:17 10 C 75 %
1625 22-12-2019 06:42:17 10 C 75 %
Sensor: Nr:Datum:Temp:Feuchte:
G-T/H 1626 22-12-2019 06:52:17 10 C 75 %
1627 22-12-2019 07:02:17 10 C 75 %
1628 22-12-2019 07:12:17 10 C 75 %
1629 22-12-2019 07:22:17 10 C 75 %
1630 22-12-2019 07:32:17 10 C 75 %
1631 22-12-2019 07:42:17 10 C 75 %
1632 22-12-2019 07:52:17 10 C 75 %
1633 22-12-2019 08:02:18 10 C 75 %
1634 22-12-2019 08:12:18 10 C 75 %
1635 22-12-2019 08:22:17 10 C 75 %
1636 22-12-2019 08:32:17 10 C 75 %
1637 22-12-2019 08:42:17 10 C 75 %
1638 22-12-2019 08:52:18 10 C 75 %
1639 22-12-2019 09:02:17 10 C 75 %
1640 22-12-2019 09:12:17 10 C 75 %
1641 22-12-2019 09:22:17 10 C 75 %
1642 22-12-2019 09:32:17 10 C 75 %
1643 22-12-2019 09:42:17 10 C 75 %
1644 22-12-2019 09:52:17 10 C 75 %
1645 22-12-2019 10:02:17 10 C 75 %
1646 22-12-2019 10:12:17 10 C 75 %
1647 22-12-2019 10:22:17 10 C 75 %
1648 22-12-2019 10:32:17 10 C 75 %
1649 22-12-2019 10:42:17 10 C 75 %
1650 22-12-2019 10:52:17 10 C 75 %
Sensor: Nr:Datum:Temp:Feuchte:
G-T/H 1651 22-12-2019 11:02:17 10 C 75 %
1652 22-12-2019 11:12:17 10 C 75 %
1653 22-12-2019 11:22:17 10 C 75 %
1654 22-12-2019 11:32:18 10 C 75 %
1655 22-12-2019 11:42:18 10 C 75 %
1656 22-12-2019 11:52:17 10 C 75 %
1657 22-12-2019 12:02:17 10 C 75 %
1658 22-12-2019 12:12:17 10 C 75 %
1659 22-12-2019 12:22:17 10 C 75 %
1660 22-12-2019 12:32:17 10.1 C 75 %
1661 22-12-2019 12:42:17 10.1 C 75 %
1662 22-12-2019 12:52:17 10.1 C 75 %
1663 22-12-2019 13:02:17 10.1 C 75 %
1664 22-12-2019 13:12:17 10.1 C 75 %